Darstellungsparameter: Aktuell verwendete Einstellungen:
Skalierung der Graphiken ... ?
xyx+y,   Skalierungsfaktor:      Skalierung: Modus: x, Faktor: 1
Darstellungszeitraum ... ?
Vom - - bis: - -   Zeitraum: 22.03.2020 - 21.04.2020
Min/Max/Avg-Anzeige ... ?
Zeige MMA aktuell
Zeige MMA Monat
Zeige MMA alles
Zeige --A aktuell
Zeige --A Monat
Zeige --A alles
Keine MMA-Anzeige
MMA:
Keine MMA-Graphiken
MMA-Basis: 22.03.2020 - 21.04.2020
Quicknavigation für Darstellung... ?
Tage:      1T, 2T, 3T, 5T -1T -2T -3T -5T +1T +2T +3T +5T
Wochen: 1W, 2W, 3W -1W -2W -3W +1W +2W +3W
Monate: 1M, 3M, 6M -1M -3M -6M +1M +3M +6M
Jahre:    1J, 3J, 5J, 10J -1J -3J -5J -10J +1J +3J +5J +10J
Nutze für die Darstellung ... ?
Originaldaten oder Mittelwerte auf ...
Stundenbasis Tagesbasis Wochenbasis
Monatsbasis Jahresbasis      Datenbasis: Original-Daten
Darstellen als:
Statistik (Auto) Statistik J:M      Darstellung:
Zur Graphik,    zurück zur Übersicht aller Sensoren.
 
Tabellarische Datenbersicht: ?
 
Sensor: Nr:Datum:Temp:Feuchte:
Aussen-T/F 1 22-03-2020 00:00:18 1.4 C 35 %
2 22-03-2020 00:10:18 1.5 C 35 %
3 22-03-2020 00:20:17 0.9 C 37 %
4 22-03-2020 00:30:17 0.7 C 38 %
5 22-03-2020 00:40:17 1.2 C 36 %
6 22-03-2020 00:50:17 0.9 C 37 %
7 22-03-2020 01:00:18 1.5 C 35 %
8 22-03-2020 01:10:18 1.5 C 35 %
9 22-03-2020 01:20:18 1.1 C 35 %
10 22-03-2020 01:30:18 1.1 C 35 %
11 22-03-2020 01:40:18 0.9 C 36 %
12 22-03-2020 01:50:18 1 C 35 %
13 22-03-2020 02:00:18 1 C 35 %
14 22-03-2020 02:10:18 0.1 C 38 %
15 22-03-2020 02:20:17 0.3 C 38 %
16 22-03-2020 02:30:18 0.5 C 37 %
17 22-03-2020 02:40:18 0.5 C 37 %
18 22-03-2020 02:50:18 0.4 C 37 %
19 22-03-2020 03:00:18 0.2 C 37 %
20 22-03-2020 03:10:18 0.7 C 37 %
21 22-03-2020 03:20:18 -0.4 C 38 %
22 22-03-2020 03:30:18 -0.1 C 38 %
23 22-03-2020 03:40:18 -0.4 C 39 %
24 22-03-2020 03:50:17 -0.3 C 39 %
25 22-03-2020 04:00:17 -0.2 C 38 %
Sensor: Nr:Datum:Temp:Feuchte:
Aussen-T/F 26 22-03-2020 04:10:17 0 C 37 %
27 22-03-2020 04:20:17 -0.4 C 38 %
28 22-03-2020 04:30:17 0.3 C 37 %
29 22-03-2020 04:40:17 0.1 C 37 %
30 22-03-2020 04:50:17 -0.2 C 38 %
31 22-03-2020 05:00:18 0.1 C 37 %
32 22-03-2020 05:10:18 -0.3 C 37 %
33 22-03-2020 05:20:17 -0.4 C 37 %
34 22-03-2020 05:30:18 -0.5 C 38 %
35 22-03-2020 05:40:18 -0.7 C 38 %
36 22-03-2020 05:50:17 -1 C 39 %
37 22-03-2020 06:00:17 -1.1 C 39 %
38 22-03-2020 06:10:17 -0.8 C 39 %
39 22-03-2020 06:20:17 0.1 C 37 %
40 22-03-2020 06:30:17 -0.3 C 37 %
41 22-03-2020 06:40:17 -0.4 C 37 %
42 22-03-2020 06:50:18 0 C 36 %
43 22-03-2020 07:00:18 -0.3 C 37 %
44 22-03-2020 07:10:18 -0.2 C 37 %
45 22-03-2020 07:20:18 -0.4 C 37 %
46 22-03-2020 07:30:18 -0.1 C 36 %
47 22-03-2020 07:40:18 -0.2 C 37 %
48 22-03-2020 07:50:17 -0.1 C 36 %
49 22-03-2020 08:00:18 -0.1 C 36 %
50 22-03-2020 08:10:18 0.3 C 36 %
Sensor: Nr:Datum:Temp:Feuchte:
Aussen-T/F 51 22-03-2020 08:20:18 0.3 C 35 %
52 22-03-2020 08:30:18 0.5 C 35 %
53 22-03-2020 08:40:18 0.8 C 35 %
54 22-03-2020 08:50:18 0.4 C 35 %
55 22-03-2020 09:00:18 0.8 C 35 %
56 22-03-2020 09:10:18 1.2 C 32 %
57 22-03-2020 09:20:18 1.6 C 32 %
58 22-03-2020 09:30:18 2.2 C 30 %
59 22-03-2020 09:40:18 2.5 C 27 %
60 22-03-2020 09:50:17 2.8 C 26 %
61 22-03-2020 10:00:18 3.3 C 25 %
62 22-03-2020 10:10:18 3.6 C 25 %
63 22-03-2020 10:20:18 3.9 C 20 %
64 22-03-2020 10:30:18 4.4 C 20 %
65 22-03-2020 10:40:18 4.6 C 20 %
66 22-03-2020 10:50:17 5.2 C 20 %
67 22-03-2020 11:00:18 5.5 C 20 %
68 22-03-2020 11:10:18 6.3 C 20 %
69 22-03-2020 11:20:17 6.5 C 20 %
70 22-03-2020 11:30:18 6.7 C 20 %
71 22-03-2020 11:40:18 6.7 C 20 %
72 22-03-2020 11:50:17 6.5 C 20 %
73 22-03-2020 12:00:18 7 C 20 %
74 22-03-2020 12:10:18 7.4 C 20 %
75 22-03-2020 12:20:18 7.3 C 20 %
Sensor: Nr:Datum:Temp:Feuchte:
Aussen-T/F 76 22-03-2020 12:30:17 6.9 C 20 %
77 22-03-2020 12:40:17 8 C 20 %
78 22-03-2020 12:50:18 8.5 C 20 %
79 22-03-2020 13:00:18 10.1 C 20 %
80 22-03-2020 13:10:18 11.1 C 20 %
81 22-03-2020 13:20:17 11.9 C 20 %
82 22-03-2020 13:30:18 11.6 C 20 %
83 22-03-2020 13:40:18 10.9 C 20 %
84 22-03-2020 13:50:18 10.3 C 20 %
85 22-03-2020 14:00:17 9.6 C 20 %
86 22-03-2020 14:10:17 10.2 C 20 %
87 22-03-2020 14:20:17 12.2 C 20 %
88 22-03-2020 14:30:17 12.6 C 20 %
89 22-03-2020 14:40:17 14.4 C 20 %
90 22-03-2020 14:50:17 14.4 C 20 %
91 22-03-2020 15:00:18 15 C 20 %
92 22-03-2020 15:10:18 14.4 C 20 %
93 22-03-2020 15:20:17 14.7 C 20 %
94 22-03-2020 15:30:17 13.6 C 20 %
95 22-03-2020 15:40:17 13.7 C 20 %
96 22-03-2020 15:50:18 15.4 C 20 %
97 22-03-2020 16:00:18 16.2 C 20 %
98 22-03-2020 16:10:18 14.9 C 20 %
99 22-03-2020 16:20:18 14.1 C 20 %
100 22-03-2020 16:30:18 13.3 C 20 %
Sensor: Nr:Datum:Temp:Feuchte:
Aussen-T/F 101 22-03-2020 16:40:18 13.2 C 20 %
102 22-03-2020 16:50:17 11.7 C 20 %
103 22-03-2020 17:00:17 10.7 C 20 %
104 22-03-2020 17:10:17 9.9 C 20 %
105 22-03-2020 17:20:17 9.7 C 20 %
106 22-03-2020 17:30:17 9.8 C 20 %
107 22-03-2020 17:40:17 9.5 C 20 %
108 22-03-2020 17:50:17 8.9 C 20 %
109 22-03-2020 18:00:18 8.6 C 20 %
110 22-03-2020 18:10:18 8.4 C 20 %
111 22-03-2020 18:20:17 7.9 C 20 %
112 22-03-2020 18:30:17 7.5 C 20 %
113 22-03-2020 18:40:17 7 C 20 %
114 22-03-2020 18:50:17 6.5 C 20 %
115 22-03-2020 19:00:17 5.6 C 20 %
116 22-03-2020 19:10:17 4.9 C 21 %
117 22-03-2020 19:20:17 5.2 C 20 %
118 22-03-2020 19:30:17 4.3 C 26 %
119 22-03-2020 19:40:17 3.8 C 27 %
120 22-03-2020 19:50:18 3.7 C 28 %
121 22-03-2020 20:00:18 3.6 C 28 %
122 22-03-2020 20:10:18 3.6 C 27 %
123 22-03-2020 20:20:17 3.6 C 26 %
124 22-03-2020 20:30:17 3.2 C 26 %
125 22-03-2020 20:40:17 3 C 26 %
Sensor: Nr:Datum:Temp:Feuchte:
Aussen-T/F 126 22-03-2020 20:50:17 2.5 C 30 %
127 22-03-2020 21:00:17 2.9 C 26 %
128 22-03-2020 21:10:17 2.7 C 27 %
129 22-03-2020 21:20:17 2.3 C 30 %
130 22-03-2020 21:30:17 2.2 C 29 %
131 22-03-2020 21:40:17 1.8 C 30 %
132 22-03-2020 21:50:18 1.5 C 31 %
133 22-03-2020 22:00:18 2 C 30 %
134 22-03-2020 22:10:18 2.5 C 26 %
135 22-03-2020 22:20:17 1.8 C 30 %
136 22-03-2020 22:30:17 1.5 C 29 %
137 22-03-2020 22:40:17 1.3 C 31 %
138 22-03-2020 22:50:17 1.4 C 30 %
139 22-03-2020 23:00:17 0.7 C 33 %
140 22-03-2020 23:10:17 1.1 C 30 %
141 22-03-2020 23:20:17 0.8 C 32 %
142 22-03-2020 23:30:18 0.3 C 33 %
143 22-03-2020 23:40:18 0.3 C 34 %
144 22-03-2020 23:50:18 0.6 C 33 %
145 23-03-2020 00:00:18 0.4 C 34 %
146 23-03-2020 00:10:18 0 C 33 %
147 23-03-2020 00:20:17 -0.2 C 33 %
148 23-03-2020 00:30:17 -0.5 C 35 %
149 23-03-2020 00:40:17 -0.7 C 36 %
150 23-03-2020 00:50:18 -1.1 C 36 %
Sensor: Nr:Datum:Temp:Feuchte:
Aussen-T/F 151 23-03-2020 01:00:17 -0.6 C 35 %
152 23-03-2020 01:10:17 -0.7 C 36 %
153 23-03-2020 01:20:17 -0.9 C 35 %
154 23-03-2020 01:30:18 -0.8 C 35 %
155 23-03-2020 01:40:18 -1.1 C 35 %
156 23-03-2020 01:50:18 -0.8 C 35 %
157 23-03-2020 02:00:18 -1.1 C 35 %
158 23-03-2020 02:10:18 -1.4 C 35 %
159 23-03-2020 02:20:17 -1.2 C 35 %
160 23-03-2020 02:30:17 -1.2 C 35 %
161 23-03-2020 02:40:17 -1.2 C 35 %
162 23-03-2020 02:50:17 -1.3 C 35 %
163 23-03-2020 03:00:17 -1.6 C 35 %
164 23-03-2020 03:10:18 -1.9 C 35 %
165 23-03-2020 03:20:18 -1.6 C 35 %
166 23-03-2020 03:30:18 -1.7 C 35 %
167 23-03-2020 03:40:18 -1.9 C 35 %
168 23-03-2020 03:50:18 -1.8 C 35 %
169 23-03-2020 04:00:18 -1.8 C 35 %
170 23-03-2020 04:10:18 -2.1 C 35 %
171 23-03-2020 04:20:17 -1.9 C 35 %
172 23-03-2020 04:30:17 -2 C 35 %
173 23-03-2020 04:40:17 -2.1 C 35 %
174 23-03-2020 04:50:17 -2.7 C 36 %
175 23-03-2020 05:00:18 -2.5 C 36 %
Sensor: Nr:Datum:Temp:Feuchte:
Aussen-T/F 176 23-03-2020 05:10:18 -2.4 C 36 %
177 23-03-2020 05:20:17 -2.3 C 36 %
178 23-03-2020 05:30:18 -2.4 C 35 %
179 23-03-2020 05:40:18 -2.7 C 36 %
180 23-03-2020 05:50:17 -2.7 C 36 %
181 23-03-2020 06:00:18 -2.6 C 36 %
182 23-03-2020 06:10:18 -2.9 C 36 %
183 23-03-2020 06:20:17 -2.6 C 36 %
184 23-03-2020 06:30:18 -2.8 C 36 %
185 23-03-2020 06:40:18 -3.2 C 36 %
186 23-03-2020 06:50:18 -3 C 36 %
187 23-03-2020 07:00:18 -3 C 36 %
188 23-03-2020 07:10:18 -3.1 C 36 %
189 23-03-2020 07:20:18 -2.5 C 35 %
190 23-03-2020 07:30:18 -2.7 C 36 %
191 23-03-2020 07:40:18 -2.6 C 36 %
192 23-03-2020 07:50:18 -1.9 C 34 %
193 23-03-2020 08:00:18 -2 C 35 %
194 23-03-2020 08:10:18 -1.4 C 32 %
195 23-03-2020 08:20:17 -1.1 C 31 %
196 23-03-2020 08:30:18 -0.2 C 27 %
197 23-03-2020 08:40:18 -0.2 C 26 %
198 23-03-2020 08:50:18 -0.3 C 25 %
199 23-03-2020 09:00:18 0 C 23 %
200 23-03-2020 09:10:18 0.2 C 23 %
Sensor: Nr:Datum:Temp:Feuchte:
Aussen-T/F 201 23-03-2020 09:20:18 0.5 C 20 %
202 23-03-2020 09:30:17 0.7 C 20 %
203 23-03-2020 09:40:17 1.5 C 20 %
204 23-03-2020 09:50:18 1.8 C 20 %
205 23-03-2020 10:00:18 2.4 C 20 %
206 23-03-2020 10:10:18 2.7 C 20 %
207 23-03-2020 10:20:18 3 C 20 %
208 23-03-2020 10:30:17 3.8 C 20 %
209 23-03-2020 10:40:17 4.1 C 20 %
210 23-03-2020 10:50:17 4.7 C 20 %
211 23-03-2020 11:00:17 5.5 C 20 %
212 23-03-2020 11:10:17 5.5 C 20 %
213 23-03-2020 11:20:17 6 C 20 %
214 23-03-2020 11:30:18 6.7 C 20 %
215 23-03-2020 11:40:18 6.2 C 20 %
216 23-03-2020 11:50:17 6.3 C 20 %
217 23-03-2020 12:00:18 7 C 20 %
218 23-03-2020 12:10:18 7.4 C 20 %
219 23-03-2020 12:20:18 7.8 C 20 %
220 23-03-2020 12:30:18 7.5 C 20 %
221 23-03-2020 12:40:18 8.1 C 20 %
222 23-03-2020 12:50:18 8.7 C 20 %
223 23-03-2020 13:00:17 10.4 C 20 %
224 23-03-2020 13:10:17 10.7 C 20 %
225 23-03-2020 13:20:17 11.9 C 20 %
Sensor: Nr:Datum:Temp:Feuchte:
Aussen-T/F 226 23-03-2020 13:30:17 11.4 C 20 %
227 23-03-2020 13:40:17 10 C 20 %
228 23-03-2020 13:50:17 9.8 C 20 %
229 23-03-2020 14:00:18 9.2 C 20 %
230 23-03-2020 14:10:18 10.5 C 20 %
231 23-03-2020 14:20:18 12.9 C 20 %
232 23-03-2020 14:30:18 13 C 20 %
233 23-03-2020 14:40:18 14.2 C 20 %
234 23-03-2020 14:50:18 14.3 C 20 %
235 23-03-2020 15:00:18 14.3 C 20 %
236 23-03-2020 15:10:18 14.4 C 20 %
237 23-03-2020 15:20:17 14.7 C 20 %
238 23-03-2020 15:30:17 13.5 C 20 %
239 23-03-2020 15:40:17 14.4 C 20 %
240 23-03-2020 15:50:17 14.1 C 20 %
241 23-03-2020 16:00:17 13.8 C 20 %
242 23-03-2020 16:10:17 14.7 C 20 %
243 23-03-2020 16:20:17 15.3 C 20 %
244 23-03-2020 16:30:18 14.7 C 20 %
245 23-03-2020 16:40:18 14.8 C 20 %
246 23-03-2020 16:50:17 11.4 C 20 %
247 23-03-2020 17:00:18 10.1 C 20 %
248 23-03-2020 17:10:18 9.7 C 20 %
249 23-03-2020 17:20:18 9.4 C 20 %
250 23-03-2020 17:30:18 9 C 20 %
Sensor: Nr:Datum:Temp:Feuchte:
Aussen-T/F 251 23-03-2020 17:40:18 9 C 20 %
252 23-03-2020 17:50:17 8.6 C 20 %
253 23-03-2020 18:00:18 8.3 C 20 %
254 23-03-2020 18:10:18 7.6 C 20 %
255 23-03-2020 18:20:17 7.4 C 20 %
256 23-03-2020 18:30:18 7 C 20 %
257 23-03-2020 18:40:18 5.3 C 20 %
258 23-03-2020 18:50:18 4.4 C 20 %
259 23-03-2020 19:00:18 4.2 C 20 %
260 23-03-2020 19:10:18 4.1 C 20 %
261 23-03-2020 19:20:17 3.7 C 20 %
262 23-03-2020 19:30:18 3.6 C 20 %
263 23-03-2020 19:40:18 3.4 C 20 %
264 23-03-2020 19:50:18 2.7 C 20 %
265 23-03-2020 20:00:17 2.9 C 20 %
266 23-03-2020 20:10:17 2.6 C 20 %
267 23-03-2020 20:20:17 2.5 C 20 %
268 23-03-2020 20:30:18 2.3 C 20 %
269 23-03-2020 20:40:18 2.4 C 20 %
270 23-03-2020 20:50:18 2.3 C 20 %
271 23-03-2020 21:00:18 2.1 C 20 %
272 23-03-2020 21:10:18 0.9 C 27 %
273 23-03-2020 21:20:17 1 C 26 %
274 23-03-2020 21:30:18 1.1 C 28 %
275 23-03-2020 21:40:18 0.7 C 29 %
Sensor: Nr:Datum:Temp:Feuchte:
Aussen-T/F 276 23-03-2020 21:50:18 0.2 C 30 %
277 23-03-2020 22:00:17 -0.4 C 31 %
278 23-03-2020 22:10:18 -0.9 C 35 %
279 23-03-2020 22:20:18 -0.2 C 34 %
280 23-03-2020 22:30:18 -0.9 C 35 %
281 23-03-2020 22:40:18 -0.9 C 35 %
282 23-03-2020 22:50:18 -1.3 C 35 %
283 23-03-2020 23:00:18 -1.4 C 36 %
284 23-03-2020 23:10:18 -1.6 C 36 %
285 23-03-2020 23:20:17 -1.7 C 36 %
286 23-03-2020 23:30:17 -1.7 C 37 %
287 23-03-2020 23:40:17 -1.9 C 37 %
288 23-03-2020 23:50:18 -1.8 C 37 %
289 24-03-2020 00:00:18 -1.9 C 36 %
290 24-03-2020 00:10:18 -2 C 36 %
291 24-03-2020 00:20:17 -2.2 C 36 %
292 24-03-2020 00:30:18 -2.4 C 37 %
293 24-03-2020 00:40:18 -2.4 C 38 %
294 24-03-2020 00:50:18 -2.5 C 38 %
295 24-03-2020 01:00:18 -2.3 C 37 %
296 24-03-2020 01:10:18 -2.6 C 37 %
297 24-03-2020 01:20:18 -2.7 C 38 %
298 24-03-2020 01:30:18 -2.7 C 38 %
299 24-03-2020 01:40:18 -3 C 38 %
300 24-03-2020 01:50:18 -2.5 C 37 %
Sensor: Nr:Datum:Temp:Feuchte:
Aussen-T/F 301 24-03-2020 02:00:18 -2.6 C 38 %
302 24-03-2020 02:10:18 -2.8 C 38 %
303 24-03-2020 02:20:17 -3.1 C 38 %
304 24-03-2020 02:30:17 -3.2 C 38 %
305 24-03-2020 02:40:17 -3.3 C 38 %
306 24-03-2020 02:50:17 -3.2 C 38 %
307 24-03-2020 03:00:17 -3.4 C 38 %
308 24-03-2020 03:10:17 -3.5 C 38 %
309 24-03-2020 03:20:17 -3.6 C 39 %
310 24-03-2020 03:30:17 -3.6 C 38 %
311 24-03-2020 03:40:17 -3.7 C 38 %
312 24-03-2020 03:50:17 -3.9 C 39 %
313 24-03-2020 04:00:18 -3.7 C 39 %
314 24-03-2020 04:10:18 -3.9 C 38 %
315 24-03-2020 04:20:18 -4 C 38 %
316 24-03-2020 04:30:18 -4 C 38 %
317 24-03-2020 04:40:18 -4 C 38 %
318 24-03-2020 04:50:17 -3.9 C 38 %
319 24-03-2020 05:00:17 -4.2 C 38 %
320 24-03-2020 05:10:17 -4.3 C 39 %
321 24-03-2020 05:20:17 -4.2 C 38 %
322 24-03-2020 05:30:18 -4.3 C 38 %
323 24-03-2020 05:40:18 -4.4 C 38 %
324 24-03-2020 05:50:18 -4.6 C 39 %
325 24-03-2020 06:00:17 -4.7 C 39 %
Sensor: Nr:Datum:Temp:Feuchte:
Aussen-T/F 326 24-03-2020 06:10:18 -4.7 C 38 %
327 24-03-2020 06:20:17 -4.7 C 39 %
328 24-03-2020 06:30:18 -4.7 C 38 %
329 24-03-2020 06:40:18 -4.6 C 39 %
330 24-03-2020 06:50:18 -4.4 C 38 %
331 24-03-2020 07:00:18 -4.5 C 39 %
332 24-03-2020 07:10:18 -4.4 C 39 %
333 24-03-2020 07:20:18 -4.3 C 39 %
334 24-03-2020 07:30:18 -4.2 C 39 %
335 24-03-2020 07:40:18 -4 C 39 %
336 24-03-2020 07:50:17 -3.8 C 39 %
337 24-03-2020 08:00:17 -3.7 C 39 %
338 24-03-2020 08:10:17 -3.5 C 38 %
339 24-03-2020 08:20:17 -3.3 C 38 %
340 24-03-2020 08:30:17 -2.5 C 38 %
341 24-03-2020 08:40:17 -2.4 C 37 %
342 24-03-2020 08:50:17 -2 C 37 %
343 24-03-2020 09:00:17 -1.6 C 36 %
344 24-03-2020 09:10:17 -0.7 C 35 %
345 24-03-2020 09:20:17 -0.2 C 34 %
346 24-03-2020 09:30:17 0.4 C 30 %
347 24-03-2020 09:40:17 1 C 27 %
348 24-03-2020 09:50:18 1.7 C 23 %
349 24-03-2020 10:00:18 3 C 20 %
350 24-03-2020 10:10:18 3.3 C 20 %
Sensor: Nr:Datum:Temp:Feuchte:
Aussen-T/F 351 24-03-2020 10:20:17 3.9 C 20 %
352 24-03-2020 10:30:17 4.3 C 20 %
353 24-03-2020 10:40:17 4.7 C 20 %
354 24-03-2020 10:50:17 5.7 C 20 %
355 24-03-2020 11:00:18 5.7 C 20 %
356 24-03-2020 11:10:18 6.4 C 20 %
357 24-03-2020 11:20:17 6.9 C 20 %
358 24-03-2020 11:30:17 7.9 C 20 %
359 24-03-2020 11:40:17 7.2 C 20 %
360 24-03-2020 11:50:18 6.8 C 20 %
361 24-03-2020 12:00:18 7.8 C 20 %
362 24-03-2020 12:10:18 8.6 C 20 %
363 24-03-2020 12:20:17 8.2 C 20 %
364 24-03-2020 12:30:17 8.2 C 20 %
365 24-03-2020 12:40:17 9 C 20 %
366 24-03-2020 12:50:17 9.2 C 20 %
367 24-03-2020 13:00:18 10.4 C 20 %
368 24-03-2020 13:10:18 11.7 C 20 %
369 24-03-2020 13:20:17 12.5 C 20 %
370 24-03-2020 13:30:17 13 C 20 %
371 24-03-2020 13:40:17 11.9 C 20 %
372 24-03-2020 13:50:18 11 C 20 %
373 24-03-2020 14:00:17 10.8 C 20 %
374 24-03-2020 14:10:17 11.3 C 20 %
375 24-03-2020 14:20:17 13.7 C 20 %
Sensor: Nr:Datum:Temp:Feuchte:
Aussen-T/F 376 24-03-2020 14:30:17 12.2 C 20 %
377 24-03-2020 14:40:17 14.4 C 20 %
378 24-03-2020 14:50:18 13.4 C 20 %
379 24-03-2020 15:00:18 13.5 C 20 %
380 24-03-2020 15:10:18 14.1 C 20 %
381 24-03-2020 15:20:18 15.3 C 20 %
382 24-03-2020 15:30:18 14.1 C 20 %
383 24-03-2020 15:40:18 15.4 C 20 %
384 24-03-2020 15:50:18 14.9 C 20 %
385 24-03-2020 16:00:18 14.8 C 20 %
386 24-03-2020 16:10:18 14.8 C 20 %
387 24-03-2020 16:20:18 14.1 C 20 %
388 24-03-2020 16:30:18 13.6 C 20 %
389 24-03-2020 16:40:18 14.3 C 20 %
390 24-03-2020 16:50:18 11.4 C 20 %
391 24-03-2020 17:00:18 10.8 C 20 %
392 24-03-2020 17:10:18 10.4 C 20 %
393 24-03-2020 17:20:18 10.1 C 20 %
394 24-03-2020 17:30:18 9.9 C 20 %
395 24-03-2020 17:40:18 9.6 C 20 %
396 24-03-2020 17:50:17 9.3 C 20 %
397 24-03-2020 18:00:17 9 C 20 %
398 24-03-2020 18:10:17 8.6 C 20 %
399 24-03-2020 18:20:17 8.4 C 20 %
400 24-03-2020 18:30:17 7.6 C 20 %
Sensor: Nr:Datum:Temp:Feuchte:
Aussen-T/F 401 24-03-2020 18:40:18 6.4 C 20 %
402 24-03-2020 18:50:17 5.4 C 20 %
403 24-03-2020 19:00:18 4.9 C 20 %
404 24-03-2020 19:10:18 4.6 C 20 %
405 24-03-2020 19:20:18 4.5 C 20 %
406 24-03-2020 19:30:18 4.1 C 20 %
407 24-03-2020 19:40:18 3.9 C 20 %
408 24-03-2020 19:50:17 3.6 C 20 %
409 24-03-2020 20:00:18 3.6 C 20 %
410 24-03-2020 20:10:18 3.5 C 20 %
411 24-03-2020 20:20:17 3.4 C 20 %
412 24-03-2020 20:30:18 3.4 C 20 %
413 24-03-2020 20:40:18 2.9 C 20 %
414 24-03-2020 20:50:18 2.7 C 20 %
415 24-03-2020 21:00:18 2.7 C 20 %
416 24-03-2020 21:10:18 2.6 C 20 %
417 24-03-2020 21:20:17 2.3 C 20 %
418 24-03-2020 21:30:17 2.3 C 20 %
419 24-03-2020 21:40:17 2.2 C 20 %
420 24-03-2020 21:50:17 2.2 C 20 %
421 24-03-2020 22:00:18 1.7 C 20 %
422 24-03-2020 22:10:18 1.6 C 20 %
423 24-03-2020 22:20:17 1.6 C 20 %
424 24-03-2020 22:30:18 0.3 C 25 %
425 24-03-2020 22:40:18 -0.2 C 30 %
Sensor: Nr:Datum:Temp:Feuchte:
Aussen-T/F 426 24-03-2020 22:50:17 -0.7 C 30 %
427 24-03-2020 23:00:18 -1.2 C 32 %
428 24-03-2020 23:10:18 -1.1 C 31 %
429 24-03-2020 23:20:17 -1.4 C 31 %
430 24-03-2020 23:30:18 -1.7 C 30 %
431 24-03-2020 23:40:18 -0.9 C 30 %
432 24-03-2020 23:50:18 -1.2 C 30 %
433 25-03-2020 00:00:17 -1.6 C 30 %
434 25-03-2020 00:10:17 -1.6 C 31 %
435 25-03-2020 00:20:17 -1.8 C 32 %
436 25-03-2020 00:30:17 -1.8 C 30 %
437 25-03-2020 00:40:18 -1.9 C 31 %
438 25-03-2020 00:50:17 -1.8 C 32 %
439 25-03-2020 01:00:17 -1.6 C 32 %
440 25-03-2020 01:10:18 -1.3 C 31 %
441 25-03-2020 01:20:17 -1.1 C 30 %
442 25-03-2020 01:30:18 -1.1 C 29 %
443 25-03-2020 01:40:18 -0.9 C 28 %
444 25-03-2020 01:50:17 -1.1 C 28 %
445 25-03-2020 02:00:17 -1.1 C 28 %
446 25-03-2020 02:10:18 -1.3 C 27 %
447 25-03-2020 02:20:18 -1.4 C 29 %
448 25-03-2020 02:30:18 -1.6 C 27 %
449 25-03-2020 02:40:18 -1.5 C 27 %
450 25-03-2020 02:50:18 -1.4 C 27 %
Sensor: Nr:Datum:Temp:Feuchte:
Aussen-T/F 451 25-03-2020 03:00:18 -1.4 C 26 %
452 25-03-2020 03:10:18 -1.4 C 26 %
453 25-03-2020 03:20:17 -1.5 C 27 %
454 25-03-2020 03:30:17 -2.3 C 30 %
455 25-03-2020 03:40:17 -2.6 C 31 %
456 25-03-2020 03:50:17 -2.8 C 32 %
457 25-03-2020 04:00:17 -3.1 C 33 %
458 25-03-2020 04:10:17 -3.2 C 34 %
459 25-03-2020 04:20:17 -3.3 C 34 %
460 25-03-2020 04:30:18 -3.3 C 34 %
461 25-03-2020 04:40:18 -3 C 33 %
462 25-03-2020 04:50:17 -3.2 C 33 %
463 25-03-2020 05:00:18 -3 C 32 %
464 25-03-2020 05:10:18 -2.6 C 32 %
465 25-03-2020 05:20:17 -2.3 C 30 %
466 25-03-2020 05:30:17 -2.5 C 30 %
467 25-03-2020 05:40:17 -3.4 C 33 %
468 25-03-2020 05:50:17 -4 C 35 %
469 25-03-2020 06:00:17 -4.4 C 36 %
470 25-03-2020 06:10:17 -4.2 C 36 %
471 25-03-2020 06:20:17 -4.2 C 36 %
472 25-03-2020 06:30:17 -4.4 C 36 %
473 25-03-2020 06:40:17 -4.3 C 36 %
474 25-03-2020 06:50:17 -4.3 C 36 %
475 25-03-2020 07:00:17 -4.3 C 37 %
Sensor: Nr:Datum:Temp:Feuchte:
Aussen-T/F 476 25-03-2020 07:10:17 -4.3 C 37 %
477 25-03-2020 07:20:17 -4.1 C 37 %
478 25-03-2020 07:30:17 -4 C 37 %
479 25-03-2020 07:40:17 -3.8 C 37 %
480 25-03-2020 07:50:17 -3.2 C 36 %
481 25-03-2020 08:00:17 -2.6 C 35 %
482 25-03-2020 08:10:17 -2 C 32 %
483 25-03-2020 08:20:17 -2.7 C 35 %
484 25-03-2020 08:30:17 -2 C 34 %
485 25-03-2020 08:40:17 -1.9 C 34 %
486 25-03-2020 08:50:17 -1.6 C 34 %
487 25-03-2020 09:00:17 -1.5 C 34 %
488 25-03-2020 09:10:17 -1.3 C 35 %
489 25-03-2020 09:20:17 -1 C 35 %
490 25-03-2020 09:30:17 -0.2 C 32 %
491 25-03-2020 09:40:18 0.7 C 29 %
492 25-03-2020 09:50:17 2.1 C 20 %
493 25-03-2020 10:00:18 2.8 C 20 %
494 25-03-2020 10:10:18 3.2 C 20 %
495 25-03-2020 10:20:17 3.6 C 20 %
496 25-03-2020 10:30:17 4.1 C 20 %
497 25-03-2020 10:40:17 4.7 C 20 %
498 25-03-2020 10:50:17 5.1 C 20 %
499 25-03-2020 11:00:17 5.3 C 20 %
500 25-03-2020 11:10:17 5.7 C 20 %
Sensor: Nr:Datum:Temp:Feuchte:
Aussen-T/F 501 25-03-2020 11:20:17 7.2 C 20 %
502 25-03-2020 11:30:18 7.7 C 20 %
503 25-03-2020 11:40:18 7.3 C 20 %
504 25-03-2020 11:50:17 6.8 C 20 %
505 25-03-2020 12:00:17 7.8 C 20 %
506 25-03-2020 12:10:17 8.3 C 20 %
507 25-03-2020 12:20:17 8.4 C 20 %
508 25-03-2020 12:30:17 8.4 C 20 %
509 25-03-2020 12:40:17 8.6 C 20 %
510 25-03-2020 12:50:17 10.3 C 20 %
511 25-03-2020 13:00:17 11.2 C 20 %
512 25-03-2020 13:10:17 12.2 C 20 %
513 25-03-2020 13:20:18 13.8 C 20 %
514 25-03-2020 13:30:18 14.5 C 20 %
515 25-03-2020 13:40:18 12.4 C 20 %
516 25-03-2020 13:50:18 12 C 20 %
517 25-03-2020 14:00:18 11.3 C 20 %
518 25-03-2020 14:10:18 11.1 C 20 %
519 25-03-2020 14:20:17 13.2 C 20 %
520 25-03-2020 14:30:17 13.5 C 20 %
521 25-03-2020 14:40:17 12.7 C 20 %
522 25-03-2020 14:50:17 13.5 C 20 %
523 25-03-2020 15:00:17 13.8 C 20 %
524 25-03-2020 15:10:17 14.1 C 20 %
525 25-03-2020 15:20:18 14.9 C 20 %
Sensor: Nr:Datum:Temp:Feuchte:
Aussen-T/F 526 25-03-2020 15:30:18 14.4 C 20 %
527 25-03-2020 15:40:18 14.4 C 20 %
528 25-03-2020 15:50:17 15 C 20 %
529 25-03-2020 16:00:18 15.3 C 20 %
530 25-03-2020 16:10:18 14.5 C 20 %
531 25-03-2020 16:20:17 15.7 C 20 %
532 25-03-2020 16:30:17 13.8 C 20 %
533 25-03-2020 16:40:17 12.9 C 20 %
534 25-03-2020 16:50:18 12.2 C 20 %
535 25-03-2020 17:00:18 11.9 C 20 %
536 25-03-2020 17:10:18 11.5 C 20 %
537 25-03-2020 17:20:17 11.1 C 20 %
538 25-03-2020 17:30:17 11 C 20 %
539 25-03-2020 17:40:17 10.7 C 20 %
540 25-03-2020 17:50:17 10.5 C 20 %
541 25-03-2020 18:00:18 10.5 C 20 %
542 25-03-2020 18:10:18 10.1 C 20 %
543 25-03-2020 18:20:17 9.6 C 20 %
544 25-03-2020 18:30:18 8.8 C 20 %
545 25-03-2020 18:40:18 7.7 C 20 %
546 25-03-2020 18:50:18 7 C 20 %
547 25-03-2020 19:00:18 6.3 C 20 %
548 25-03-2020 19:10:18 6.1 C 20 %
549 25-03-2020 19:20:17 5.4 C 20 %
550 25-03-2020 19:30:18 5.8 C 20 %
Sensor: Nr:Datum:Temp:Feuchte:
Aussen-T/F 551 25-03-2020 19:40:18 5.1 C 20 %
552 25-03-2020 19:50:17 4.6 C 20 %
553 25-03-2020 20:00:17 4.5 C 20 %
554 25-03-2020 20:10:17 4.1 C 20 %
555 25-03-2020 20:20:17 4 C 20 %
556 25-03-2020 20:30:18 4.7 C 20 %
557 25-03-2020 20:40:18 4.3 C 20 %
558 25-03-2020 20:50:17 3.8 C 20 %
559 25-03-2020 21:00:18 4.6 C 20 %
560 25-03-2020 21:10:18 4.6 C 20 %
561 25-03-2020 21:20:17 4.3 C 20 %
562 25-03-2020 21:30:17 4.3 C 20 %
563 25-03-2020 21:40:17 4 C 20 %
564 25-03-2020 21:50:17 3.6 C 20 %
565 25-03-2020 22:00:17 2.8 C 20 %
566 25-03-2020 22:10:17 2.6 C 20 %
567 25-03-2020 22:20:17 2.6 C 20 %
568 25-03-2020 22:30:18 2.1 C 20 %
569 25-03-2020 22:40:18 2.3 C 20 %
570 25-03-2020 22:50:18 2.1 C 20 %
571 25-03-2020 23:00:18 1.7 C 20 %
572 25-03-2020 23:10:18 1.7 C 23 %
573 25-03-2020 23:20:17 1.6 C 23 %
574 25-03-2020 23:30:18 1.5 C 21 %
575 25-03-2020 23:40:18 1.8 C 20 %
Sensor: Nr:Datum:Temp:Feuchte:
Aussen-T/F 576 25-03-2020 23:50:18 1.8 C 20 %
577 26-03-2020 00:00:18 1.4 C 21 %
578 26-03-2020 00:10:18 1.2 C 21 %
579 26-03-2020 00:20:18 1.3 C 21 %
580 26-03-2020 00:30:18 0.9 C 23 %
581 26-03-2020 00:40:18 0.9 C 25 %
582 26-03-2020 00:50:18 1 C 23 %
583 26-03-2020 01:00:18 0.7 C 25 %
584 26-03-2020 01:10:18 0.4 C 25 %
585 26-03-2020 01:20:17 0.5 C 25 %
586 26-03-2020 01:30:17 0.7 C 25 %
587 26-03-2020 01:40:17 0.7 C 23 %
588 26-03-2020 01:50:17 0.7 C 21 %
589 26-03-2020 02:00:17 0.6 C 23 %
590 26-03-2020 02:10:17 0.7 C 21 %
591 26-03-2020 02:20:17 0.7 C 21 %
592 26-03-2020 02:30:17 0.6 C 21 %
593 26-03-2020 02:40:18 0.4 C 21 %
594 26-03-2020 02:50:17 0.3 C 23 %
595 26-03-2020 03:00:17 0 C 23 %
596 26-03-2020 03:10:18 0.1 C 23 %
597 26-03-2020 03:20:18 0 C 23 %
598 26-03-2020 03:30:18 -0.3 C 25 %
599 26-03-2020 03:40:18 -0.3 C 27 %
600 26-03-2020 03:50:17 -0.4 C 27 %
Sensor: Nr:Datum:Temp:Feuchte:
Aussen-T/F 601 26-03-2020 04:00:17 -0.1 C 26 %
602 26-03-2020 04:10:17 -0.3 C 25 %
603 26-03-2020 04:20:17 -0.3 C 26 %
604 26-03-2020 04:30:18 -0.4 C 26 %
605 26-03-2020 04:40:18 -0.4 C 26 %
606 26-03-2020 04:50:17 -0.5 C 26 %
607 26-03-2020 05:00:18 -0.5 C 27 %
608 26-03-2020 05:10:18 -0.6 C 27 %
609 26-03-2020 05:20:17 -0.6 C 28 %
610 26-03-2020 05:30:17 -0.7 C 28 %
611 26-03-2020 05:40:18 -0.5 C 28 %
612 26-03-2020 05:50:17 -0.6 C 28 %
613 26-03-2020 06:00:18 -0.7 C 29 %
614 26-03-2020 06:10:18 -0.8 C 28 %
615 26-03-2020 06:20:18 -0.9 C 28 %
616 26-03-2020 06:30:18 -1 C 28 %
617 26-03-2020 06:40:18 -0.9 C 30 %
618 26-03-2020 06:50:18 -1.1 C 30 %
619 26-03-2020 07:00:18 -0.8 C 30 %
620 26-03-2020 07:10:18 -1.1 C 30 %
621 26-03-2020 07:20:18 -0.6 C 30 %
622 26-03-2020 07:30:18 -0.4 C 30 %
623 26-03-2020 07:40:18 0.2 C 27 %
624 26-03-2020 07:50:17 0.5 C 25 %
625 26-03-2020 08:00:18 0.3 C 28 %
Sensor: Nr:Datum:Temp:Feuchte:
Aussen-T/F 626 26-03-2020 08:10:18 0.4 C 28 %
627 26-03-2020 08:20:18 0.7 C 26 %
628 26-03-2020 08:30:18 1.4 C 21 %
629 26-03-2020 08:40:18 1.7 C 21 %
630 26-03-2020 08:50:17 2.2 C 20 %
631 26-03-2020 09:00:18 2.3 C 20 %
632 26-03-2020 09:10:18 2.3 C 20 %
633 26-03-2020 09:20:18 2.7 C 20 %
634 26-03-2020 09:30:18 3.2 C 20 %
635 26-03-2020 09:40:18 3.5 C 20 %
636 26-03-2020 09:50:18 4.1 C 20 %
637 26-03-2020 10:00:18 4.4 C 20 %
638 26-03-2020 10:10:18 4.9 C 20 %
639 26-03-2020 10:20:18 5 C 20 %
640 26-03-2020 10:30:18 5.4 C 20 %
641 26-03-2020 10:40:18 5.9 C 20 %
642 26-03-2020 10:50:17 6 C 20 %
643 26-03-2020 11:00:18 6.6 C 20 %
644 26-03-2020 11:10:18 6.9 C 20 %
645 26-03-2020 11:20:18 7.3 C 20 %
646 26-03-2020 11:30:18 8.5 C 20 %
647 26-03-2020 11:40:18 8.3 C 20 %
648 26-03-2020 11:50:18 7.3 C 20 %
649 26-03-2020 12:00:18 8 C 20 %
650 26-03-2020 12:10:18 9.1 C 20 %
Sensor: Nr:Datum:Temp:Feuchte:
Aussen-T/F 651 26-03-2020 12:20:17 9.6 C 20 %
652 26-03-2020 12:30:17 9.6 C 20 %
653 26-03-2020 12:40:17 9.6 C 20 %
654 26-03-2020 12:50:17 9.7 C 20 %
655 26-03-2020 13:00:17 10.4 C 20 %
656 26-03-2020 13:10:17 10.8 C 20 %
657 26-03-2020 13:20:18 11.5 C 20 %
658 26-03-2020 13:30:18 11.5 C 20 %
659 26-03-2020 13:40:18 12.1 C 20 %
660 26-03-2020 13:50:18 13 C 20 %
661 26-03-2020 14:00:18 12 C 20 %
662 26-03-2020 14:10:18 12.2 C 20 %
663 26-03-2020 14:20:18 11.9 C 20 %
664 26-03-2020 14:30:18 14.3 C 20 %
665 26-03-2020 14:40:18 14.2 C 20 %
666 26-03-2020 14:50:17 14 C 20 %
667 26-03-2020 15:00:17 15.3 C 20 %
668 26-03-2020 15:10:18 14.2 C 20 %
669 26-03-2020 15:20:18 14 C 20 %
670 26-03-2020 15:30:18 15.6 C 20 %
671 26-03-2020 15:40:18 15.6 C 20 %
672 26-03-2020 15:50:18 16.5 C 20 %
673 26-03-2020 16:00:18 15.6 C 20 %
674 26-03-2020 16:10:18 15.3 C 20 %
675 26-03-2020 16:20:18 12.5 C 20 %
Sensor: Nr:Datum:Temp:Feuchte:
Aussen-T/F 676 26-03-2020 16:30:18 12.3 C 20 %
677 26-03-2020 16:40:18 13.9 C 20 %
678 26-03-2020 16:50:18 12.8 C 20 %
679 26-03-2020 17:00:18 11.4 C 20 %
680 26-03-2020 17:10:18 11 C 20 %
681 26-03-2020 17:20:17 10.9 C 20 %
682 26-03-2020 17:30:17 11 C 20 %
683 26-03-2020 17:40:17 11.1 C 20 %
684 26-03-2020 17:50:17 10.7 C 20 %
685 26-03-2020 18:00:17 10.5 C 20 %
686 26-03-2020 18:10:17 10.3 C 20 %
687 26-03-2020 18:20:18 10.1 C 20 %
688 26-03-2020 18:30:18 9.8 C 20 %
689 26-03-2020 18:40:18 9.4 C 20 %
690 26-03-2020 18:50:17 8.6 C 20 %
691 26-03-2020 19:00:17 8 C 20 %
692 26-03-2020 19:10:17 7.4 C 20 %
693 26-03-2020 19:20:17 6.9 C 21 %
694 26-03-2020 19:30:17 6.7 C 21 %
695 26-03-2020 19:40:17 6.4 C 21 %
696 26-03-2020 19:50:17 6.5 C 21 %
697 26-03-2020 20:00:17 6.2 C 23 %
698 26-03-2020 20:10:18 6 C 23 %
699 26-03-2020 20:20:18 5.7 C 25 %
700 26-03-2020 20:30:17 5.4 C 26 %
Sensor: Nr:Datum:Temp:Feuchte:
Aussen-T/F 701 26-03-2020 20:40:17 4.9 C 28 %
702 26-03-2020 20:50:17 4.9 C 28 %
703 26-03-2020 21:00:17 4.7 C 29 %
704 26-03-2020 21:10:17 4.5 C 29 %
705 26-03-2020 21:20:17 4.5 C 30 %
706 26-03-2020 21:30:18 4.1 C 30 %
707 26-03-2020 21:40:18 4.6 C 30 %
708 26-03-2020 21:50:18 4.6 C 30 %
709 26-03-2020 22:00:18 4.6 C 30 %
710 26-03-2020 22:10:18 4.6 C 30 %
711 26-03-2020 22:20:17 4.5 C 30 %
712 26-03-2020 22:30:17 4.5 C 30 %
713 26-03-2020 22:40:17 4.5 C 30 %
714 26-03-2020 22:50:17 4.4 C 30 %
715 26-03-2020 23:00:18 4.5 C 30 %
716 26-03-2020 23:10:18 4.2 C 30 %
717 26-03-2020 23:20:17 4.2 C 30 %
718 26-03-2020 23:30:18 3.9 C 31 %
719 26-03-2020 23:40:18 4 C 30 %
720 26-03-2020 23:50:18 3.9 C 31 %
721 27-03-2020 00:00:18 4 C 30 %
722 27-03-2020 00:10:18 3.9 C 31 %
723 27-03-2020 00:20:17 4 C 30 %
724 27-03-2020 00:30:17 4 C 30 %
725 27-03-2020 00:40:17 3.7 C 32 %
Sensor: Nr:Datum:Temp:Feuchte:
Aussen-T/F 726 27-03-2020 00:50:18 3.6 C 32 %
727 27-03-2020 01:00:18 2.7 C 35 %
728 27-03-2020 01:10:18 2.5 C 36 %
729 27-03-2020 01:20:17 3 C 35 %
730 27-03-2020 01:30:18 3.1 C 35 %
731 27-03-2020 01:40:18 2.7 C 36 %
732 27-03-2020 01:50:18 3 C 35 %
733 27-03-2020 02:00:18 2.9 C 35 %
734 27-03-2020 02:10:18 2.8 C 35 %
735 27-03-2020 02:20:17 2.7 C 35 %
736 27-03-2020 02:30:17 2.5 C 36 %
737 27-03-2020 02:40:17 2.5 C 36 %
738 27-03-2020 02:50:17 2.6 C 35 %
739 27-03-2020 03:00:17 2.6 C 35 %
740 27-03-2020 03:10:17 2.2 C 36 %
741 27-03-2020 03:20:17 2.5 C 35 %
742 27-03-2020 03:30:17 2.4 C 35 %
743 27-03-2020 03:40:17 2.6 C 35 %
744 27-03-2020 03:50:17 2.4 C 36 %
745 27-03-2020 04:00:18 2.4 C 35 %
746 27-03-2020 04:10:18 2.4 C 35 %
747 27-03-2020 04:20:18 1.4 C 38 %
748 27-03-2020 04:30:18 1.3 C 38 %
749 27-03-2020 04:40:18 1.6 C 38 %
750 27-03-2020 04:50:17 1.8 C 37 %
Sensor: Nr:Datum:Temp:Feuchte:
Aussen-T/F 751 27-03-2020 05:00:18 1.5 C 38 %
752 27-03-2020 05:10:18 0.7 C 40 %
753 27-03-2020 05:20:18 0.4 C 40 %
754 27-03-2020 05:30:18 0 C 41 %
755 27-03-2020 05:40:18 0 C 42 %
756 27-03-2020 05:50:18 -0.1 C 42 %
757 27-03-2020 06:00:18 -0.5 C 42 %
758 27-03-2020 06:10:18 -0.6 C 43 %
759 27-03-2020 06:20:18 -0.4 C 43 %
760 27-03-2020 06:30:18 -0.4 C 43 %
761 27-03-2020 06:40:18 -0.3 C 43 %
762 27-03-2020 06:50:17 -0.3 C 43 %
763 27-03-2020 07:00:18 -0.2 C 43 %
764 27-03-2020 07:10:18 -0.1 C 43 %
765 27-03-2020 07:20:18 0.1 C 43 %
766 27-03-2020 07:30:18 0.3 C 43 %
767 27-03-2020 07:40:18 0.8 C 43 %
768 27-03-2020 07:50:17 1.2 C 41 %
769 27-03-2020 08:00:17 1.1 C 41 %
770 27-03-2020 08:10:18 1.9 C 40 %
771 27-03-2020 08:20:18 1.7 C 40 %
772 27-03-2020 08:30:18 1.6 C 41 %
773 27-03-2020 08:40:18 1.9 C 41 %
774 27-03-2020 08:50:17 2.6 C 39 %
775 27-03-2020 09:00:18 3 C 38 %
Sensor: Nr:Datum:Temp:Feuchte:
Aussen-T/F 776 27-03-2020 09:10:18 3.3 C 37 %
777 27-03-2020 09:20:17 3.6 C 37 %
778 27-03-2020 09:30:18 4.1 C 36 %
779 27-03-2020 09:40:18 4.5 C 35 %
780 27-03-2020 09:50:18 5.3 C 35 %
781 27-03-2020 10:00:18 5.8 C 34 %
782 27-03-2020 10:10:18 6.5 C 32 %
783 27-03-2020 10:20:17 7.6 C 30 %
784 27-03-2020 10:30:17 8.1 C 28 %
785 27-03-2020 10:40:17 9.1 C 25 %
786 27-03-2020 10:50:17 9.3 C 25 %
787 27-03-2020 11:00:17 10.2 C 20 %
788 27-03-2020 11:10:17 11 C 20 %
789 27-03-2020 11:20:17 12.4 C 20 %
790 27-03-2020 11:30:17 14.5 C 20 %
791 27-03-2020 11:40:17 14.2 C 20 %
792 27-03-2020 11:50:17 12.5 C 20 %
793 27-03-2020 12:00:17 13.4 C 20 %
794 27-03-2020 12:10:17 13.7 C 20 %
795 27-03-2020 12:20:17 14.4 C 20 %
796 27-03-2020 12:30:17 14.1 C 20 %
797 27-03-2020 12:40:18 14.2 C 20 %
798 27-03-2020 12:50:18 14.6 C 20 %
799 27-03-2020 13:00:18 16.6 C 20 %
800 27-03-2020 13:10:18 15.8 C 20 %
Sensor: Nr:Datum:Temp:Feuchte:
Aussen-T/F 801 27-03-2020 13:20:17 17.6 C 20 %
802 27-03-2020 13:30:18 18.8 C 20 %
803 27-03-2020 13:40:18 16.8 C 20 %
804 27-03-2020 13:50:18 17.3 C 20 %
805 27-03-2020 14:00:18 16.9 C 20 %
806 27-03-2020 14:10:18 17.6 C 20 %
807 27-03-2020 14:20:18 17.7 C 20 %
808 27-03-2020 14:30:17 20.4 C 20 %
809 27-03-2020 14:40:17 18.1 C 20 %
810 27-03-2020 14:50:17 18.4 C 20 %
811 27-03-2020 15:00:17 18.5 C 20 %
812 27-03-2020 15:10:17 18.7 C 20 %
813 27-03-2020 15:20:17 18.9 C 20 %
814 27-03-2020 15:30:18 19.4 C 20 %
815 27-03-2020 15:40:18 18.3 C 20 %
816 27-03-2020 15:50:17 19.5 C 20 %
817 27-03-2020 16:00:17 18.5 C 20 %
818 27-03-2020 16:10:17 18.2 C 20 %
819 27-03-2020 16:20:17 19.2 C 20 %
820 27-03-2020 16:30:17 18.3 C 20 %
821 27-03-2020 16:40:17 18 C 20 %
822 27-03-2020 16:50:17 17 C 20 %
823 27-03-2020 17:00:18 16.4 C 20 %
824 27-03-2020 17:10:18 16.3 C 20 %
825 27-03-2020 17:20:18 16.1 C 20 %
Sensor: Nr:Datum:Temp:Feuchte:
Aussen-T/F 826 27-03-2020 17:30:18 16 C 20 %
827 27-03-2020 17:40:18 15.8 C 20 %
828 27-03-2020 17:50:18 15.7 C 20 %
829 27-03-2020 18:00:17 15.4 C 20 %
830 27-03-2020 18:10:17 15 C 20 %
831 27-03-2020 18:20:17 14.1 C 20 %
832 27-03-2020 18:30:18 13.5 C 20 %
833 27-03-2020 18:40:18 12.9 C 20 %
834 27-03-2020 18:50:18 12.3 C 20 %
835 27-03-2020 19:00:18 11.8 C 20 %
836 27-03-2020 19:10:18 11.5 C 20 %
837 27-03-2020 19:20:17 11.4 C 20 %
838 27-03-2020 19:30:17 10.7 C 20 %
839 27-03-2020 19:40:17 10.7 C 21 %
840 27-03-2020 19:50:17 10.4 C 23 %
841 27-03-2020 20:00:18 10.4 C 22 %
842 27-03-2020 20:10:18 9.2 C 26 %
843 27-03-2020 20:20:17 8.9 C 28 %
844 27-03-2020 20:30:17 8.4 C 30 %
845 27-03-2020 20:40:17 8.1 C 30 %
846 27-03-2020 20:50:18 7.8 C 31 %
847 27-03-2020 21:00:17 7.4 C 31 %
848 27-03-2020 21:10:17 7.3 C 32 %
849 27-03-2020 21:20:17 7.1 C 32 %
850 27-03-2020 21:30:17 7 C 32 %
Sensor: Nr:Datum:Temp:Feuchte:
Aussen-T/F 851 27-03-2020 21:40:17 6.6 C 33 %
852 27-03-2020 21:50:17 6.6 C 34 %
853 27-03-2020 22:00:17 6.4 C 34 %
854 27-03-2020 22:10:17 6.3 C 34 %
855 27-03-2020 22:20:17 6 C 35 %
856 27-03-2020 22:30:18 5.8 C 35 %
857 27-03-2020 22:40:18 5.6 C 35 %
858 27-03-2020 22:50:18 5.5 C 36 %
859 27-03-2020 23:00:18 5.6 C 36 %
860 27-03-2020 23:10:18 5.6 C 36 %
861 27-03-2020 23:20:17 5.3 C 36 %
862 27-03-2020 23:30:17 5.2 C 36 %
863 27-03-2020 23:40:17 5.1 C 36 %
864 27-03-2020 23:50:17 4.8 C 37 %
865 28-03-2020 00:00:17 4.8 C 38 %
866 28-03-2020 00:10:17 4.8 C 39 %
867 28-03-2020 00:20:17 5 C 37 %
868 28-03-2020 00:30:18 4.9 C 38 %
869 28-03-2020 00:40:18 4.7 C 38 %
870 28-03-2020 00:50:17 4.7 C 38 %
871 28-03-2020 01:00:17 4.6 C 38 %
872 28-03-2020 01:10:17 4.4 C 39 %
873 28-03-2020 01:20:17 4.3 C 39 %
874 28-03-2020 01:30:17 4.1 C 39 %
875 28-03-2020 01:40:18 3.9 C 40 %
Sensor: Nr:Datum:Temp:Feuchte:
Aussen-T/F 876 28-03-2020 01:50:17 3.7 C 41 %
877 28-03-2020 02:00:18 3.6 C 41 %
878 28-03-2020 02:10:18 3.3 C 41 %
879 28-03-2020 02:20:18 3.1 C 41 %
880 28-03-2020 02:30:17 3.7 C 42 %
881 28-03-2020 02:40:17 3.7 C 41 %
882 28-03-2020 02:50:18 3.4 C 41 %
883 28-03-2020 03:00:18 3.1 C 41 %
884 28-03-2020 03:10:18 2.9 C 42 %
885 28-03-2020 03:20:17 2.8 C 43 %
886 28-03-2020 03:30:18 2.6 C 43 %
887 28-03-2020 03:40:18 2.1 C 43 %
888 28-03-2020 03:50:17 2.1 C 44 %
889 28-03-2020 04:00:18 2.2 C 44 %
890 28-03-2020 04:10:18 2.1 C 44 %
891 28-03-2020 04:20:18 1.9 C 45 %
892 28-03-2020 04:30:18 1.7 C 45 %
893 28-03-2020 04:40:18 1.8 C 46 %
894 28-03-2020 04:50:17 1.8 C 46 %
895 28-03-2020 05:00:18 1.7 C 45 %
896 28-03-2020 05:10:18 1.6 C 45 %
897 28-03-2020 05:20:17 1.5 C 45 %
898 28-03-2020 05:30:18 1.3 C 46 %
899 28-03-2020 05:40:18 1.2 C 46 %
900 28-03-2020 05:50:18 1.2 C 46 %
Sensor: Nr:Datum:Temp:Feuchte:
Aussen-T/F 901 28-03-2020 06:00:18 1.2 C 46 %
902 28-03-2020 06:10:18 1.3 C 46 %
903 28-03-2020 06:20:17 1.1 C 46 %
904 28-03-2020 06:30:17 1.1 C 46 %
905 28-03-2020 06:40:17 1 C 46 %
906 28-03-2020 06:50:17 1.2 C 47 %
907 28-03-2020 07:00:17 1.5 C 47 %
908 28-03-2020 07:10:17 1.7 C 47 %
909 28-03-2020 07:20:17 1.9 C 47 %
910 28-03-2020 07:30:18 1.9 C 46 %
911 28-03-2020 07:40:18 1.9 C 46 %
912 28-03-2020 07:50:17 2 C 45 %
913 28-03-2020 08:00:17 2.2 C 45 %
914 28-03-2020 08:10:18 2.5 C 45 %
915 28-03-2020 08:20:18 2.8 C 46 %
916 28-03-2020 08:30:17 3.2 C 45 %
917 28-03-2020 08:40:17 3.7 C 44 %
918 28-03-2020 08:50:18 4 C 43 %
919 28-03-2020 09:00:18 4.6 C 43 %
920 28-03-2020 09:10:18 5.1 C 41 %
921 28-03-2020 09:20:17 5.7 C 41 %
922 28-03-2020 09:30:18 6.3 C 40 %
923 28-03-2020 09:40:18 6.9 C 40 %
924 28-03-2020 09:50:18 7.8 C 38 %
925 28-03-2020 10:00:18 8.4 C 37 %
Sensor: Nr:Datum:Temp:Feuchte:
Aussen-T/F 926 28-03-2020 10:10:18 9.5 C 35 %
927 28-03-2020 10:20:17 10.2 C 32 %
928 28-03-2020 10:30:17 10.9 C 31 %
929 28-03-2020 10:40:17 11.6 C 30 %
930 28-03-2020 10:50:18 12.2 C 29 %
931 28-03-2020 11:00:18 13.4 C 26 %
932 28-03-2020 11:10:18 13.6 C 25 %
933 28-03-2020 11:20:17 15.8 C 20 %
934 28-03-2020 11:30:17 16.7 C 20 %
935 28-03-2020 11:40:17 16.4 C 20 %
936 28-03-2020 11:50:18 15.9 C 20 %
937 28-03-2020 12:00:17 16.6 C 20 %
938 28-03-2020 12:10:17 17 C 20 %
939 28-03-2020 12:20:17 17.7 C 20 %
940 28-03-2020 12:30:17 17.8 C 20 %
941 28-03-2020 12:40:17 18.1 C 20 %
942 28-03-2020 12:50:18 18 C 20 %
943 28-03-2020 13:00:18 18.6 C 20 %
944 28-03-2020 13:10:18 19.6 C 20 %
945 28-03-2020 13:20:18 21.7 C 20 %
946 28-03-2020 13:30:17 21.1 C 20 %
947 28-03-2020 13:40:17 20.7 C 20 %
948 28-03-2020 13:50:18 20.6 C 20 %
949 28-03-2020 14:00:17 21.1 C 20 %
950 28-03-2020 14:10:17 21.3 C 20 %
Sensor: Nr:Datum:Temp:Feuchte:
Aussen-T/F 951 28-03-2020 14:20:17 21.9 C 20 %
952 28-03-2020 14:30:17 23.7 C 20 %
953 28-03-2020 14:40:17 24.3 C 20 %
954 28-03-2020 14:50:17 23.2 C 20 %
955 28-03-2020 15:00:18 22.4 C 20 %
956 28-03-2020 15:10:18 19.9 C 20 %
957 28-03-2020 15:20:18 18.6 C 20 %
958 28-03-2020 15:30:18 19.6 C 20 %
959 28-03-2020 15:40:18 22.1 C 20 %
960 28-03-2020 15:50:18 20.5 C 20 %
961 28-03-2020 16:00:18 21.1 C 20 %
962 28-03-2020 16:10:18 21.1 C 20 %
963 28-03-2020 16:20:18 19.9 C 20 %
964 28-03-2020 16:30:18 19.6 C 20 %
965 28-03-2020 16:40:18 19.6 C 20 %
966 28-03-2020 16:50:18 18.5 C 20 %
967 28-03-2020 17:00:18 17.9 C 20 %
968 28-03-2020 17:10:18 17 C 20 %
969 28-03-2020 17:20:18 16.6 C 20 %
970 28-03-2020 17:30:18 16.2 C 20 %
971 28-03-2020 17:40:18 16.2 C 20 %
972 28-03-2020 17:50:17 15.4 C 20 %
973 28-03-2020 18:00:18 14.9 C 20 %
974 28-03-2020 18:10:18 14.6 C 20 %
975 28-03-2020 18:20:17 14 C 20 %
Sensor: Nr:Datum:Temp:Feuchte:
Aussen-T/F 976 28-03-2020 18:30:17 13.5 C 20 %
977 28-03-2020 18:40:17 13.1 C 20 %
978 28-03-2020 18:50:18 12.6 C 20 %
979 28-03-2020 19:00:18 12.3 C 20 %
980 28-03-2020 19:10:18 11.7 C 20 %
981 28-03-2020 19:20:18 11.7 C 20 %
982 28-03-2020 19:30:18 11.4 C 20 %
983 28-03-2020 19:40:18 11.2 C 20 %
984 28-03-2020 19:50:17 10.8 C 20 %
985 28-03-2020 20:00:18 10.3 C 20 %
986 28-03-2020 20:10:18 10.7 C 20 %
987 28-03-2020 20:20:17 10.5 C 20 %
988 28-03-2020 20:30:18 10 C 20 %
989 28-03-2020 20:40:18 9.2 C 20 %
990 28-03-2020 20:50:17 8.7 C 20 %
991 28-03-2020 21:00:17 8.8 C 20 %
992 28-03-2020 21:10:17 9.2 C 20 %
993 28-03-2020 21:20:17 8.7 C 23 %
994 28-03-2020 21:30:17 8.1 C 25 %
995 28-03-2020 21:40:17 8.4 C 23 %
996 28-03-2020 21:50:17 7.6 C 25 %
997 28-03-2020 22:00:17 8.3 C 25 %
998 28-03-2020 22:10:17 8.5 C 21 %
999 28-03-2020 22:20:17 8.4 C 25 %
1000 28-03-2020 22:30:17 8.3 C 26 %
Sensor: Nr:Datum:Temp:Feuchte:
Aussen-T/F 1001 28-03-2020 22:40:17 7.9 C 26 %
1002 28-03-2020 22:50:17 7.4 C 28 %
1003 28-03-2020 23:00:17 7.3 C 30 %
1004 28-03-2020 23:10:17 7.2 C 30 %
1005 28-03-2020 23:20:18 7.1 C 30 %
1006 28-03-2020 23:30:18 7.1 C 31 %
1007 28-03-2020 23:40:18 6.8 C 32 %
1008 28-03-2020 23:50:17 6.7 C 33 %
1009 29-03-2020 00:00:18 6.5 C 33 %
1010 29-03-2020 00:10:18 6.4 C 33 %
1011 29-03-2020 00:20:17 6.2 C 33 %
1012 29-03-2020 00:30:17 6.5 C 33 %
1013 29-03-2020 00:40:17 6.6 C 33 %
1014 29-03-2020 00:50:18 6.5 C 32 %
1015 29-03-2020 01:00:18 6.3 C 32 %
1016 29-03-2020 01:10:18 6.3 C 32 %
1017 29-03-2020 01:20:17 6.2 C 32 %
1018 29-03-2020 01:30:17 6.1 C 32 %
1019 29-03-2020 01:40:17 6 C 31 %
1020 29-03-2020 01:50:17 6 C 31 %
1021 29-03-2020 02:00:17 5.8 C 31 %
1022 29-03-2020 02:10:17 5.7 C 31 %
1023 29-03-2020 02:20:18 5.4 C 31 %
1024 29-03-2020 02:30:18 5 C 31 %
1025 29-03-2020 02:40:18 4.7 C 32 %
Sensor: Nr:Datum:Temp:Feuchte:
Aussen-T/F 1026 29-03-2020 02:50:18 4.7 C 32 %
1027 29-03-2020 04:00:18 4.6 C 31 %
1028 29-03-2020 04:10:18 4.2 C 32 %
1029 29-03-2020 04:20:17 4.1 C 31 %
1030 29-03-2020 04:30:17 4.3 C 31 %
1031 29-03-2020 04:40:17 4.4 C 31 %
1032 29-03-2020 04:50:18 4.3 C 31 %
1033 29-03-2020 05:00:17 4.4 C 32 %
1034 29-03-2020 05:10:17 4.3 C 32 %
1035 29-03-2020 05:20:17 4.2 C 31 %
1036 29-03-2020 05:30:17 4 C 31 %
1037 29-03-2020 05:40:17 3.8 C 32 %
1038 29-03-2020 05:50:18 3.5 C 32 %
1039 29-03-2020 06:00:18 3.1 C 32 %
1040 29-03-2020 06:10:18 2.8 C 33 %
1041 29-03-2020 06:20:17 2.5 C 33 %
1042 29-03-2020 06:30:18 2.9 C 33 %
1043 29-03-2020 06:40:18 3.2 C 32 %
1044 29-03-2020 06:50:17 3.3 C 33 %
1045 29-03-2020 07:00:18 3.4 C 33 %
1046 29-03-2020 07:10:18 3.5 C 34 %
1047 29-03-2020 07:20:17 3.5 C 35 %
1048 29-03-2020 07:30:17 3.6 C 35 %
1049 29-03-2020 07:40:17 3.7 C 35 %
1050 29-03-2020 07:50:17 3.7 C 35 %
Sensor: Nr:Datum:Temp:Feuchte:
Aussen-T/F 1051 29-03-2020 08:00:18 3.8 C 35 %
1052 29-03-2020 08:10:18 3.8 C 35 %
1053 29-03-2020 08:20:17 4.1 C 33 %
1054 29-03-2020 08:30:17 4.1 C 33 %
1055 29-03-2020 08:40:17 4.3 C 33 %
1056 29-03-2020 08:50:17 4 C 33 %
1057 29-03-2020 09:00:17 4.3 C 33 %
1058 29-03-2020 09:10:17 4.2 C 32 %
1059 29-03-2020 09:20:17 4.1 C 33 %
1060 29-03-2020 09:30:17 4.2 C 33 %
1061 29-03-2020 09:40:17 4.5 C 32 %
1062 29-03-2020 09:50:17 4.8 C 32 %
1063 29-03-2020 10:00:17 5 C 31 %
1064 29-03-2020 10:10:17 5.3 C 31 %
1065 29-03-2020 10:20:17 5.8 C 30 %
1066 29-03-2020 10:30:18 5.6 C 30 %
1067 29-03-2020 10:40:18 6.2 C 30 %
1068 29-03-2020 10:50:17 6.2 C 28 %
1069 29-03-2020 11:00:18 6.5 C 25 %
1070 29-03-2020 11:10:18 6.5 C 25 %
1071 29-03-2020 11:20:18 6 C 25 %
1072 29-03-2020 11:30:18 6.1 C 25 %
1073 29-03-2020 11:40:18 6.2 C 25 %
1074 29-03-2020 11:50:17 6.3 C 25 %
1075 29-03-2020 12:00:17 6.2 C 25 %
Sensor: Nr:Datum:Temp:Feuchte:
Aussen-T/F 1076 29-03-2020 12:10:17 5.6 C 27 %
1077 29-03-2020 12:20:17 5.5 C 27 %
1078 29-03-2020 12:30:17 5.7 C 27 %
1079 29-03-2020 12:40:17 5.8 C 26 %
1080 29-03-2020 12:50:18 6.4 C 26 %
1081 29-03-2020 13:00:18 6.3 C 25 %
1082 29-03-2020 13:10:18 6.1 C 25 %
1083 29-03-2020 13:20:17 6.6 C 23 %
1084 29-03-2020 13:30:17 6.8 C 20 %
1085 29-03-2020 13:40:18 8.1 C 20 %
1086 29-03-2020 13:50:17 8.4 C 20 %
1087 29-03-2020 14:00:18 7.6 C 20 %
1088 29-03-2020 14:10:18 7.5 C 20 %
1089 29-03-2020 14:20:17 7 C 20 %
1090 29-03-2020 14:30:17 6.7 C 20 %
1091 29-03-2020 14:40:17 6.5 C 20 %
1092 29-03-2020 14:50:17 6.7 C 20 %
1093 29-03-2020 15:00:17 7.2 C 20 %
1094 29-03-2020 15:10:17 7.4 C 20 %
1095 29-03-2020 15:20:17 7.4 C 20 %
1096 29-03-2020 15:30:18 7.6 C 20 %
1097 29-03-2020 15:40:18 7.6 C 20 %
1098 29-03-2020 15:50:17 8 C 20 %
1099 29-03-2020 16:00:18 7.4 C 20 %
1100 29-03-2020 16:10:18 7 C 20 %
Sensor: Nr:Datum:Temp:Feuchte:
Aussen-T/F 1101 29-03-2020 16:20:17 6.7 C 20 %
1102 29-03-2020 16:30:18 6.5 C 20 %
1103 29-03-2020 16:40:18 6.6 C 20 %
1104 29-03-2020 16:50:18 6.8 C 20 %
1105 29-03-2020 17:00:18 7 C 20 %
1106 29-03-2020 17:10:18 6.8 C 20 %
1107 29-03-2020 17:20:17 7.4 C 20 %
1108 29-03-2020 17:30:17 7 C 20 %
1109 29-03-2020 17:40:17 7 C 20 %
1110 29-03-2020 17:50:18 6.8 C 25 %
1111 29-03-2020 18:00:18 7.1 C 23 %
1112 29-03-2020 18:10:18 6.5 C 25 %
1113 29-03-2020 18:20:18 6.2 C 25 %
1114 29-03-2020 18:30:18 5.3 C 29 %
1115 29-03-2020 18:40:18 4.4 C 35 %
1116 29-03-2020 18:50:18 4.1 C 36 %
1117 29-03-2020 19:00:18 4 C 36 %
1118 29-03-2020 19:10:18 3.6 C 39 %
1119 29-03-2020 19:20:17 3.6 C 40 %
1120 29-03-2020 19:30:17 3.4 C 40 %
1121 29-03-2020 19:40:17 3.2 C 41 %
1122 29-03-2020 19:50:17 3.1 C 41 %
1123 29-03-2020 20:00:17 3 C 41 %
1124 29-03-2020 20:10:17 3 C 41 %
1125 29-03-2020 20:20:18 2.9 C 42 %
Sensor: Nr:Datum:Temp:Feuchte:
Aussen-T/F 1126 29-03-2020 20:30:18 3 C 41 %
1127 29-03-2020 20:40:18 3.3 C 40 %
1128 29-03-2020 20:50:18 3.5 C 40 %
1129 29-03-2020 21:00:18 3.6 C 39 %
1130 29-03-2020 21:10:18 3.7 C 39 %
1131 29-03-2020 21:20:18 3.7 C 38 %
1132 29-03-2020 21:30:17 3.7 C 37 %
1133 29-03-2020 21:40:17 3.8 C 37 %
1134 29-03-2020 21:50:17 3.8 C 37 %
1135 29-03-2020 22:00:17 3.7 C 37 %
1136 29-03-2020 22:10:17 3.7 C 36 %
1137 29-03-2020 22:20:18 3.7 C 36 %
1138 29-03-2020 22:30:18 3.6 C 36 %
1139 29-03-2020 22:40:18 3.6 C 36 %
1140 29-03-2020 22:50:18 3.6 C 35 %
1141 29-03-2020 23:00:18 3.6 C 35 %
1142 29-03-2020 23:10:18 3.5 C 35 %
1143 29-03-2020 23:20:17 3.4 C 34 %
1144 29-03-2020 23:30:17 3.3 C 33 %
1145 29-03-2020 23:40:17 3.1 C 33 %
1146 29-03-2020 23:50:17 2.9 C 33 %
1147 30-03-2020 00:00:18 2.5 C 34 %
1148 30-03-2020 00:10:18 2.4 C 33 %
1149 30-03-2020 00:20:17 2.4 C 33 %
1150 30-03-2020 00:30:17 1.7 C 35 %
Sensor: Nr:Datum:Temp:Feuchte:
Aussen-T/F 1151 30-03-2020 00:40:17 1 C 36 %
1152 30-03-2020 00:50:17 0.3 C 38 %
1153 30-03-2020 01:00:18 0.2 C 38 %
1154 30-03-2020 01:10:18 0.3 C 38 %
1155 30-03-2020 01:20:17 0.3 C 37 %
1156 30-03-2020 01:30:18 0.5 C 36 %
1157 30-03-2020 01:40:18 -0.1 C 37 %
1158 30-03-2020 01:50:17 -0.3 C 37 %
1159 30-03-2020 02:00:17 -0.8 C 38 %
1160 30-03-2020 02:10:17 -0.9 C 38 %
1161 30-03-2020 02:20:17 -1.5 C 39 %
1162 30-03-2020 02:30:18 -1.7 C 39 %
1163 30-03-2020 02:40:18 -1.6 C 40 %
1164 30-03-2020 02:50:17 -1.6 C 39 %
1165 30-03-2020 03:00:18 -1.7 C 39 %
1166 30-03-2020 03:10:18 -1.3 C 38 %
1167 30-03-2020 03:20:18 -1.7 C 39 %
1168 30-03-2020 03:30:18 -2.2 C 40 %
1169 30-03-2020 03:40:18 -2.1 C 40 %
1170 30-03-2020 03:50:17 -2.1 C 40 %
1171 30-03-2020 04:00:18 -1.9 C 39 %
1172 30-03-2020 04:10:18 -2.2 C 39 %
1173 30-03-2020 04:20:17 -2 C 39 %
1174 30-03-2020 04:30:17 -2.4 C 39 %
1175 30-03-2020 04:40:17 -2.6 C 39 %
Sensor: Nr:Datum:Temp:Feuchte:
Aussen-T/F 1176 30-03-2020 04:50:17 -2.4 C 39 %
1177 30-03-2020 05:00:17 -2.4 C 38 %
1178 30-03-2020 05:10:17 -2.5 C 38 %
1179 30-03-2020 05:20:17 -2.7 C 38 %
1180 30-03-2020 05:30:18 -3 C 39 %
1181 30-03-2020 05:40:18 -3 C 38 %
1182 30-03-2020 05:50:17 -3 C 38 %
1183 30-03-2020 06:00:18 -3 C 38 %
1184 30-03-2020 06:10:18 -3.4 C 38 %
1185 30-03-2020 06:20:17 -3.7 C 39 %
1186 30-03-2020 06:30:17 -3.9 C 40 %
1187 30-03-2020 06:40:17 -4.1 C 40 %
1188 30-03-2020 06:50:17 -3.3 C 39 %
1189 30-03-2020 07:00:17 -3.7 C 40 %
1190 30-03-2020 07:10:17 -3.2 C 39 %
1191 30-03-2020 07:20:17 -3.8 C 39 %
1192 30-03-2020 07:30:18 -4.3 C 40 %
1193 30-03-2020 07:40:18 -4.5 C 40 %
1194 30-03-2020 07:50:17 -4.5 C 40 %
1195 30-03-2020 08:00:18 -3.8 C 40 %
1196 30-03-2020 08:10:18 -3.9 C 40 %
1197 30-03-2020 08:20:18 -4.1 C 40 %
1198 30-03-2020 08:30:18 -3.7 C 39 %
1199 30-03-2020 08:40:18 -3.3 C 39 %
1200 30-03-2020 08:50:17 -3.2 C 38 %
Sensor: Nr:Datum:Temp:Feuchte:
Aussen-T/F 1201 30-03-2020 09:00:18 -3.1 C 38 %
1202 30-03-2020 09:10:18 -2.7 C 37 %
1203 30-03-2020 09:20:18 -2.6 C 37 %
1204 30-03-2020 09:30:18 -2.5 C 37 %
1205 30-03-2020 09:40:18 -2.1 C 37 %
1206 30-03-2020 09:50:18 -2.1 C 37 %
1207 30-03-2020 10:00:18 -1.6 C 36 %
1208 30-03-2020 10:10:18 -1.7 C 37 %
1209 30-03-2020 10:20:17 -1.5 C 37 %
1210 30-03-2020 10:30:17 -1.3 C 36 %
1211 30-03-2020 10:40:17 0.1 C 31 %
1212 30-03-2020 10:50:17 1 C 21 %
1213 30-03-2020 11:00:17 1.1 C 23 %
1214 30-03-2020 11:10:18 2 C 20 %
1215 30-03-2020 11:20:18 2.4 C 20 %
1216 30-03-2020 11:30:18 2.8 C 20 %
1217 30-03-2020 11:40:18 2.9 C 20 %
1218 30-03-2020 11:50:18 3.2 C 20 %
1219 30-03-2020 12:00:18 3.7 C 20 %
1220 30-03-2020 12:10:18 4 C 20 %
1221 30-03-2020 12:20:18 6.4 C 20 %
1222 30-03-2020 12:30:18 7.6 C 20 %
1223 30-03-2020 12:40:18 6.3 C 20 %
1224 30-03-2020 12:50:18 5.1 C 20 %
1225 30-03-2020 13:00:18 6.6 C 20 %
Sensor: Nr:Datum:Temp:Feuchte:
Aussen-T/F 1226 30-03-2020 13:10:18 6.5 C 20 %
1227 30-03-2020 13:20:18 5.6 C 20 %
1228 30-03-2020 13:30:17 5.9 C 20 %
1229 30-03-2020 13:40:17 7 C 20 %
1230 30-03-2020 13:50:17 6.4 C 20 %
1231 30-03-2020 14:00:17 7.1 C 20 %
1232 30-03-2020 14:10:17 8.4 C 20 %
1233 30-03-2020 14:20:18 8.9 C 20 %
1234 30-03-2020 14:30:18 9.5 C 20 %
1235 30-03-2020 14:40:18 9.7 C 20 %
1236 30-03-2020 14:50:18 10.8 C 20 %
1237 30-03-2020 15:00:18 11.3 C 20 %
1238 30-03-2020 15:10:18 11.7 C 20 %
1239 30-03-2020 15:20:17 11.6 C 20 %
1240 30-03-2020 15:30:18 13.5 C 20 %
1241 30-03-2020 15:40:18 13.6 C 20 %
1242 30-03-2020 15:50:18 11.9 C 20 %
1243 30-03-2020 16:00:18 12.9 C 20 %
1244 30-03-2020 16:10:18 13.6 C 20 %
1245 30-03-2020 16:20:17 15.2 C 20 %
1246 30-03-2020 16:30:18 9.9 C 20 %
1247 30-03-2020 16:40:18 13.9 C 20 %
1248 30-03-2020 16:50:18 13.6 C 20 %
1249 30-03-2020 17:00:17 10.1 C 20 %
1250 30-03-2020 17:10:17 13.4 C 20 %
Sensor: Nr:Datum:Temp:Feuchte:
Aussen-T/F 1251 30-03-2020 17:20:18 12.5 C 20 %
1252 30-03-2020 17:30:18 12.6 C 20 %
1253 30-03-2020 17:40:18 11.6 C 20 %
1254 30-03-2020 17:50:18 10.2 C 20 %
1255 30-03-2020 18:00:18 8.7 C 20 %
1256 30-03-2020 18:10:18 7.6 C 20 %
1257 30-03-2020 18:20:18 7.9 C 20 %
1258 30-03-2020 18:30:18 8.2 C 20 %
1259 30-03-2020 18:40:18 7.7 C 20 %
1260 30-03-2020 18:50:18 7.8 C 20 %
1261 30-03-2020 19:00:18 7.3 C 20 %
1262 30-03-2020 19:10:18 7.1 C 20 %
1263 30-03-2020 19:20:17 6.5 C 20 %
1264 30-03-2020 19:30:18 6.3 C 20 %
1265 30-03-2020 19:40:18 5.8 C 20 %
1266 30-03-2020 19:50:17 5 C 20 %
1267 30-03-2020 20:00:18 3.8 C 27 %
1268 30-03-2020 20:10:18 3 C 30 %
1269 30-03-2020 20:20:17 2.8 C 30 %
1270 30-03-2020 20:30:18 3.3 C 31 %
1271 30-03-2020 20:40:18 3.2 C 30 %
1272 30-03-2020 20:50:18 3.3 C 31 %
1273 30-03-2020 21:00:18 4 C 29 %
1274 30-03-2020 21:10:18 4.1 C 29 %
1275 30-03-2020 21:20:18 4.2 C 30 %
Sensor: Nr:Datum:Temp:Feuchte:
Aussen-T/F 1276 30-03-2020 21:30:18 4.3 C 30 %
1277 30-03-2020 21:40:18 4.2 C 30 %
1278 30-03-2020 21:50:18 4.1 C 30 %
1279 30-03-2020 22:00:18 3.7 C 32 %
1280 30-03-2020 22:10:18 3.7 C 33 %
1281 30-03-2020 22:20:17 3.9 C 32 %
1282 30-03-2020 22:30:18 4 C 31 %
1283 30-03-2020 22:40:18 4.1 C 31 %
1284 30-03-2020 22:50:18 4.2 C 31 %
1285 30-03-2020 23:00:18 4.1 C 31 %
1286 30-03-2020 23:10:18 4.2 C 30 %
1287 30-03-2020 23:20:18 4.2 C 31 %
1288 30-03-2020 23:30:18 4.1 C 31 %
1289 30-03-2020 23:40:18 4.2 C 31 %
1290 30-03-2020 23:50:17 4.2 C 31 %
1291 31-03-2020 00:00:18 4.3 C 30 %
1292 31-03-2020 00:10:18 4.3 C 30 %
1293 31-03-2020 00:20:18 4.2 C 31 %
1294 31-03-2020 00:30:18 4.2 C 31 %
1295 31-03-2020 00:40:18 4.2 C 31 %
1296 31-03-2020 00:50:18 4.3 C 31 %
1297 31-03-2020 01:00:18 4.4 C 32 %
1298 31-03-2020 01:10:18 4 C 34 %
1299 31-03-2020 01:20:18 3.8 C 36 %
1300 31-03-2020 01:30:18 3.8 C 36 %
Sensor: Nr:Datum:Temp:Feuchte:
Aussen-T/F 1301 31-03-2020 01:40:18 3.7 C 37 %
1302 31-03-2020 01:50:18 4 C 37 %
1303 31-03-2020 02:00:18 3.9 C 38 %
1304 31-03-2020 02:10:18 3.4 C 39 %
1305 31-03-2020 02:20:17 3.5 C 39 %
1306 31-03-2020 02:30:18 3.7 C 39 %
1307 31-03-2020 02:40:18 3.3 C 40 %
1308 31-03-2020 02:50:18 2.8 C 41 %
1309 31-03-2020 03:00:18 2.5 C 41 %
1310 31-03-2020 03:10:18 2.2 C 42 %
1311 31-03-2020 03:20:17 2.4 C 42 %
1312 31-03-2020 03:30:18 2.3 C 42 %
1313 31-03-2020 03:40:18 2.3 C 43 %
1314 31-03-2020 03:50:18 2.7 C 43 %
1315 31-03-2020 04:00:18 2.9 C 42 %
1316 31-03-2020 04:10:18 3 C 42 %
1317 31-03-2020 04:20:18 3.1 C 42 %
1318 31-03-2020 04:30:17 3.2 C 42 %
1319 31-03-2020 04:40:18 3.2 C 41 %
1320 31-03-2020 04:50:17 3.5 C 41 %
1321 31-03-2020 05:00:18 3.4 C 41 %
1322 31-03-2020 05:10:18 3 C 41 %
1323 31-03-2020 05:20:17 2.8 C 43 %
1324 31-03-2020 05:30:18 2.5 C 43 %
1325 31-03-2020 05:40:18 2.3 C 43 %
Sensor: Nr:Datum:Temp:Feuchte:
Aussen-T/F 1326 31-03-2020 05:50:18 1.9 C 44 %
1327 31-03-2020 06:00:18 1.7 C 44 %
1328 31-03-2020 06:10:18 1.6 C 45 %
1329 31-03-2020 06:20:18 1.5 C 45 %
1330 31-03-2020 06:30:18 1.7 C 45 %
1331 31-03-2020 06:40:18 2 C 45 %
1332 31-03-2020 06:50:18 2.1 C 45 %
1333 31-03-2020 07:00:18 2.2 C 45 %
1334 31-03-2020 07:10:18 2.3 C 45 %
1335 31-03-2020 07:20:18 2.2 C 44 %
1336 31-03-2020 07:30:18 2.1 C 44 %
1337 31-03-2020 07:40:18 1.7 C 45 %
1338 31-03-2020 07:50:17 2 C 45 %
1339 31-03-2020 08:00:18 2.5 C 45 %
1340 31-03-2020 08:10:18 3.1 C 43 %
1341 31-03-2020 08:20:18 3.3 C 42 %
1342 31-03-2020 08:30:18 3.5 C 41 %
1343 31-03-2020 08:40:18 3.7 C 40 %
1344 31-03-2020 08:50:17 4 C 38 %
1345 31-03-2020 09:00:18 3.9 C 38 %
1346 31-03-2020 09:10:18 3.9 C 37 %
1347 31-03-2020 09:20:18 4 C 36 %
1348 31-03-2020 09:30:17 4 C 36 %
1349 31-03-2020 09:40:17 4.1 C 35 %
1350 31-03-2020 09:50:18 4.3 C 35 %
Sensor: Nr:Datum:Temp:Feuchte:
Aussen-T/F 1351 31-03-2020 10:00:18 4.8 C 34 %
1352 31-03-2020 10:10:18 4.7 C 34 %
1353 31-03-2020 10:20:18 4.5 C 34 %
1354 31-03-2020 10:30:18 4.4 C 34 %
1355 31-03-2020 10:40:18 4.3 C 34 %
1356 31-03-2020 10:50:17 4.3 C 33 %
1357 31-03-2020 11:00:17 4.3 C 33 %
1358 31-03-2020 11:10:17 4.4 C 32 %
1359 31-03-2020 11:20:18 4.7 C 31 %
1360 31-03-2020 11:30:18 5.4 C 30 %
1361 31-03-2020 11:40:18 5.3 C 30 %
1362 31-03-2020 11:50:17 5.3 C 29 %
1363 31-03-2020 12:00:18 5.6 C 27 %
1364 31-03-2020 12:10:18 6.3 C 25 %
1365 31-03-2020 12:20:17 6.4 C 20 %
1366 31-03-2020 12:30:18 9.2 C 20 %
1367 31-03-2020 12:40:18 8.4 C 20 %
1368 31-03-2020 12:50:18 7 C 20 %
1369 31-03-2020 13:00:17 7.5 C 20 %
1370 31-03-2020 13:10:17 7.1 C 20 %
1371 31-03-2020 13:20:17 7.3 C 20 %
1372 31-03-2020 13:30:17 7 C 20 %
1373 31-03-2020 13:40:17 8.1 C 20 %
1374 31-03-2020 13:51:17 8.4 C 20 %
1375 31-03-2020 14:00:17 8.5 C 20 %
Sensor: Nr:Datum:Temp:Feuchte:
Aussen-T/F 1376 31-03-2020 14:10:17 9.7 C 20 %
1377 31-03-2020 14:20:17 11.2 C 20 %
1378 31-03-2020 14:30:17 12.6 C 20 %
1379 31-03-2020 14:40:17 11.7 C 20 %
1380 31-03-2020 14:51:17 12 C 20 %
1381 31-03-2020 15:00:17 12 C 20 %
1382 31-03-2020 15:10:18 13.1 C 20 %
1383 31-03-2020 15:20:17 13.2 C 20 %
1384 31-03-2020 15:30:17 13.5 C 20 %
1385 31-03-2020 15:40:17 14.6 C 20 %
1386 31-03-2020 15:50:18 13.9 C 20 %
1387 31-03-2020 16:00:17 16.8 C 20 %
1388 31-03-2020 16:10:17 14.8 C 20 %
1389 31-03-2020 16:20:17 15.8 C 20 %
1390 31-03-2020 16:31:17 15.1 C 20 %
1391 31-03-2020 16:40:17 14 C 20 %
1392 31-03-2020 16:50:17 13.3 C 20 %
1393 31-03-2020 17:00:17 14.4 C 20 %
1394 31-03-2020 17:10:17 16.2 C 20 %
1395 31-03-2020 17:21:17 15.3 C 20 %
1396 31-03-2020 17:31:17 14.7 C 20 %
1397 31-03-2020 17:40:17 15.5 C 20 %
1398 31-03-2020 17:51:17 10.6 C 20 %
1399 31-03-2020 18:01:17 10.5 C 20 %
1400 31-03-2020 18:11:17 10.2 C 20 %
Sensor: Nr:Datum:Temp:Feuchte:
Aussen-T/F 1401 31-03-2020 18:21:17 9.8 C 20 %
1402 31-03-2020 18:31:17 9.6 C 20 %
1403 31-03-2020 18:40:17 9.4 C 20 %
1404 31-03-2020 18:51:17 9.1 C 20 %
1405 31-03-2020 19:00:17 9.1 C 20 %
1406 31-03-2020 19:10:17 8.8 C 20 %
1407 31-03-2020 19:20:17 8.7 C 20 %
1408 31-03-2020 19:31:17 8.2 C 20 %
1409 31-03-2020 19:41:17 7.7 C 20 %
1410 31-03-2020 19:50:17 6.6 C 20 %
1411 31-03-2020 20:01:17 5.6 C 20 %
1412 31-03-2020 20:11:17 5.5 C 20 %
1413 31-03-2020 20:21:17 5.3 C 20 %
1414 31-03-2020 20:31:17 4.7 C 20 %
1415 31-03-2020 20:41:17 4.4 C 20 %
1416 31-03-2020 20:51:17 4 C 20 %
1417 31-03-2020 21:00:17 3.7 C 20 %
1418 31-03-2020 21:10:18 3.9 C 20 %
1419 31-03-2020 21:21:17 3.7 C 20 %
1420 31-03-2020 21:31:17 3.5 C 20 %
1421 31-03-2020 21:41:17 3.2 C 23 %
1422 31-03-2020 21:51:17 3.2 C 23 %
1423 31-03-2020 22:00:18 3 C 23 %
1424 31-03-2020 22:10:18 2.7 C 25 %
1425 31-03-2020 22:21:17 2.7 C 25 %
Sensor: Nr:Datum:Temp:Feuchte:
Aussen-T/F 1426 31-03-2020 22:31:17 2.6 C 25 %
1427 31-03-2020 22:41:17 1.8 C 30 %
1428 31-03-2020 22:50:18 1.6 C 30 %
1429 31-03-2020 23:01:17 1.6 C 30 %
1430 31-03-2020 23:11:17 1.7 C 30 %
1431 31-03-2020 23:21:17 1.4 C 31 %
1432 31-03-2020 23:30:17 1.3 C 31 %
1433 31-03-2020 23:40:18 1.6 C 31 %
1434 31-03-2020 23:51:17 0.9 C 32 %
1435 01-04-2020 00:01:17 1.2 C 31 %
1436 01-04-2020 00:11:17 0 C 35 %
1437 01-04-2020 00:21:17 0.8 C 33 %
1438 01-04-2020 00:31:17 0.6 C 32 %
1439 01-04-2020 00:41:17 0.5 C 33 %
1440 01-04-2020 00:51:17 -0.3 C 35 %
1441 01-04-2020 01:01:17 -0.1 C 36 %
1442 01-04-2020 01:11:17 -0.3 C 35 %
1443 01-04-2020 01:21:17 -1 C 37 %
1444 01-04-2020 01:30:18 -1.4 C 38 %
1445 01-04-2020 01:40:18 -1.7 C 38 %
1446 01-04-2020 01:51:17 -1.9 C 38 %
1447 01-04-2020 02:01:17 -1.9 C 38 %
1448 01-04-2020 02:11:17 -2 C 38 %
1449 01-04-2020 02:21:17 -2.1 C 38 %
1450 01-04-2020 02:31:17 -2.3 C 39 %
Sensor: Nr:Datum:Temp:Feuchte:
Aussen-T/F 1451 01-04-2020 02:41:17 -2.4 C 38 %
1452 01-04-2020 02:50:18 -2.4 C 39 %
1453 01-04-2020 03:01:17 -2.5 C 38 %
1454 01-04-2020 03:11:17 -2.6 C 38 %
1455 01-04-2020 03:21:17 -2.8 C 39 %
1456 01-04-2020 03:31:17 -2.7 C 38 %
1457 01-04-2020 03:41:18 -3 C 38 %
1458 01-04-2020 03:51:17 -3 C 39 %
1459 01-04-2020 04:01:17 -2.8 C 39 %
1460 01-04-2020 04:11:17 -3.1 C 38 %
1461 01-04-2020 04:21:17 -3.2 C 39 %
1462 01-04-2020 04:31:18 -3.5 C 38 %
1463 01-04-2020 04:41:19 -3.4 C 39 %
1464 01-04-2020 04:51:17 -3.5 C 39 %
1465 01-04-2020 05:01:18 -3.6 C 39 %
1466 01-04-2020 05:11:19 -3.8 C 40 %
1467 01-04-2020 05:21:17 -3.8 C 40 %
1468 01-04-2020 05:31:18 -3.8 C 40 %
1469 01-04-2020 05:41:18 -4 C 40 %
1470 01-04-2020 05:51:17 -4.2 C 40 %
1471 01-04-2020 06:01:18 -4.2 C 40 %
1472 01-04-2020 06:11:18 -4 C 40 %
1473 01-04-2020 06:21:17 -4.2 C 40 %
1474 01-04-2020 06:31:17 -4.2 C 41 %
1475 01-04-2020 06:41:17 -4.3 C 41 %
Sensor: Nr:Datum:Temp:Feuchte:
Aussen-T/F 1476 01-04-2020 06:51:17 -4.5 C 41 %
1477 01-04-2020 07:01:18 -4.6 C 41 %
1478 01-04-2020 07:11:19 -4.7 C 41 %
1479 01-04-2020 07:21:17 -4.5 C 41 %
1480 01-04-2020 07:31:18 -4.4 C 41 %
1481 01-04-2020 07:41:18 -4.5 C 41 %
1482 01-04-2020 07:51:17 -4.3 C 41 %
1483 01-04-2020 08:01:17 -4.2 C 41 %
1484 01-04-2020 08:11:17 -4.2 C 41 %
1485 01-04-2020 08:21:17 -3.7 C 41 %
1486 01-04-2020 08:31:17 -3.8 C 41 %
1487 01-04-2020 08:41:17 -3.7 C 41 %
1488 01-04-2020 08:51:17 -3.4 C 40 %
1489 01-04-2020 09:01:17 -3.4 C 40 %
1490 01-04-2020 09:11:17 -2.7 C 40 %
1491 01-04-2020 09:21:17 -2.6 C 40 %
1492 01-04-2020 09:31:17 -2.5 C 40 %
1493 01-04-2020 09:41:17 -2.1 C 40 %
1494 01-04-2020 09:51:17 -1.5 C 39 %
1495 01-04-2020 10:01:17 -1 C 39 %
1496 01-04-2020 10:11:17 -0.9 C 40 %
1497 01-04-2020 10:21:17 -0.4 C 40 %
1498 01-04-2020 10:31:18 0.5 C 39 %
1499 01-04-2020 10:41:18 1 C 37 %
1500 01-04-2020 10:51:17 1.6 C 36 %
Sensor: Nr:Datum:Temp:Feuchte:
Aussen-T/F 1501 01-04-2020 11:01:17 2.4 C 35 %
1502 01-04-2020 11:11:17 3.2 C 33 %
1503 01-04-2020 11:21:17 4.2 C 29 %
1504 01-04-2020 11:31:17 4.8 C 20 %
1505 01-04-2020 11:41:17 5.3 C 20 %
1506 01-04-2020 11:51:17 6 C 20 %
1507 01-04-2020 12:01:17 6.6 C 20 %
1508 01-04-2020 12:11:18 7.1 C 20 %
1509 01-04-2020 12:21:17 8.9 C 20 %
1510 01-04-2020 12:31:17 10.3 C 20 %
1511 01-04-2020 12:41:17 9.2 C 20 %
1512 01-04-2020 12:51:17 8 C 20 %
1513 01-04-2020 13:01:17 9.3 C 20 %
1514 01-04-2020 13:11:17 9.3 C 20 %
1515 01-04-2020 13:21:16 8.6 C 20 %
1516 01-04-2020 13:31:17 9.2 C 20 %
1517 01-04-2020 13:41:17 9.6 C 20 %
1518 01-04-2020 13:51:17 10 C 20 %
1519 01-04-2020 14:01:17 10.3 C 20 %
1520 01-04-2020 14:11:17 10.7 C 20 %
1521 01-04-2020 14:21:17 13.2 C 20 %
1522 01-04-2020 14:31:16 15.9 C 20 %
1523 01-04-2020 14:41:16 16.3 C 20 %
1524 01-04-2020 14:51:17 13.7 C 20 %
1525 01-04-2020 15:01:17 14.2 C 20 %
Sensor: Nr:Datum:Temp:Feuchte:
Aussen-T/F 1526 01-04-2020 15:11:17 17.2 C 20 %
1527 01-04-2020 15:21:17 16.8 C 20 %
1528 01-04-2020 15:31:16 16.3 C 20 %
1529 01-04-2020 15:41:16 18.2 C 20 %
1530 01-04-2020 15:51:17 19.5 C 20 %
1531 01-04-2020 16:01:16 18.7 C 20 %
1532 01-04-2020 16:11:16 18.7 C 20 %
1533 01-04-2020 16:21:16 19.7 C 20 %
1534 01-04-2020 16:31:17 21.3 C 20 %
1535 01-04-2020 16:41:17 15.5 C 20 %
1536 01-04-2020 16:51:16 18.4 C 20 %
1537 01-04-2020 17:01:16 17.2 C 20 %
1538 01-04-2020 17:11:16 17.4 C 20 %
1539 01-04-2020 17:21:17 17.7 C 20 %
1540 01-04-2020 17:31:17 18.5 C 20 %
1541 01-04-2020 17:41:17 16.8 C 20 %
1542 01-04-2020 17:51:17 15.8 C 20 %
1543 01-04-2020 18:01:17 12.6 C 20 %
1544 01-04-2020 18:11:17 12 C 20 %
1545 01-04-2020 18:21:16 12.1 C 20 %
1546 01-04-2020 18:31:17 11.7 C 20 %
1547 01-04-2020 18:41:17 11.8 C 20 %
1548 01-04-2020 18:51:16 11.6 C 20 %
1549 01-04-2020 19:01:17 11 C 20 %
1550 01-04-2020 19:11:17 10.7 C 20 %
Sensor: Nr:Datum:Temp:Feuchte:
Aussen-T/F 1551 01-04-2020 19:21:17 10.4 C 20 %
1552 01-04-2020 19:31:17 9.9 C 20 %
1553 01-04-2020 19:41:17 9.6 C 20 %
1554 01-04-2020 19:51:16 8.9 C 20 %
1555 01-04-2020 20:01:17 8.1 C 20 %
1556 01-04-2020 20:11:17 7.8 C 20 %
1557 01-04-2020 20:21:16 8.1 C 20 %
1558 01-04-2020 20:31:16 7.1 C 20 %
1559 01-04-2020 20:41:16 6.2 C 20 %
1560 01-04-2020 20:51:16 5.9 C 20 %
1561 01-04-2020 21:01:16 6 C 20 %
1562 01-04-2020 21:11:16 6 C 20 %
1563 01-04-2020 21:21:16 5.7 C 20 %
1564 01-04-2020 21:31:16 5.7 C 20 %
1565 01-04-2020 21:41:16 5.4 C 20 %
1566 01-04-2020 21:51:16 4 C 21 %
1567 01-04-2020 22:01:16 4.2 C 21 %
1568 01-04-2020 22:11:16 3.7 C 26 %
1569 01-04-2020 22:21:16 3.2 C 26 %
1570 01-04-2020 22:31:16 2.5 C 29 %
1571 01-04-2020 22:41:16 2.6 C 28 %
1572 01-04-2020 22:51:16 2 C 30 %
1573 01-04-2020 23:01:17 1.7 C 33 %
1574 01-04-2020 23:11:17 1.7 C 32 %
1575 01-04-2020 23:21:16 1.4 C 34 %
Sensor: Nr:Datum:Temp:Feuchte:
Aussen-T/F 1576 01-04-2020 23:31:16 1.2 C 34 %
1577 01-04-2020 23:41:16 1 C 35 %
1578 01-04-2020 23:51:16 1.1 C 34 %
1579 02-04-2020 00:01:17 1 C 35 %
1580 02-04-2020 00:11:17 0.4 C 36 %
1581 02-04-2020 00:21:16 0.4 C 36 %
1582 02-04-2020 00:31:17 0.2 C 36 %
1583 02-04-2020 00:41:17 0.3 C 37 %
1584 02-04-2020 00:51:16 0.3 C 36 %
1585 02-04-2020 01:01:17 0 C 37 %
1586 02-04-2020 01:11:17 -0.4 C 38 %
1587 02-04-2020 01:21:16 -0.6 C 38 %
1588 02-04-2020 01:31:17 -0.7 C 38 %
1589 02-04-2020 01:41:17 -0.7 C 38 %
1590 02-04-2020 01:51:16 -0.9 C 39 %
1591 02-04-2020 02:01:16 -1 C 39 %
1592 02-04-2020 02:11:16 -1 C 39 %
1593 02-04-2020 02:21:16 -1.2 C 39 %
1594 02-04-2020 02:31:17 -1.3 C 40 %
1595 02-04-2020 02:41:17 -1.6 C 40 %
1596 02-04-2020 02:51:17 -1.5 C 40 %
1597 02-04-2020 03:01:17 -1.5 C 40 %
1598 02-04-2020 03:11:17 -1.5 C 40 %
1599 02-04-2020 03:21:17 -1.3 C 40 %
1600 02-04-2020 03:31:17 -1.4 C 40 %
Sensor: Nr:Datum:Temp:Feuchte:
Aussen-T/F 1601 02-04-2020 03:41:17 -1.6 C 40 %
1602 02-04-2020 03:51:18 -1.7 C 40 %
1603 02-04-2020 04:01:18 -2.1 C 40 %
1604 02-04-2020 04:11:18 -1.7 C 41 %
1605 02-04-2020 04:21:18 -1.6 C 40 %
1606 02-04-2020 04:31:17 -2 C 40 %
1607 02-04-2020 04:41:17 -2.4 C 41 %
1608 02-04-2020 04:51:17 -2.7 C 41 %
1609 02-04-2020 05:01:18 -2.6 C 41 %
1610 02-04-2020 05:11:18 -2.6 C 41 %
1611 02-04-2020 05:21:17 -2.6 C 41 %
1612 02-04-2020 05:31:18 -2.7 C 41 %
1613 02-04-2020 05:41:18 -2.6 C 41 %
1614 02-04-2020 05:51:17 -2.5 C 41 %
1615 02-04-2020 06:01:17 -2.6 C 41 %
1616 02-04-2020 06:11:17 -3 C 41 %
1617 02-04-2020 06:21:17 -3 C 42 %
1618 02-04-2020 06:31:17 -2.6 C 43 %
1619 02-04-2020 06:41:17 -3.1 C 42 %
1620 02-04-2020 06:51:17 -2.9 C 42 %
1621 02-04-2020 07:01:17 -3.3 C 42 %
1622 02-04-2020 07:11:17 -3 C 42 %
1623 02-04-2020 07:21:17 -3.1 C 42 %
1624 02-04-2020 07:31:17 -3 C 43 %
1625 02-04-2020 07:41:18 -2.9 C 42 %
Sensor: Nr:Datum:Temp:Feuchte:
Aussen-T/F 1626 02-04-2020 07:51:17 -3 C 43 %
1627 02-04-2020 08:01:17 -2.7 C 43 %
1628 02-04-2020 08:11:18 -2.5 C 43 %
1629 02-04-2020 08:21:17 -2.2 C 42 %
1630 02-04-2020 08:31:17 -2.2 C 42 %
1631 02-04-2020 08:41:17 -2 C 42 %
1632 02-04-2020 08:51:17 -1.8 C 42 %
1633 02-04-2020 09:01:17 -1.7 C 42 %
1634 02-04-2020 09:11:17 -1.5 C 41 %
1635 02-04-2020 09:21:17 -1.3 C 41 %
1636 02-04-2020 09:31:17 -1 C 41 %
1637 02-04-2020 09:41:17 -0.6 C 41 %
1638 02-04-2020 09:51:18 -0.3 C 41 %
1639 02-04-2020 10:01:18 0.1 C 41 %
1640 02-04-2020 10:11:18 0.6 C 41 %
1641 02-04-2020 10:21:17 0.8 C 41 %
1642 02-04-2020 10:31:17 1.7 C 40 %
1643 02-04-2020 10:41:17 2.2 C 39 %
1644 02-04-2020 10:51:17 3.1 C 37 %
1645 02-04-2020 11:01:17 3.6 C 37 %
1646 02-04-2020 11:11:17 4.6 C 35 %
1647 02-04-2020 11:21:17 5.7 C 30 %
1648 02-04-2020 11:31:18 6.5 C 30 %
1649 02-04-2020 11:41:18 6.9 C 29 %
1650 02-04-2020 11:51:17 7.4 C 27 %
Sensor: Nr:Datum:Temp:Feuchte:
Aussen-T/F 1651 02-04-2020 12:01:17 8.1 C 27 %
1652 02-04-2020 12:11:17 8.5 C 25 %
1653 02-04-2020 12:21:17 10.5 C 20 %
1654 02-04-2020 12:31:18 12.2 C 20 %
1655 02-04-2020 12:41:18 10.8 C 20 %
1656 02-04-2020 12:51:17 10.3 C 20 %
1657 02-04-2020 13:01:17 11 C 20 %
1658 02-04-2020 13:11:18 11.5 C 20 %
1659 02-04-2020 13:21:17 11.6 C 20 %
1660 02-04-2020 13:31:17 11.4 C 20 %
1661 02-04-2020 13:41:17 12.3 C 20 %
1662 02-04-2020 13:51:17 12.5 C 20 %
1663 02-04-2020 14:01:17 11.8 C 20 %
1664 02-04-2020 14:11:17 12.6 C 20 %
1665 02-04-2020 14:21:17 15.5 C 20 %
1666 02-04-2020 14:31:18 18.1 C 20 %
1667 02-04-2020 14:41:18 18.3 C 20 %
1668 02-04-2020 14:51:17 18.3 C 20 %
1669 02-04-2020 15:01:18 19.7 C 20 %
1670 02-04-2020 15:11:18 17.5 C 20 %
1671 02-04-2020 15:21:17 19.2 C 20 %
1672 02-04-2020 15:31:18 19.8 C 20 %
1673 02-04-2020 15:41:18 19.3 C 20 %
1674 02-04-2020 15:51:17 19.4 C 20 %
1675 02-04-2020 16:01:17 21.3 C 20 %
Sensor: Nr:Datum:Temp:Feuchte:
Aussen-T/F 1676 02-04-2020 16:11:17 19.9 C 20 %
1677 02-04-2020 16:21:17 16.6 C 20 %
1678 02-04-2020 16:31:18 18 C 20 %
1679 02-04-2020 16:41:18 17.6 C 20 %
1680 02-04-2020 16:51:17 17.8 C 20 %
1681 02-04-2020 17:01:17 17.3 C 20 %
1682 02-04-2020 17:11:17 16.6 C 20 %
1683 02-04-2020 17:21:17 15.8 C 20 %
1684 02-04-2020 17:31:18 15.5 C 20 %
1685 02-04-2020 17:41:18 14.7 C 20 %
1686 02-04-2020 17:51:17 14.8 C 20 %
1687 02-04-2020 18:01:17 12.8 C 20 %
1688 02-04-2020 18:11:17 12.2 C 20 %
1689 02-04-2020 18:21:17 12.3 C 20 %
1690 02-04-2020 18:31:17 11.8 C 20 %
1691 02-04-2020 18:41:17 11.3 C 20 %
1692 02-04-2020 18:51:17 11.1 C 20 %
1693 02-04-2020 19:01:17 10.7 C 20 %
1694 02-04-2020 19:11:17 10.2 C 20 %
1695 02-04-2020 19:21:17 10 C 20 %
1696 02-04-2020 19:31:17 9.6 C 20 %
1697 02-04-2020 19:41:17 9.5 C 20 %
1698 02-04-2020 19:51:17 8.7 C 20 %
1699 02-04-2020 20:01:17 8.5 C 20 %
1700 02-04-2020 20:11:17 8.5 C 20 %
Sensor: Nr:Datum:Temp:Feuchte:
Aussen-T/F 1701 02-04-2020 20:21:17 7.9 C 20 %
1702 02-04-2020 20:31:17 7.8 C 20 %
1703 02-04-2020 20:41:17 7.2 C 21 %
1704 02-04-2020 20:51:17 6.9 C 25 %
1705 02-04-2020 21:01:17 6.4 C 26 %
1706 02-04-2020 21:11:17 6.3 C 27 %
1707 02-04-2020 21:21:17 5.9 C 28 %
1708 02-04-2020 21:31:18 5.7 C 29 %
1709 02-04-2020 21:41:18 5.6 C 30 %
1710 02-04-2020 21:51:17 5.3 C 30 %
1711 02-04-2020 22:01:17 5.2 C 30 %
1712 02-04-2020 22:11:17 5.5 C 30 %
1713 02-04-2020 22:21:17 5 C 30 %
1714 02-04-2020 22:31:18 5.3 C 31 %
1715 02-04-2020 22:41:18 5.2 C 31 %
1716 02-04-2020 22:51:17 5.1 C 31 %
1717 02-04-2020 23:01:17 4.8 C 32 %
1718 02-04-2020 23:11:17 5 C 31 %
1719 02-04-2020 23:21:17 5 C 31 %
1720 02-04-2020 23:31:18 4.7 C 33 %
1721 02-04-2020 23:41:18 3.9 C 35 %
1722 02-04-2020 23:51:17 3.1 C 36 %
1723 03-04-2020 00:01:18 2.7 C 38 %
1724 03-04-2020 00:11:18 2.3 C 39 %
1725 03-04-2020 00:21:17 2.6 C 40 %
Sensor: Nr:Datum:Temp:Feuchte:
Aussen-T/F 1726 03-04-2020 00:31:17 2.6 C 39 %
1727 03-04-2020 00:41:17 3.2 C 38 %
1728 03-04-2020 00:51:17 2.4 C 39 %
1729 03-04-2020 01:01:18 2.4 C 39 %
1730 03-04-2020 01:11:18 2.4 C 39 %
1731 03-04-2020 01:21:17 2.6 C 39 %
1732 03-04-2020 01:31:18 2.7 C 39 %
1733 03-04-2020 01:41:18 2.5 C 39 %
1734 03-04-2020 01:51:17 2.3 C 39 %
1735 03-04-2020 02:01:18 2.2 C 39 %
1736 03-04-2020 02:11:18 2.3 C 39 %
1737 03-04-2020 02:21:18 3.1 C 38 %
1738 03-04-2020 02:31:18 3.2 C 38 %
1739 03-04-2020 02:41:18 2.6 C 39 %
1740 03-04-2020 02:51:17 2.8 C 39 %
1741 03-04-2020 03:01:18 3 C 38 %
1742 03-04-2020 03:11:18 3.6 C 38 %
1743 03-04-2020 03:21:17 3.9 C 38 %
1744 03-04-2020 03:31:17 4.4 C 36 %
1745 03-04-2020 03:41:17 4.7 C 36 %
1746 03-04-2020 03:51:17 4.6 C 36 %
1747 03-04-2020 04:01:17 5 C 35 %
1748 03-04-2020 04:11:17 5.6 C 35 %
1749 03-04-2020 04:21:17 4.9 C 35 %
1750 03-04-2020 04:31:18 4.7 C 36 %
Sensor: Nr:Datum:Temp:Feuchte:
Aussen-T/F 1751 03-04-2020 04:41:18 4.6 C 36 %
1752 03-04-2020 04:51:18 4.4 C 36 %
1753 03-04-2020 05:01:18 4.3 C 36 %
1754 03-04-2020 05:11:18 4.5 C 36 %
1755 03-04-2020 05:21:17 4.8 C 36 %
1756 03-04-2020 05:31:17 4.8 C 36 %
1757 03-04-2020 05:41:17 5.2 C 35 %
1758 03-04-2020 05:51:17 5.3 C 35 %
1759 03-04-2020 06:01:18 5.4 C 35 %
1760 03-04-2020 06:11:18 5.4 C 35 %
1761 03-04-2020 06:21:17 5.1 C 35 %
1762 03-04-2020 06:31:17 5.1 C 36 %
1763 03-04-2020 06:41:17 5.1 C 35 %
1764 03-04-2020 06:51:17 5.2 C 35 %
1765 03-04-2020 07:01:17 5.7 C 35 %
1766 03-04-2020 07:11:17 5.6 C 35 %
1767 03-04-2020 07:21:18 5.5 C 35 %
1768 03-04-2020 07:31:17 5.7 C 35 %
1769 03-04-2020 07:41:17 5.6 C 35 %
1770 03-04-2020 07:51:17 5.6 C 35 %
1771 03-04-2020 08:01:17 5.7 C 35 %
1772 03-04-2020 08:11:17 5.9 C 35 %
1773 03-04-2020 08:21:18 5.9 C 35 %
1774 03-04-2020 08:31:17 5.9 C 35 %
1775 03-04-2020 08:41:17 6.1 C 35 %
Sensor: Nr:Datum:Temp:Feuchte:
Aussen-T/F 1776 03-04-2020 08:51:18 6.6 C 35 %
1777 03-04-2020 09:01:17 7 C 34 %
1778 03-04-2020 09:11:17 7.1 C 34 %
1779 03-04-2020 09:21:18 7.6 C 34 %
1780 03-04-2020 09:31:18 7.7 C 34 %
1781 03-04-2020 09:41:18 8 C 33 %
1782 03-04-2020 09:51:17 8.4 C 33 %
1783 03-04-2020 10:01:18 8.6 C 32 %
1784 03-04-2020 10:11:18 8.6 C 32 %
1785 03-04-2020 10:21:17 9 C 32 %
1786 03-04-2020 10:31:18 9.4 C 32 %
1787 03-04-2020 10:41:18 9.2 C 32 %
1788 03-04-2020 10:51:17 9.6 C 32 %
1789 03-04-2020 11:01:17 10.6 C 31 %
1790 03-04-2020 11:11:17 11.2 C 29 %
1791 03-04-2020 11:21:17 10.9 C 29 %
1792 03-04-2020 11:31:17 11.1 C 28 %
1793 03-04-2020 11:41:17 11.5 C 26 %
1794 03-04-2020 11:51:17 11.4 C 26 %
1795 03-04-2020 12:01:17 11.1 C 26 %
1796 03-04-2020 12:11:17 11.2 C 26 %
1797 03-04-2020 12:21:17 11.4 C 26 %
1798 03-04-2020 12:31:17 11.6 C 25 %
1799 03-04-2020 12:41:18 11.1 C 25 %
1800 03-04-2020 12:51:17 11.1 C 25 %
Sensor: Nr:Datum:Temp:Feuchte:
Aussen-T/F 1801 03-04-2020 13:01:18 11.2 C 25 %
1802 03-04-2020 13:11:18 11.7 C 25 %
1803 03-04-2020 13:21:17 12.2 C 22 %
1804 03-04-2020 13:31:17 11.8 C 22 %
1805 03-04-2020 13:41:17 11.8 C 23 %
1806 03-04-2020 13:51:17 12.2 C 22 %
1807 03-04-2020 14:01:18 12.3 C 20 %
1808 03-04-2020 14:11:18 11.6 C 21 %
1809 03-04-2020 14:21:17 11.7 C 21 %
1810 03-04-2020 14:31:17 11.6 C 21 %
1811 03-04-2020 14:41:18 11.4 C 23 %
1812 03-04-2020 14:51:17 11.7 C 21 %
1813 03-04-2020 15:01:17 11.8 C 20 %
1814 03-04-2020 15:11:17 11.7 C 20 %
1815 03-04-2020 15:21:18 11.8 C 20 %
1816 03-04-2020 15:31:17 12.1 C 20 %
1817 03-04-2020 15:41:17 12.5 C 20 %
1818 03-04-2020 15:51:17 13.1 C 20 %
1819 03-04-2020 16:01:17 12.6 C 20 %
1820 03-04-2020 16:11:17 12.4 C 20 %
1821 03-04-2020 16:21:17 12.4 C 20 %
1822 03-04-2020 16:31:17 12.3 C 20 %
1823 03-04-2020 16:41:17 12.4 C 20 %
1824 03-04-2020 16:51:17 12.4 C 20 %
1825 03-04-2020 17:01:17 12.2 C 20 %
Sensor: Nr:Datum:Temp:Feuchte:
Aussen-T/F 1826 03-04-2020 17:11:17 12.2 C 20 %
1827 03-04-2020 17:21:17 12.2 C 20 %
1828 03-04-2020 17:31:17 12.2 C 20 %
1829 03-04-2020 17:41:17 12.4 C 20 %
1830 03-04-2020 17:51:17 11.9 C 20 %
1831 03-04-2020 18:01:17 11.5 C 20 %
1832 03-04-2020 18:11:17 11.7 C 20 %
1833 03-04-2020 18:21:17 11.5 C 20 %
1834 03-04-2020 18:31:18 11.4 C 20 %
1835 03-04-2020 18:41:18 11 C 20 %
1836 03-04-2020 18:51:17 11 C 20 %
1837 03-04-2020 19:01:18 10.8 C 20 %
1838 03-04-2020 19:11:18 10.7 C 20 %
1839 03-04-2020 19:21:17 10.5 C 20 %
1840 03-04-2020 19:31:17 10.2 C 20 %
1841 03-04-2020 19:41:17 10.3 C 20 %
1842 03-04-2020 19:51:17 9.9 C 20 %
1843 03-04-2020 20:01:17 9.8 C 20 %
1844 03-04-2020 20:11:17 9.5 C 20 %
1845 03-04-2020 20:21:17 9.1 C 20 %
1846 03-04-2020 20:31:18 9.5 C 20 %
1847 03-04-2020 20:41:18 9.2 C 20 %
1848 03-04-2020 20:51:18 9.1 C 20 %
1849 03-04-2020 21:01:17 9.2 C 20 %
1850 03-04-2020 21:11:17 9.1 C 20 %
Sensor: Nr:Datum:Temp:Feuchte:
Aussen-T/F 1851 03-04-2020 21:21:17 8.9 C 20 %
1852 03-04-2020 21:31:17 8.7 C 20 %
1853 03-04-2020 21:41:17 8.6 C 20 %
1854 03-04-2020 21:51:17 8.3 C 20 %
1855 03-04-2020 22:01:17 8.1 C 20 %
1856 03-04-2020 22:11:17 7.9 C 20 %
1857 03-04-2020 22:21:17 7.2 C 23 %
1858 03-04-2020 22:31:18 6.8 C 25 %
1859 03-04-2020 22:41:18 6.5 C 26 %
1860 03-04-2020 22:51:17 6.3 C 26 %
1861 03-04-2020 23:01:17 6.4 C 26 %
1862 03-04-2020 23:11:18 6.4 C 25 %
1863 03-04-2020 23:21:18 6.2 C 26 %
1864 03-04-2020 23:31:17 5.2 C 28 %
1865 03-04-2020 23:41:18 5 C 29 %
1866 03-04-2020 23:51:17 4.7 C 30 %
1867 04-04-2020 00:01:17 4.8 C 30 %
1868 04-04-2020 00:11:18 4.8 C 30 %
1869 04-04-2020 00:21:17 4.7 C 30 %
1870 04-04-2020 00:31:17 5.2 C 28 %
1871 04-04-2020 00:41:17 4.5 C 29 %
1872 04-04-2020 00:51:17 4 C 30 %
1873 04-04-2020 01:01:17 4.6 C 30 %
1874 04-04-2020 01:11:17 4.3 C 30 %
1875 04-04-2020 01:21:18 3.9 C 31 %
Sensor: Nr:Datum:Temp:Feuchte:
Aussen-T/F 1876 04-04-2020 01:31:17 4 C 32 %
1877 04-04-2020 01:41:17 3.1 C 35 %
1878 04-04-2020 01:51:17 2.2 C 37 %
1879 04-04-2020 02:01:18 1.7 C 39 %
1880 04-04-2020 02:11:18 1.4 C 40 %
1881 04-04-2020 02:21:17 1.2 C 40 %
1882 04-04-2020 02:31:17 0.9 C 41 %
1883 04-04-2020 02:41:17 0.8 C 41 %
1884 04-04-2020 02:51:17 0.8 C 42 %
1885 04-04-2020 03:01:18 0.6 C 42 %
1886 04-04-2020 03:11:18 0.4 C 42 %
1887 04-04-2020 03:21:17 0.3 C 43 %
1888 04-04-2020 03:31:18 0.6 C 43 %
1889 04-04-2020 03:41:18 0.5 C 42 %
1890 04-04-2020 03:51:17 -0.1 C 43 %
1891 04-04-2020 04:01:17 -0.4 C 43 %
1892 04-04-2020 04:11:17 -0.6 C 43 %
1893 04-04-2020 04:21:17 -0.7 C 44 %
1894 04-04-2020 04:31:17 -0.6 C 44 %
1895 04-04-2020 04:41:17 -0.9 C 44 %
1896 04-04-2020 04:51:17 -0.9 C 45 %
1897 04-04-2020 05:01:18 -0.9 C 45 %
1898 04-04-2020 05:11:18 -1.2 C 45 %
1899 04-04-2020 05:21:18 -1.2 C 45 %
1900 04-04-2020 05:31:17 -1 C 45 %
Sensor: Nr:Datum:Temp:Feuchte:
Aussen-T/F 1901 04-04-2020 05:41:17 -1.2 C 45 %
1902 04-04-2020 05:51:17 -1.2 C 45 %
1903 04-04-2020 06:01:18 -1.5 C 45 %
1904 04-04-2020 06:11:18 -1.5 C 45 %
1905 04-04-2020 06:21:17 -1.5 C 45 %
1906 04-04-2020 06:31:17 -1.8 C 45 %
1907 04-04-2020 06:41:17 -1.4 C 46 %
1908 04-04-2020 06:51:17 -1.5 C 45 %
1909 04-04-2020 07:01:18 -1.6 C 45 %
1910 04-04-2020 07:11:18 -1.8 C 45 %
1911 04-04-2020 07:21:17 -1.5 C 46 %
1912 04-04-2020 07:31:18 -1.8 C 45 %
1913 04-04-2020 07:41:18 -1.7 C 46 %
1914 04-04-2020 07:51:17 -1.8 C 45 %
1915 04-04-2020 08:01:17 -1.8 C 46 %
1916 04-04-2020 08:11:18 -1.7 C 46 %
1917 04-04-2020 08:21:17 -1.5 C 46 %
1918 04-04-2020 08:31:17 -1.1 C 46 %
1919 04-04-2020 08:41:18 -1 C 46 %
1920 04-04-2020 08:51:17 -0.7 C 45 %
1921 04-04-2020 09:01:17 -0.3 C 45 %
1922 04-04-2020 09:11:17 0 C 45 %
1923 04-04-2020 09:21:17 -0.2 C 45 %
1924 04-04-2020 09:31:18 0.2 C 45 %
1925 04-04-2020 09:41:18 0.8 C 44 %
Sensor: Nr:Datum:Temp:Feuchte:
Aussen-T/F 1926 04-04-2020 09:51:17 1.1 C 43 %
1927 04-04-2020 10:01:17 1.5 C 43 %
1928 04-04-2020 10:11:18 1.8 C 43 %
1929 04-04-2020 10:21:17 2.2 C 41 %
1930 04-04-2020 10:31:17 2.9 C 41 %
1931 04-04-2020 10:41:17 3.5 C 40 %
1932 04-04-2020 10:51:17 4.5 C 37 %
1933 04-04-2020 11:01:17 5.3 C 36 %
1934 04-04-2020 11:11:17 6.4 C 35 %
1935 04-04-2020 11:21:18 7.1 C 32 %
1936 04-04-2020 11:31:18 7.9 C 32 %
1937 04-04-2020 11:41:18 8.4 C 29 %
1938 04-04-2020 11:51:18 8.7 C 29 %
1939 04-04-2020 12:01:18 9.7 C 26 %
1940 04-04-2020 12:11:18 9.7 C 26 %
1941 04-04-2020 12:21:17 10.6 C 22 %
1942 04-04-2020 12:31:17 10.9 C 20 %
1943 04-04-2020 12:41:17 11.4 C 20 %
1944 04-04-2020 12:51:17 10.8 C 20 %
1945 04-04-2020 13:01:17 11.1 C 20 %
1946 04-04-2020 13:11:17 12.1 C 20 %
1947 04-04-2020 13:21:17 11.6 C 20 %
1948 04-04-2020 13:31:17 11.4 C 20 %
1949 04-04-2020 13:41:17 12.2 C 20 %
1950 04-04-2020 13:51:18 12.5 C 20 %
Sensor: Nr:Datum:Temp:Feuchte:
Aussen-T/F 1951 04-04-2020 14:01:17 12.1 C 20 %
1952 04-04-2020 14:11:17 13.7 C 20 %
1953 04-04-2020 14:21:17 14.6 C 20 %
1954 04-04-2020 14:31:17 16.6 C 20 %
1955 04-04-2020 14:41:17 17 C 20 %
1956 04-04-2020 14:51:17 16.3 C 20 %
1957 04-04-2020 15:01:18 18.1 C 20 %
1958 04-04-2020 15:11:18 18.9 C 20 %
1959 04-04-2020 15:21:17 16.9 C 20 %
1960 04-04-2020 15:31:17 19.1 C 20 %
1961 04-04-2020 15:41:17 19.8 C 20 %
1962 04-04-2020 15:51:17 17.4 C 20 %
1963 04-04-2020 16:01:17 19.9 C 20 %
1964 04-04-2020 16:11:17 19.3 C 20 %
1965 04-04-2020 16:21:17 18.7 C 20 %
1966 04-04-2020 16:31:17 19.3 C 20 %
1967 04-04-2020 16:41:17 20.5 C 20 %
1968 04-04-2020 16:51:17 20.4 C 20 %
1969 04-04-2020 17:01:17 20.3 C 20 %
1970 04-04-2020 17:11:17 20.1 C 20 %
1971 04-04-2020 17:21:17 20.5 C 20 %
1972 04-04-2020 17:31:17 19.2 C 20 %
1973 04-04-2020 17:41:17 18.7 C 20 %
1974 04-04-2020 17:51:18 17.8 C 20 %
1975 04-04-2020 18:01:17 16.8 C 20 %
Sensor: Nr:Datum:Temp:Feuchte:
Aussen-T/F 1976 04-04-2020 18:11:17 16.2 C 20 %
1977 04-04-2020 18:21:17 15.4 C 20 %
1978 04-04-2020 18:31:17 15.4 C 20 %
1979 04-04-2020 18:41:17 15.6 C 20 %
1980 04-04-2020 18:51:17 15.1 C 20 %
1981 04-04-2020 19:01:17 14.9 C 20 %
1982 04-04-2020 19:11:17 14.4 C 20 %
1983 04-04-2020 19:21:17 14 C 20 %
1984 04-04-2020 19:31:17 13.9 C 20 %
1985 04-04-2020 19:41:17 12.6 C 20 %
1986 04-04-2020 19:51:17 11.5 C 20 %
1987 04-04-2020 20:01:17 11.3 C 20 %
1988 04-04-2020 20:11:17 10.7 C 20 %
1989 04-04-2020 20:21:17 10.3 C 21 %
1990 04-04-2020 20:31:17 9.8 C 25 %
1991 04-04-2020 20:41:17 9.5 C 23 %
1992 04-04-2020 20:51:17 9.2 C 25 %
1993 04-04-2020 21:01:17 9.2 C 21 %
1994 04-04-2020 21:11:17 8.7 C 25 %
1995 04-04-2020 21:21:17 8.8 C 25 %
1996 04-04-2020 21:31:17 8.5 C 25 %
1997 04-04-2020 21:41:17 8.2 C 25 %
1998 04-04-2020 21:51:17 7.1 C 28 %
1999 04-04-2020 22:01:18 5.8 C 31 %
2000 04-04-2020 22:11:18 5.5 C 32 %
Sensor: Nr:Datum:Temp:Feuchte:
Aussen-T/F 2001 04-04-2020 22:21:18 5.1 C 32 %
2002 04-04-2020 22:31:17 4.8 C 35 %
2003 04-04-2020 22:41:17 4.7 C 34 %
2004 04-04-2020 22:51:17 4.6 C 34 %
2005 04-04-2020 23:01:17 4.4 C 34 %
2006 04-04-2020 23:11:17 4.1 C 34 %
2007 04-04-2020 23:21:17 3.9 C 35 %
2008 04-04-2020 23:31:17 3.6 C 36 %
2009 04-04-2020 23:41:17 3.5 C 36 %
2010 04-04-2020 23:51:17 3.4 C 37 %
2011 05-04-2020 00:01:17 3 C 37 %
2012 05-04-2020 00:11:17 2.9 C 38 %
2013 05-04-2020 00:21:17 2.8 C 39 %
2014 05-04-2020 00:31:17 2.5 C 39 %
2015 05-04-2020 00:41:17 2.5 C 40 %
2016 05-04-2020 00:51:18 2.4 C 40 %
2017 05-04-2020 01:01:18 2.3 C 40 %
2018 05-04-2020 01:11:18 2.3 C 40 %
2019 05-04-2020 01:21:17 2.2 C 40 %
2020 05-04-2020 01:31:18 2.1 C 41 %
2021 05-04-2020 01:41:18 1.9 C 42 %
2022 05-04-2020 01:51:17 1.8 C 42 %
2023 05-04-2020 02:01:18 1.6 C 42 %
2024 05-04-2020 02:11:18 1.3 C 42 %
2025 05-04-2020 02:21:17 1.4 C 43 %
Sensor: Nr:Datum:Temp:Feuchte:
Aussen-T/F 2026 05-04-2020 02:31:18 1.4 C 43 %
2027 05-04-2020 02:41:18 1.1 C 43 %
2028 05-04-2020 02:51:17 1.1 C 43 %
2029 05-04-2020 03:01:18 1.3 C 43 %
2030 05-04-2020 03:11:18 1.1 C 43 %
2031 05-04-2020 03:21:17 1 C 43 %
2032 05-04-2020 03:31:17 0.7 C 45 %
2033 05-04-2020 03:41:17 0.5 C 45 %
2034 05-04-2020 03:51:17 0.7 C 45 %
2035 05-04-2020 04:01:17 0.6 C 45 %
2036 05-04-2020 04:11:17 0.4 C 45 %
2037 05-04-2020 04:21:17 0.4 C 46 %
2038 05-04-2020 04:31:17 0.2 C 46 %
2039 05-04-2020 04:41:17 0.2 C 46 %
2040 05-04-2020 04:51:17 0.2 C 46 %
2041 05-04-2020 05:01:17 0 C 46 %
2042 05-04-2020 05:11:17 -0.3 C 46 %
2043 05-04-2020 05:21:17 -0.2 C 47 %
2044 05-04-2020 05:31:17 -0.3 C 46 %
2045 05-04-2020 05:41:17 -0.4 C 47 %
2046 05-04-2020 05:51:17 -0.5 C 47 %
2047 05-04-2020 06:01:17 -0.4 C 47 %
2048 05-04-2020 06:11:17 -0.5 C 47 %
2049 05-04-2020 06:21:17 -0.6 C 47 %
2050 05-04-2020 06:31:18 -0.8 C 48 %
Sensor: Nr:Datum:Temp:Feuchte:
Aussen-T/F 2051 05-04-2020 06:41:18 -0.8 C 47 %
2052 05-04-2020 06:51:17 -0.8 C 47 %
2053 05-04-2020 07:01:18 -0.9 C 47 %
2054 05-04-2020 07:11:18 -0.7 C 48 %
2055 05-04-2020 07:21:18 -0.6 C 48 %
2056 05-04-2020 07:31:17 -0.5 C 48 %
2057 05-04-2020 07:41:17 -0.5 C 48 %
2058 05-04-2020 07:51:17 -0.4 C 48 %
2059 05-04-2020 08:01:17 -0.3 C 48 %
2060 05-04-2020 08:11:17 0 C 49 %
2061 05-04-2020 08:21:17 0.1 C 48 %
2062 05-04-2020 08:31:17 0.4 C 48 %
2063 05-04-2020 08:41:17 0.5 C 49 %
2064 05-04-2020 08:51:18 0.8 C 49 %
2065 05-04-2020 09:01:17 1.1 C 47 %
2066 05-04-2020 09:11:17 1.4 C 47 %
2067 05-04-2020 09:21:17 1.8 C 47 %
2068 05-04-2020 09:31:17 2.4 C 46 %
2069 05-04-2020 09:41:17 2.8 C 46 %
2070 05-04-2020 09:51:18 3.4 C 44 %
2071 05-04-2020 10:01:18 3.9 C 43 %
2072 05-04-2020 10:11:18 4.5 C 41 %
2073 05-04-2020 10:21:17 5.4 C 40 %
2074 05-04-2020 10:31:17 5.9 C 40 %
2075 05-04-2020 10:41:17 7 C 38 %
Sensor: Nr:Datum:Temp:Feuchte:
Aussen-T/F 2076 05-04-2020 10:51:17 7.9 C 37 %
2077 05-04-2020 11:01:17 8.6 C 36 %
2078 05-04-2020 11:11:17 10.7 C 32 %
2079 05-04-2020 11:21:17 11.2 C 30 %
2080 05-04-2020 11:31:17 13.1 C 21 %
2081 05-04-2020 11:41:17 13.9 C 20 %
2082 05-04-2020 11:51:17 14.8 C 20 %
2083 05-04-2020 12:01:17 15.6 C 20 %
2084 05-04-2020 12:11:17 15.9 C 20 %
2085 05-04-2020 12:21:17 16.7 C 20 %
2086 05-04-2020 12:31:18 17.6 C 20 %
2087 05-04-2020 12:41:18 17.4 C 20 %
2088 05-04-2020 12:51:17 17.4 C 20 %
2089 05-04-2020 13:01:17 17.2 C 20 %
2090 05-04-2020 13:11:17 18.4 C 20 %
2091 05-04-2020 13:21:17 17.5 C 20 %
2092 05-04-2020 13:31:17 17.1 C 20 %
2093 05-04-2020 13:41:17 17.9 C 20 %
2094 05-04-2020 13:51:17 17.7 C 20 %
2095 05-04-2020 14:01:17 17.9 C 20 %
2096 05-04-2020 14:11:17 19 C 20 %
2097 05-04-2020 14:21:17 19.8 C 20 %
2098 05-04-2020 14:31:18 21.7 C 20 %
2099 05-04-2020 14:41:18 23.4 C 20 %
2100 05-04-2020 14:51:18 23.3 C 20 %
Sensor: Nr:Datum:Temp:Feuchte:
Aussen-T/F 2101 05-04-2020 15:01:17 24.7 C 20 %
2102 05-04-2020 15:11:18 26.9 C 20 %
2103 05-04-2020 15:21:17 24.5 C 20 %
2104 05-04-2020 15:31:17 24.8 C 20 %
2105 05-04-2020 15:41:17 25.1 C 20 %
2106 05-04-2020 15:51:18 26.6 C 20 %
2107 05-04-2020 16:01:17 25 C 20 %
2108 05-04-2020 16:11:17 23.3 C 20 %
2109 05-04-2020 16:21:17 25.5 C 20 %
2110 05-04-2020 16:31:17 24.8 C 20 %
2111 05-04-2020 16:41:17 23.1 C 20 %
2112 05-04-2020 16:51:17 23.4 C 20 %
2113 05-04-2020 17:01:17 23.5 C 20 %
2114 05-04-2020 17:11:17 26.4 C 20 %
2115 05-04-2020 17:21:17 25.9 C 20 %
2116 05-04-2020 17:31:17 24.4 C 20 %
2117 05-04-2020 17:41:17 24.2 C 20 %
2118 05-04-2020 17:51:17 23.6 C 20 %
2119 05-04-2020 18:01:17 20.8 C 20 %
2120 05-04-2020 18:11:17 19.7 C 20 %
2121 05-04-2020 18:21:17 20 C 20 %
2122 05-04-2020 18:31:17 19.7 C 20 %
2123 05-04-2020 18:41:17 19.4 C 20 %
2124 05-04-2020 18:51:17 18.9 C 20 %
2125 05-04-2020 19:01:17 18.8 C 20 %
Sensor: Nr:Datum:Temp:Feuchte:
Aussen-T/F 2126 05-04-2020 19:11:17 18.4 C 20 %
2127 05-04-2020 19:21:17 18 C 20 %
2128 05-04-2020 19:31:18 17.5 C 20 %
2129 05-04-2020 19:41:18 16.3 C 20 %
2130 05-04-2020 19:51:17 15 C 20 %
2131 05-04-2020 20:01:18 14.3 C 20 %
2132 05-04-2020 20:11:18 14.1 C 20 %
2133 05-04-2020 20:21:17 13.5 C 20 %
2134 05-04-2020 20:31:17 13.3 C 20 %
2135 05-04-2020 20:41:17 13 C 20 %
2136 05-04-2020 20:51:17 12.7 C 20 %
2137 05-04-2020 21:01:18 12.3 C 20 %
2138 05-04-2020 21:11:18 12 C 20 %
2139 05-04-2020 21:21:17 12.1 C 20 %
2140 05-04-2020 21:31:17 11.7 C 20 %
2141 05-04-2020 21:41:17 11.5 C 20 %
2142 05-04-2020 21:51:17 10.3 C 20 %
2143 05-04-2020 22:01:17 10.5 C 20 %
2144 05-04-2020 22:11:17 9.2 C 25 %
2145 05-04-2020 22:21:17 8.9 C 26 %
2146 05-04-2020 22:31:17 8.8 C 26 %
2147 05-04-2020 22:41:17 8.4 C 27 %
2148 05-04-2020 22:51:17 8.2 C 27 %
2149 05-04-2020 23:01:17 8 C 28 %
2150 05-04-2020 23:11:17 7.4 C 30 %
Sensor: Nr:Datum:Temp:Feuchte:
Aussen-T/F 2151 05-04-2020 23:21:17 7.4 C 29 %
2152 05-04-2020 23:31:17 7 C 30 %
2153 05-04-2020 23:41:17 6.7 C 31 %
2154 05-04-2020 23:51:17 6.3 C 31 %
2155 06-04-2020 00:01:17 6.2 C 32 %
2156 06-04-2020 00:11:17 6.3 C 32 %
2157 06-04-2020 00:21:17 6.3 C 32 %
2158 06-04-2020 00:31:18 6 C 32 %
2159 06-04-2020 00:41:18 5.6 C 33 %
2160 06-04-2020 00:51:17 5.6 C 34 %
2161 06-04-2020 01:01:18 5.4 C 35 %
2162 06-04-2020 01:11:18 5.3 C 35 %
2163 06-04-2020 01:21:17 5.1 C 35 %
2164 06-04-2020 01:31:17 4.8 C 36 %
2165 06-04-2020 01:41:17 4.7 C 36 %
2166 06-04-2020 01:51:17 4.6 C 36 %
2167 06-04-2020 02:01:17 4.5 C 37 %
2168 06-04-2020 02:11:17 4.1 C 37 %
2169 06-04-2020 02:21:17 4.2 C 37 %
2170 06-04-2020 02:31:17 4 C 37 %
2171 06-04-2020 02:41:17 4.1 C 37 %
2172 06-04-2020 02:51:17 3.8 C 38 %
2173 06-04-2020 03:01:17 3.9 C 39 %
2174 06-04-2020 03:11:17 3.6 C 39 %
2175 06-04-2020 03:21:17 3.3 C 39 %
Sensor: Nr:Datum:Temp:Feuchte:
Aussen-T/F 2176 06-04-2020 03:31:18 3.3 C 40 %
2177 06-04-2020 03:41:18 3.2 C 40 %
2178 06-04-2020 03:51:17 3.3 C 40 %
2179 06-04-2020 04:01:17 3.2 C 40 %
2180 06-04-2020 04:11:17 3.3 C 40 %
2181 06-04-2020 04:21:17 3.1 C 40 %
2182 06-04-2020 04:31:17 2.8 C 40 %
2183 06-04-2020 04:41:17 2.6 C 41 %
2184 06-04-2020 04:51:17 2.5 C 41 %
2185 06-04-2020 05:01:17 2.4 C 41 %
2186 06-04-2020 05:11:17 2.3 C 41 %
2187 06-04-2020 05:21:18 2.2 C 41 %
2188 06-04-2020 05:31:17 1.9 C 42 %
2189 06-04-2020 05:41:17 1.8 C 43 %
2190 06-04-2020 05:51:17 1.7 C 43 %
2191 06-04-2020 06:01:17 1.6 C 44 %
2192 06-04-2020 06:11:17 1.5 C 44 %
2193 06-04-2020 06:21:18 1.3 C 45 %
2194 06-04-2020 06:31:17 1.2 C 45 %
2195 06-04-2020 06:41:18 1.3 C 45 %
2196 06-04-2020 06:51:17 1.3 C 45 %
2197 06-04-2020 07:01:17 1.4 C 45 %
2198 06-04-2020 07:11:17 1.5 C 45 %
2199 06-04-2020 07:21:17 1.6 C 45 %
2200 06-04-2020 07:31:18 1.5 C 45 %
Sensor: Nr:Datum:Temp:Feuchte:
Aussen-T/F 2201 06-04-2020 07:41:18 1.6 C 45 %
2202 06-04-2020 07:51:17 2 C 45 %
2203 06-04-2020 08:01:17 1.9 C 45 %
2204 06-04-2020 08:11:17 2.2 C 44 %
2205 06-04-2020 08:21:17 2.5 C 44 %
2206 06-04-2020 08:31:17 3 C 42 %
2207 06-04-2020 08:41:17 3.2 C 42 %
2208 06-04-2020 08:51:17 3.4 C 41 %
2209 06-04-2020 09:01:18 3.5 C 41 %
2210 06-04-2020 09:11:18 3.4 C 41 %
2211 06-04-2020 09:21:17 3.9 C 41 %
2212 06-04-2020 09:31:17 4.3 C 40 %
2213 06-04-2020 09:41:17 4.8 C 40 %
2214 06-04-2020 09:51:18 5.2 C 40 %
2215 06-04-2020 10:01:18 6 C 38 %
2216 06-04-2020 10:11:18 6.5 C 37 %
2217 06-04-2020 10:21:17 7.2 C 36 %
2218 06-04-2020 10:31:17 7.9 C 36 %
2219 06-04-2020 10:41:17 8.8 C 35 %
2220 06-04-2020 10:51:17 9.8 C 34 %
2221 06-04-2020 11:01:17 11.1 C 31 %
2222 06-04-2020 11:11:18 12.2 C 29 %
2223 06-04-2020 11:21:17 13.3 C 26 %
2224 06-04-2020 11:31:17 16 C 20 %
2225 06-04-2020 11:41:17 17.1 C 20 %
Sensor: Nr:Datum:Temp:Feuchte:
Aussen-T/F 2226 06-04-2020 11:51:18 17.6 C 20 %
2227 06-04-2020 12:01:18 18.1 C 20 %
2228 06-04-2020 12:11:18 18.6 C 20 %
2229 06-04-2020 12:21:17 20.3 C 20 %
2230 06-04-2020 12:31:17 21 C 20 %
2231 06-04-2020 12:41:17 19.4 C 20 %
2232 06-04-2020 12:51:17 20.2 C 20 %
2233 06-04-2020 13:01:17 20.6 C 20 %
2234 06-04-2020 13:11:17 20.8 C 20 %
2235 06-04-2020 13:21:17 20.4 C 20 %
2236 06-04-2020 13:31:18 20.3 C 20 %
2237 06-04-2020 13:41:18 21.2 C 20 %
2238 06-04-2020 13:51:17 21.3 C 20 %
2239 06-04-2020 14:01:18 22.3 C 20 %
2240 06-04-2020 14:11:18 22.3 C 20 %
2241 06-04-2020 14:21:17 23.7 C 20 %
2242 06-04-2020 14:31:17 26.8 C 20 %
2243 06-04-2020 14:41:17 27.4 C 20 %
2244 06-04-2020 14:51:18 28.3 C 20 %
2245 06-04-2020 15:01:17 28 C 20 %
2246 06-04-2020 15:11:17 26.6 C 20 %
2247 06-04-2020 15:21:17 27.1 C 20 %
2248 06-04-2020 15:31:17 25.8 C 20 %
2249 06-04-2020 15:41:17 26.9 C 20 %
2250 06-04-2020 15:51:17 27.9 C 20 %
Sensor: Nr:Datum:Temp:Feuchte:
Aussen-T/F 2251 06-04-2020 16:01:17 29.7 C 20 %
2252 06-04-2020 16:11:17 27.4 C 20 %
2253 06-04-2020 16:21:18 27.4 C 20 %
2254 06-04-2020 16:31:18 28.3 C 20 %
2255 06-04-2020 16:41:18 28.5 C 20 %
2256 06-04-2020 16:51:17 27.1 C 20 %
2257 06-04-2020 17:01:17 27.6 C 20 %
2258 06-04-2020 17:11:17 26 C 20 %
2259 06-04-2020 17:21:17 26.7 C 20 %
2260 06-04-2020 17:31:17 25.7 C 20 %
2261 06-04-2020 17:41:17 25.5 C 20 %
2262 06-04-2020 17:51:17 24.2 C 20 %
2263 06-04-2020 18:01:17 23.3 C 20 %
2264 06-04-2020 18:11:17 23.1 C 20 %
2265 06-04-2020 18:21:17 22.6 C 20 %
2266 06-04-2020 18:31:18 22.6 C 20 %
2267 06-04-2020 18:41:18 22.3 C 20 %
2268 06-04-2020 18:51:17 22 C 20 %
2269 06-04-2020 19:01:17 21.7 C 20 %
2270 06-04-2020 19:11:17 21.1 C 20 %
2271 06-04-2020 19:21:17 20.5 C 20 %
2272 06-04-2020 19:31:17 20.2 C 20 %
2273 06-04-2020 19:41:17 19.1 C 20 %
2274 06-04-2020 19:51:17 18.3 C 20 %
2275 06-04-2020 20:01:18 16.4 C 20 %
Sensor: Nr:Datum:Temp:Feuchte:
Aussen-T/F 2276 06-04-2020 20:11:18 16.3 C 20 %
2277 06-04-2020 20:21:17 15.8 C 20 %
2278 06-04-2020 20:31:17 15.3 C 20 %
2279 06-04-2020 20:41:18 15.1 C 20 %
2280 06-04-2020 20:51:17 13.7 C 20 %
2281 06-04-2020 21:01:18 13.2 C 20 %
2282 06-04-2020 21:11:18 12.9 C 20 %
2283 06-04-2020 21:21:17 12 C 20 %
2284 06-04-2020 21:31:18 11.8 C 22 %
2285 06-04-2020 21:41:18 11.6 C 22 %
2286 06-04-2020 21:51:17 11.1 C 22 %
2287 06-04-2020 22:01:17 10.8 C 25 %
2288 06-04-2020 22:11:17 10.6 C 25 %
2289 06-04-2020 22:21:17 10.2 C 25 %
2290 06-04-2020 22:31:17 10 C 26 %
2291 06-04-2020 22:41:17 10 C 26 %
2292 06-04-2020 22:51:17 9.9 C 26 %
2293 06-04-2020 23:01:18 9.8 C 26 %
2294 06-04-2020 23:11:18 9.6 C 26 %
2295 06-04-2020 23:21:17 9.5 C 27 %
2296 06-04-2020 23:31:17 9.4 C 27 %
2297 06-04-2020 23:41:17 9.2 C 27 %
2298 06-04-2020 23:51:17 9.5 C 29 %
2299 07-04-2020 00:01:17 10.2 C 26 %
2300 07-04-2020 00:11:17 9.1 C 29 %
Sensor: Nr:Datum:Temp:Feuchte:
Aussen-T/F 2301 07-04-2020 00:21:18 8.7 C 30 %
2302 07-04-2020 00:31:17 8.8 C 30 %
2303 07-04-2020 00:41:17 9 C 30 %
2304 07-04-2020 00:51:17 8.6 C 30 %
2305 07-04-2020 01:01:17 8.7 C 30 %
2306 07-04-2020 01:11:17 9.1 C 30 %
2307 07-04-2020 01:21:17 9.4 C 30 %
2308 07-04-2020 01:31:17 9.8 C 30 %
2309 07-04-2020 01:41:17 10.1 C 30 %
2310 07-04-2020 01:51:18 10 C 29 %
2311 07-04-2020 02:01:18 9.2 C 30 %
2312 07-04-2020 02:11:18 8.8 C 31 %
2313 07-04-2020 02:21:17 8.2 C 33 %
2314 07-04-2020 02:31:17 7.9 C 34 %
2315 07-04-2020 02:41:17 7.5 C 34 %
2316 07-04-2020 02:51:17 7.2 C 35 %
2317 07-04-2020 03:01:17 7.3 C 35 %
2318 07-04-2020 03:11:17 7.6 C 35 %
2319 07-04-2020 03:21:17 7.9 C 35 %
2320 07-04-2020 03:31:17 8 C 35 %
2321 07-04-2020 03:41:17 7.7 C 36 %
2322 07-04-2020 03:51:17 7.8 C 35 %
2323 07-04-2020 04:01:17 7.8 C 36 %
2324 07-04-2020 04:11:17 7.6 C 36 %
2325 07-04-2020 04:21:17 7.4 C 36 %
Sensor: Nr:Datum:Temp:Feuchte:
Aussen-T/F 2326 07-04-2020 04:31:17 7.2 C 36 %
2327 07-04-2020 04:41:18 6.9 C 37 %
2328 07-04-2020 04:51:17 6.8 C 37 %
2329 07-04-2020 05:01:17 6.3 C 38 %
2330 07-04-2020 05:11:17 6.1 C 38 %
2331 07-04-2020 05:21:18 5.9 C 40 %
2332 07-04-2020 05:31:17 5.8 C 40 %
2333 07-04-2020 05:41:17 5.7 C 40 %
2334 07-04-2020 05:51:17 5.6 C 41 %
2335 07-04-2020 06:01:17 5.6 C 41 %
2336 07-04-2020 06:11:17 5.2 C 40 %
2337 07-04-2020 06:21:17 5.3 C 41 %
2338 07-04-2020 06:31:17 5.2 C 41 %
2339 07-04-2020 06:41:17 5 C 41 %
2340 07-04-2020 06:51:17 4.8 C 42 %
2341 07-04-2020 07:01:18 4.8 C 43 %
2342 07-04-2020 07:11:18 4.7 C 43 %
2343 07-04-2020 07:21:18 4.8 C 44 %
2344 07-04-2020 07:31:17 5 C 43 %
2345 07-04-2020 07:41:18 5.7 C 43 %
2346 07-04-2020 07:51:17 5.8 C 42 %
2347 07-04-2020 08:01:17 5.7 C 41 %
2348 07-04-2020 08:11:18 5.8 C 41 %
2349 07-04-2020 08:21:17 6 C 41 %
2350 07-04-2020 08:31:17 6 C 41 %
Sensor: Nr:Datum:Temp:Feuchte:
Aussen-T/F 2351 07-04-2020 08:41:17 6.3 C 41 %
2352 07-04-2020 08:51:17 6.6 C 41 %
2353 07-04-2020 09:01:17 7.1 C 40 %
2354 07-04-2020 09:11:17 7.3 C 40 %
2355 07-04-2020 09:21:17 7.5 C 40 %
2356 07-04-2020 09:31:17 8 C 39 %
2357 07-04-2020 09:41:18 8.9 C 39 %
2358 07-04-2020 09:51:17 9.3 C 37 %
2359 07-04-2020 10:01:17 9.4 C 38 %
2360 07-04-2020 10:11:18 10 C 37 %
2361 07-04-2020 10:21:17 10.7 C 37 %
2362 07-04-2020 10:31:18 11.4 C 36 %
2363 07-04-2020 10:41:18 12.3 C 35 %
2364 07-04-2020 10:51:17 13.1 C 33 %
2365 07-04-2020 11:01:17 14 C 31 %
2366 07-04-2020 11:11:17 14.6 C 31 %
2367 07-04-2020 11:21:17 15.2 C 30 %
2368 07-04-2020 11:31:17 16 C 28 %
2369 07-04-2020 11:41:17 16.5 C 27 %
2370 07-04-2020 11:51:17 16.9 C 27 %
2371 07-04-2020 12:01:17 17.2 C 26 %
2372 07-04-2020 12:11:17 17.7 C 25 %
2373 07-04-2020 12:21:18 18.7 C 23 %
2374 07-04-2020 12:31:17 20.9 C 21 %
2375 07-04-2020 12:41:17 19.6 C 20 %
Sensor: Nr:Datum:Temp:Feuchte:
Aussen-T/F 2376 07-04-2020 12:51:18 19.6 C 20 %
2377 07-04-2020 13:01:17 20.7 C 20 %
2378 07-04-2020 13:11:17 21.3 C 20 %
2379 07-04-2020 13:21:17 20.8 C 20 %
2380 07-04-2020 13:31:17 19.8 C 20 %
2381 07-04-2020 13:41:17 20.4 C 20 %
2382 07-04-2020 13:51:18 20.6 C 20 %
2383 07-04-2020 14:01:17 21.1 C 20 %
2384 07-04-2020 14:11:17 22 C 20 %
2385 07-04-2020 14:21:17 23.6 C 20 %
2386 07-04-2020 14:31:17 26.2 C 20 %
2387 07-04-2020 14:41:17 22.9 C 20 %
2388 07-04-2020 14:51:17 26.7 C 20 %
2389 07-04-2020 15:01:17 26.4 C 20 %
2390 07-04-2020 15:11:17 27.1 C 20 %
2391 07-04-2020 15:21:17 30.1 C 20 %
2392 07-04-2020 15:31:17 28.4 C 20 %
2393 07-04-2020 15:41:18 27.2 C 20 %
2394 07-04-2020 15:51:17 26.6 C 20 %
2395 07-04-2020 16:01:17 27.4 C 20 %
2396 07-04-2020 16:11:17 25.1 C 20 %
2397 07-04-2020 16:21:17 27.8 C 20 %
2398 07-04-2020 16:31:17 23.9 C 20 %
2399 07-04-2020 16:41:18 24.3 C 20 %
2400 07-04-2020 16:51:18 29.2 C 20 %
Sensor: Nr:Datum:Temp:Feuchte:
Aussen-T/F 2401 07-04-2020 17:01:17 31 C 20 %
2402 07-04-2020 17:11:17 25 C 20 %
2403 07-04-2020 17:21:17 24.2 C 20 %
2404 07-04-2020 17:31:18 24.2 C 20 %
2405 07-04-2020 17:41:18 26.9 C 20 %
2406 07-04-2020 17:51:18 24.6 C 20 %
2407 07-04-2020 18:01:17 23.7 C 20 %
2408 07-04-2020 18:11:17 23.7 C 20 %
2409 07-04-2020 18:21:17 22.9 C 20 %
2410 07-04-2020 18:31:17 22.7 C 20 %
2411 07-04-2020 18:41:17 22.3 C 20 %
2412 07-04-2020 18:51:17 22 C 20 %
2413 07-04-2020 19:01:17 21.8 C 20 %
2414 07-04-2020 19:11:18 21 C 20 %
2415 07-04-2020 19:21:17 20 C 20 %
2416 07-04-2020 19:31:17 19.1 C 20 %
2417 07-04-2020 19:41:17 18.4 C 20 %
2418 07-04-2020 19:51:17 18.3 C 20 %
2419 07-04-2020 20:01:18 17.6 C 20 %
2420 07-04-2020 20:11:18 17.3 C 20 %
2421 07-04-2020 20:21:17 17.1 C 20 %
2422 07-04-2020 20:31:17 16.8 C 20 %
2423 07-04-2020 20:41:17 16.5 C 20 %
2424 07-04-2020 20:51:17 16.3 C 20 %
2425 07-04-2020 21:01:17 16.1 C 20 %
Sensor: Nr:Datum:Temp:Feuchte:
Aussen-T/F 2426 07-04-2020 21:11:17 15.9 C 20 %
2427 07-04-2020 21:21:18 15.8 C 20 %
2428 07-04-2020 21:31:17 15.4 C 21 %
2429 07-04-2020 21:41:17 15.2 C 21 %
2430 07-04-2020 21:51:17 15.1 C 22 %
2431 07-04-2020 22:01:18 14.6 C 25 %
2432 07-04-2020 22:11:18 13.1 C 27 %
2433 07-04-2020 22:21:17 12.9 C 29 %
2434 07-04-2020 22:31:17 12.7 C 30 %
2435 07-04-2020 22:41:17 12.7 C 30 %
2436 07-04-2020 22:51:18 12.7 C 30 %
2437 07-04-2020 23:01:18 12.7 C 30 %
2438 07-04-2020 23:11:18 12.6 C 30 %
2439 07-04-2020 23:21:17 13.1 C 29 %
2440 07-04-2020 23:31:17 12.8 C 30 %
2441 07-04-2020 23:41:17 12.8 C 30 %
2442 07-04-2020 23:51:17 12.3 C 31 %
2443 08-04-2020 00:01:17 11.7 C 33 %
2444 08-04-2020 00:11:17 11.7 C 33 %
2445 08-04-2020 00:21:17 11.5 C 33 %
2446 08-04-2020 00:31:17 11.5 C 33 %
2447 08-04-2020 00:41:17 11.2 C 34 %
2448 08-04-2020 00:51:18 10.8 C 35 %
2449 08-04-2020 01:01:17 10.8 C 36 %
2450 08-04-2020 01:11:17 10.9 C 35 %
Sensor: Nr:Datum:Temp:Feuchte:
Aussen-T/F 2451 08-04-2020 01:21:17 10.4 C 36 %
2452 08-04-2020 01:31:18 10.2 C 36 %
2453 08-04-2020 01:41:18 9.9 C 37 %
2454 08-04-2020 01:51:17 9.6 C 38 %
2455 08-04-2020 02:01:18 9.2 C 38 %
2456 08-04-2020 02:11:18 8.7 C 39 %
2457 08-04-2020 02:21:17 8.5 C 40 %
2458 08-04-2020 02:31:17 8.2 C 40 %
2459 08-04-2020 02:41:18 8 C 40 %
2460 08-04-2020 02:51:17 7.7 C 41 %
2461 08-04-2020 03:01:18 7.4 C 41 %
2462 08-04-2020 03:11:18 7.1 C 41 %
2463 08-04-2020 03:21:17 7.1 C 42 %
2464 08-04-2020 03:31:17 7.1 C 42 %
2465 08-04-2020 03:41:17 6.8 C 43 %
2466 08-04-2020 03:51:17 6.7 C 43 %
2467 08-04-2020 04:01:17 6.6 C 44 %
2468 08-04-2020 04:11:18 6.7 C 44 %
2469 08-04-2020 04:21:17 6.3 C 44 %
2470 08-04-2020 04:31:17 6.3 C 45 %
2471 08-04-2020 04:41:17 6.4 C 45 %
2472 08-04-2020 04:51:17 6.3 C 45 %
2473 08-04-2020 05:01:18 6.1 C 44 %
2474 08-04-2020 05:11:18 5.9 C 45 %
2475 08-04-2020 05:21:17 5.6 C 45 %
Sensor: Nr:Datum:Temp:Feuchte:
Aussen-T/F 2476 08-04-2020 05:31:17 5.4 C 45 %
2477 08-04-2020 05:41:18 5.4 C 45 %
2478 08-04-2020 05:51:17 5.4 C 46 %
2479 08-04-2020 06:01:17 5.3 C 46 %
2480 08-04-2020 06:11:17 5.4 C 46 %
2481 08-04-2020 06:21:17 5.3 C 46 %
2482 08-04-2020 06:31:17 5.3 C 46 %
2483 08-04-2020 06:41:17 5.1 C 46 %
2484 08-04-2020 06:51:18 5 C 46 %
2485 08-04-2020 07:01:18 5 C 46 %
2486 08-04-2020 07:11:18 5.1 C 46 %
2487 08-04-2020 07:21:17 5.2 C 46 %
2488 08-04-2020 07:31:17 5.3 C 46 %
2489 08-04-2020 07:41:17 5.4 C 46 %
2490 08-04-2020 07:51:17 5.8 C 46 %
2491 08-04-2020 08:01:17 5.7 C 46 %
2492 08-04-2020 08:11:17 6 C 46 %
2493 08-04-2020 08:21:17 6.3 C 46 %
2494 08-04-2020 08:31:18 6.3 C 46 %
2495 08-04-2020 08:41:18 6.5 C 46 %
2496 08-04-2020 08:51:18 6.7 C 46 %
2497 08-04-2020 09:01:18 7 C 45 %
2498 08-04-2020 09:11:18 7.1 C 45 %
2499 08-04-2020 09:21:17 7.6 C 45 %
2500 08-04-2020 09:31:17 7.9 C 45 %
Sensor: Nr:Datum:Temp:Feuchte:
Aussen-T/F 2501 08-04-2020 09:41:17 8.3 C 45 %
2502 08-04-2020 09:51:17 8.7 C 44 %
2503 08-04-2020 10:01:17 9.1 C 43 %
2504 08-04-2020 10:11:17 9.7 C 43 %
2505 08-04-2020 10:21:17 10.2 C 41 %
2506 08-04-2020 10:31:18 11 C 40 %
2507 08-04-2020 10:41:18 11.8 C 39 %
2508 08-04-2020 10:51:18 12.6 C 38 %
2509 08-04-2020 11:01:18 13.7 C 36 %
2510 08-04-2020 11:11:18 14.5 C 35 %
2511 08-04-2020 11:21:17 15.5 C 34 %
2512 08-04-2020 11:31:18 16.2 C 32 %
2513 08-04-2020 11:41:18 17.6 C 27 %
2514 08-04-2020 11:51:17 18.6 C 25 %
2515 08-04-2020 12:01:18 19.2 C 22 %
2516 08-04-2020 12:11:18 20.1 C 21 %
2517 08-04-2020 12:21:17 21.2 C 20 %
2518 08-04-2020 12:31:17 22.4 C 20 %
2519 08-04-2020 12:41:17 22.9 C 20 %
2520 08-04-2020 12:51:17 21.8 C 20 %
2521 08-04-2020 13:01:18 22.9 C 20 %
2522 08-04-2020 13:11:18 22.4 C 20 %
2523 08-04-2020 13:21:17 22.1 C 20 %
2524 08-04-2020 13:31:18 22.3 C 20 %
2525 08-04-2020 13:41:18 23.3 C 20 %
Sensor: Nr:Datum:Temp:Feuchte:
Aussen-T/F 2526 08-04-2020 13:51:17 22.6 C 20 %
2527 08-04-2020 14:01:18 23 C 20 %
2528 08-04-2020 14:11:18 23.7 C 20 %
2529 08-04-2020 14:21:17 24.8 C 20 %
2530 08-04-2020 14:31:18 28.3 C 20 %
2531 08-04-2020 14:41:18 28.9 C 20 %
2532 08-04-2020 14:51:17 28.7 C 20 %
2533 08-04-2020 15:01:17 28.7 C 20 %
2534 08-04-2020 15:11:17 30.1 C 20 %
2535 08-04-2020 15:21:18 29.3 C 20 %
2536 08-04-2020 15:31:17 29.5 C 20 %
2537 08-04-2020 15:41:17 29.1 C 20 %
2538 08-04-2020 15:51:17 32.2 C 20 %
2539 08-04-2020 16:01:17 31.1 C 20 %
2540 08-04-2020 16:11:17 29.7 C 20 %
2541 08-04-2020 16:21:18 30.7 C 20 %
2542 08-04-2020 16:31:17 29 C 20 %
2543 08-04-2020 16:41:17 32.6 C 20 %
2544 08-04-2020 16:51:17 29.7 C 20 %
2545 08-04-2020 17:01:17 29.4 C 20 %
2546 08-04-2020 17:11:17 29.7 C 20 %
2547 08-04-2020 17:21:17 30.1 C 20 %
2548 08-04-2020 17:31:17 30.1 C 20 %
2549 08-04-2020 17:41:17 29 C 20 %
2550 08-04-2020 17:51:17 28.1 C 20 %
Sensor: Nr:Datum:Temp:Feuchte:
Aussen-T/F 2551 08-04-2020 18:01:17 26.6 C 20 %
2552 08-04-2020 18:11:17 25.2 C 20 %
2553 08-04-2020 18:21:17 24.7 C 20 %
2554 08-04-2020 18:31:18 24.3 C 20 %
2555 08-04-2020 18:41:18 24.1 C 20 %
2556 08-04-2020 18:51:17 23.8 C 20 %
2557 08-04-2020 19:01:17 23.2 C 20 %
2558 08-04-2020 19:11:17 22.6 C 20 %
2559 08-04-2020 19:21:17 21.4 C 20 %
2560 08-04-2020 19:31:17 20.1 C 20 %
2561 08-04-2020 19:41:17 19.7 C 20 %
2562 08-04-2020 19:51:17 19.2 C 20 %
2563 08-04-2020 20:01:17 18.5 C 20 %
2564 08-04-2020 20:11:17 18 C 20 %
2565 08-04-2020 20:21:18 17.5 C 20 %
2566 08-04-2020 20:31:17 17 C 20 %
2567 08-04-2020 20:41:18 16.2 C 20 %
2568 08-04-2020 20:51:17 15.6 C 20 %
2569 08-04-2020 21:01:18 14.6 C 20 %
2570 08-04-2020 21:11:18 13.9 C 20 %
2571 08-04-2020 21:21:17 14.2 C 20 %
2572 08-04-2020 21:31:17 13.7 C 20 %
2573 08-04-2020 21:41:17 13.5 C 20 %
2574 08-04-2020 21:51:17 13.4 C 20 %
2575 08-04-2020 22:01:17 12.9 C 21 %
Sensor: Nr:Datum:Temp:Feuchte:
Aussen-T/F 2576 08-04-2020 22:11:18 12.7 C 21 %
2577 08-04-2020 22:21:17 12.5 C 24 %
2578 08-04-2020 22:31:17 12.2 C 25 %
2579 08-04-2020 22:41:17 11.8 C 26 %
2580 08-04-2020 22:51:18 11.6 C 26 %
2581 08-04-2020 23:01:17 12 C 25 %
2582 08-04-2020 23:11:17 11.5 C 26 %
2583 08-04-2020 23:21:17 10.9 C 28 %
2584 08-04-2020 23:31:17 10.5 C 29 %
2585 08-04-2020 23:41:17 10.7 C 28 %
2586 08-04-2020 23:51:17 11.2 C 28 %
2587 09-04-2020 00:01:18 10.7 C 29 %
2588 09-04-2020 00:11:18 10.7 C 29 %
2589 09-04-2020 00:21:17 10.3 C 30 %
2590 09-04-2020 00:31:18 10 C 30 %
2591 09-04-2020 00:41:18 10.5 C 30 %
2592 09-04-2020 00:51:17 10.5 C 30 %
2593 09-04-2020 01:01:17 10 C 30 %
2594 09-04-2020 01:11:17 9.6 C 31 %
2595 09-04-2020 01:21:17 9.2 C 32 %
2596 09-04-2020 01:31:17 9.9 C 33 %
2597 09-04-2020 01:41:17 9.3 C 33 %
2598 09-04-2020 01:51:17 9.6 C 33 %
2599 09-04-2020 02:01:17 8.8 C 35 %
2600 09-04-2020 02:11:17 9.1 C 34 %
Sensor: Nr:Datum:Temp:Feuchte:
Aussen-T/F 2601 09-04-2020 02:21:18 9 C 34 %
2602 09-04-2020 02:31:18 8.8 C 35 %
2603 09-04-2020 02:41:18 8.7 C 35 %
2604 09-04-2020 02:51:17 8.8 C 35 %
2605 09-04-2020 03:01:17 9.2 C 34 %
2606 09-04-2020 03:11:17 9.7 C 33 %
2607 09-04-2020 03:21:17 9.5 C 33 %
2608 09-04-2020 03:31:17 9.4 C 34 %
2609 09-04-2020 03:41:17 9.5 C 34 %
2610 09-04-2020 03:51:17 10.2 C 32 %
2611 09-04-2020 04:01:17 9.9 C 34 %
2612 09-04-2020 04:11:17 10.1 C 33 %
2613 09-04-2020 04:21:17 10 C 33 %
2614 09-04-2020 04:31:18 9.4 C 34 %
2615 09-04-2020 04:41:18 9.3 C 35 %
2616 09-04-2020 04:51:17 8.9 C 35 %
2617 09-04-2020 05:01:17 8.7 C 36 %
2618 09-04-2020 05:11:17 8.6 C 35 %
2619 09-04-2020 05:21:17 8.5 C 36 %
2620 09-04-2020 05:31:18 8.2 C 36 %
2621 09-04-2020 05:41:18 8.1 C 36 %
2622 09-04-2020 05:51:17 8.1 C 37 %
2623 09-04-2020 06:01:18 8.1 C 37 %
2624 09-04-2020 06:11:18 7.7 C 38 %
2625 09-04-2020 06:21:17 7.1 C 38 %
Sensor: Nr:Datum:Temp:Feuchte:
Aussen-T/F 2626 09-04-2020 06:31:17 7 C 38 %
2627 09-04-2020 06:41:17 6.6 C 39 %
2628 09-04-2020 06:51:17 6.8 C 40 %
2629 09-04-2020 07:01:17 6.9 C 40 %
2630 09-04-2020 07:11:17 7.3 C 39 %
2631 09-04-2020 07:21:17 7.3 C 39 %
2632 09-04-2020 07:31:17 7 C 39 %
2633 09-04-2020 07:41:17 6.9 C 40 %
2634 09-04-2020 07:51:17 7 C 40 %
2635 09-04-2020 08:01:17 7 C 40 %
2636 09-04-2020 08:11:17 7.3 C 40 %
2637 09-04-2020 08:21:18 7.4 C 40 %
2638 09-04-2020 08:31:17 7.6 C 40 %
2639 09-04-2020 08:41:17 8 C 39 %
2640 09-04-2020 08:51:17 8.3 C 39 %
2641 09-04-2020 09:01:17 8.5 C 38 %
2642 09-04-2020 09:11:17 8.7 C 39 %
2643 09-04-2020 09:21:17 9 C 38 %
2644 09-04-2020 09:31:17 9.3 C 38 %
2645 09-04-2020 09:41:17 9.8 C 37 %
2646 09-04-2020 09:51:17 10.4 C 36 %
2647 09-04-2020 10:01:17 10.8 C 36 %
2648 09-04-2020 10:11:17 11.2 C 35 %
2649 09-04-2020 10:21:17 11.8 C 35 %
2650 09-04-2020 10:31:17 12.6 C 34 %
Sensor: Nr:Datum:Temp:Feuchte:
Aussen-T/F 2651 09-04-2020 10:41:17 13.3 C 32 %
2652 09-04-2020 10:51:18 14.6 C 31 %
2653 09-04-2020 11:01:17 15.4 C 30 %
2654 09-04-2020 11:11:18 16.2 C 28 %
2655 09-04-2020 11:21:17 17 C 25 %
2656 09-04-2020 11:31:17 17.9 C 23 %
2657 09-04-2020 11:41:17 18.5 C 21 %
2658 09-04-2020 11:51:18 19 C 20 %
2659 09-04-2020 12:01:17 19.3 C 20 %
2660 09-04-2020 12:11:17 19.8 C 20 %
2661 09-04-2020 12:21:17 20.7 C 20 %
2662 09-04-2020 12:31:17 22 C 20 %
2663 09-04-2020 12:41:17 23 C 20 %
2664 09-04-2020 12:51:18 22.3 C 20 %
2665 09-04-2020 13:01:17 23.2 C 20 %
2666 09-04-2020 13:11:17 23.3 C 20 %
2667 09-04-2020 13:21:17 22.9 C 20 %
2668 09-04-2020 13:31:17 22.4 C 20 %
2669 09-04-2020 13:41:18 22.6 C 20 %
2670 09-04-2020 13:51:17 22.8 C 20 %
2671 09-04-2020 14:01:17 24.1 C 20 %
2672 09-04-2020 14:11:17 23.8 C 20 %
2673 09-04-2020 14:21:17 24.3 C 20 %
2674 09-04-2020 14:31:17 26.8 C 20 %
2675 09-04-2020 14:41:17 28 C 20 %
Sensor: Nr:Datum:Temp:Feuchte:
Aussen-T/F 2676 09-04-2020 14:51:17 29.2 C 20 %
2677 09-04-2020 15:01:17 28.6 C 20 %
2678 09-04-2020 15:11:17 31.7 C 20 %
2679 09-04-2020 15:21:17 28.2 C 20 %
2680 09-04-2020 15:31:18 28.7 C 20 %
2681 09-04-2020 15:41:18 28.4 C 20 %
2682 09-04-2020 15:51:17 30.1 C 20 %
2683 09-04-2020 16:01:18 29.2 C 20 %
2684 09-04-2020 16:11:18 29.3 C 20 %
2685 09-04-2020 16:21:17 31.4 C 20 %
2686 09-04-2020 16:31:17 28.8 C 20 %
2687 09-04-2020 16:41:17 28.8 C 20 %
2688 09-04-2020 16:51:17 29.2 C 20 %
2689 09-04-2020 17:01:17 28.7 C 20 %
2690 09-04-2020 17:11:17 28.4 C 20 %
2691 09-04-2020 17:21:17 29.8 C 20 %
2692 09-04-2020 17:31:17 28 C 20 %
2693 09-04-2020 17:41:17 27.6 C 20 %
2694 09-04-2020 17:51:18 27.1 C 20 %
2695 09-04-2020 18:01:18 25.2 C 20 %
2696 09-04-2020 18:11:18 24 C 20 %
2697 09-04-2020 18:21:17 23.7 C 20 %
2698 09-04-2020 18:31:17 23.4 C 20 %
2699 09-04-2020 18:41:17 23.5 C 20 %
2700 09-04-2020 18:51:17 22.9 C 20 %
Sensor: Nr:Datum:Temp:Feuchte:
Aussen-T/F 2701 09-04-2020 19:01:18 22.7 C 20 %
2702 09-04-2020 19:11:18 22.4 C 20 %
2703 09-04-2020 19:21:17 21.8 C 20 %
2704 09-04-2020 19:31:17 21.1 C 20 %
2705 09-04-2020 19:41:17 20.6 C 20 %
2706 09-04-2020 19:51:17 20.1 C 20 %
2707 09-04-2020 20:01:17 19.7 C 20 %
2708 09-04-2020 20:11:17 17.9 C 20 %
2709 09-04-2020 20:21:17 16.6 C 20 %
2710 09-04-2020 20:31:17 16.6 C 20 %
2711 09-04-2020 20:41:17 16.1 C 21 %
2712 09-04-2020 20:51:17 16.4 C 20 %
2713 09-04-2020 21:01:17 16.2 C 20 %
2714 09-04-2020 21:11:17 16.4 C 20 %
2715 09-04-2020 21:21:17 16.5 C 20 %
2716 09-04-2020 21:31:17 15.9 C 21 %
2717 09-04-2020 21:41:17 15.4 C 22 %
2718 09-04-2020 21:51:17 15.5 C 22 %
2719 09-04-2020 22:01:17 15.5 C 22 %
2720 09-04-2020 22:11:17 15.2 C 22 %
2721 09-04-2020 22:21:17 15.1 C 22 %
2722 09-04-2020 22:31:18 14.8 C 24 %
2723 09-04-2020 22:41:18 14.6 C 25 %
2724 09-04-2020 22:51:17 14.3 C 25 %
2725 09-04-2020 23:01:18 14.2 C 25 %
Sensor: Nr:Datum:Temp:Feuchte:
Aussen-T/F 2726 09-04-2020 23:11:18 14.2 C 25 %
2727 09-04-2020 23:21:17 13.6 C 26 %
2728 09-04-2020 23:31:17 13.8 C 26 %
2729 09-04-2020 23:41:18 13.7 C 26 %
2730 09-04-2020 23:51:17 12.7 C 28 %
2731 10-04-2020 00:01:17 12.7 C 29 %
2732 10-04-2020 00:11:17 11.7 C 31 %
2733 10-04-2020 00:21:18 11.8 C 31 %
2734 10-04-2020 00:31:18 11.1 C 32 %
2735 10-04-2020 00:41:18 10.7 C 34 %
2736 10-04-2020 00:51:17 10.5 C 34 %
2737 10-04-2020 01:01:17 10.1 C 35 %
2738 10-04-2020 01:11:17 10 C 35 %
2739 10-04-2020 01:21:17 9.7 C 36 %
2740 10-04-2020 01:31:17 9.6 C 36 %
2741 10-04-2020 01:41:17 9.5 C 36 %
2742 10-04-2020 01:51:17 9 C 36 %
2743 10-04-2020 02:01:17 9.2 C 36 %
2744 10-04-2020 02:11:17 8.9 C 37 %
2745 10-04-2020 02:21:18 8.7 C 37 %
2746 10-04-2020 02:31:18 8.6 C 37 %
2747 10-04-2020 02:41:18 8.3 C 38 %
2748 10-04-2020 02:51:17 8.2 C 38 %
2749 10-04-2020 03:01:18 8.3 C 38 %
2750 10-04-2020 03:11:18 7.9 C 39 %
Sensor: Nr:Datum:Temp:Feuchte:
Aussen-T/F 2751 10-04-2020 03:21:17 7.6 C 39 %
2752 10-04-2020 03:31:17 7.4 C 40 %
2753 10-04-2020 03:41:17 7.2 C 40 %
2754 10-04-2020 03:51:17 7.1 C 40 %
2755 10-04-2020 04:01:18 7 C 40 %
2756 10-04-2020 04:11:18 6.8 C 41 %
2757 10-04-2020 04:21:17 6.9 C 41 %
2758 10-04-2020 04:31:17 6.6 C 41 %
2759 10-04-2020 04:41:17 6.6 C 41 %
2760 10-04-2020 04:51:18 6.6 C 41 %
2761 10-04-2020 05:01:17 6.3 C 41 %
2762 10-04-2020 05:11:17 6.3 C 42 %
2763 10-04-2020 05:21:18 6.4 C 42 %
2764 10-04-2020 05:31:17 6.2 C 42 %
2765 10-04-2020 05:41:17 5.9 C 43 %
2766 10-04-2020 05:51:17 5.7 C 43 %
2767 10-04-2020 06:01:17 5.8 C 44 %
2768 10-04-2020 06:11:17 5.8 C 44 %
2769 10-04-2020 06:21:17 5.6 C 44 %
2770 10-04-2020 06:31:18 5.4 C 44 %
2771 10-04-2020 06:41:18 5.4 C 44 %
2772 10-04-2020 06:51:17 5.4 C 44 %
2773 10-04-2020 07:01:18 5.3 C 44 %
2774 10-04-2020 07:11:18 5.3 C 45 %
2775 10-04-2020 07:21:17 5.3 C 45 %
Sensor: Nr:Datum:Temp:Feuchte:
Aussen-T/F 2776 10-04-2020 07:31:18 5.3 C 45 %
2777 10-04-2020 07:41:18 5.3 C 45 %
2778 10-04-2020 07:51:17 5.9 C 46 %
2779 10-04-2020 08:01:17 5.8 C 45 %
2780 10-04-2020 08:11:17 5.8 C 45 %
2781 10-04-2020 08:21:17 6 C 44 %
2782 10-04-2020 08:31:17 6.1 C 45 %
2783 10-04-2020 08:41:17 6.2 C 44 %
2784 10-04-2020 08:51:17 6.5 C 45 %
2785 10-04-2020 09:01:17 6.9 C 45 %
2786 10-04-2020 09:11:17 7.8 C 42 %
2787 10-04-2020 09:21:18 8.2 C 41 %
2788 10-04-2020 09:31:18 8.5 C 40 %
2789 10-04-2020 09:41:18 9.1 C 39 %
2790 10-04-2020 09:51:17 9.4 C 39 %
2791 10-04-2020 10:01:17 9.9 C 38 %
2792 10-04-2020 10:11:17 10.2 C 37 %
2793 10-04-2020 10:21:17 10.8 C 37 %
2794 10-04-2020 10:31:17 11.6 C 36 %
2795 10-04-2020 10:41:17 12.3 C 35 %
2796 10-04-2020 10:51:17 13.4 C 33 %
2797 10-04-2020 11:01:17 14 C 31 %
2798 10-04-2020 11:11:17 14.7 C 31 %
2799 10-04-2020 11:21:17 15.9 C 28 %
2800 10-04-2020 11:31:17 16.3 C 27 %
Sensor: Nr:Datum:Temp:Feuchte:
Aussen-T/F 2801 10-04-2020 11:41:17 16.8 C 26 %
2802 10-04-2020 11:51:17 17.5 C 25 %
2803 10-04-2020 12:01:17 17.9 C 24 %
2804 10-04-2020 12:11:17 18.4 C 21 %
2805 10-04-2020 12:21:17 19.2 C 20 %
2806 10-04-2020 12:31:17 19.7 C 20 %
2807 10-04-2020 12:41:17 20.6 C 20 %
2808 10-04-2020 12:51:17 20.4 C 20 %
2809 10-04-2020 13:01:17 20.8 C 20 %
2810 10-04-2020 13:11:17 20.2 C 20 %
2811 10-04-2020 13:21:17 20.4 C 20 %
2812 10-04-2020 13:31:17 20.2 C 20 %
2813 10-04-2020 13:41:17 20.4 C 20 %
2814 10-04-2020 13:51:17 20.7 C 20 %
2815 10-04-2020 14:01:17 21.7 C 20 %
2816 10-04-2020 14:11:17 21.6 C 20 %
2817 10-04-2020 14:21:18 22 C 20 %
2818 10-04-2020 14:31:18 25.1 C 20 %
2819 10-04-2020 14:41:18 29.1 C 20 %
2820 10-04-2020 14:51:17 27.6 C 20 %
2821 10-04-2020 15:01:17 27.9 C 20 %
2822 10-04-2020 15:11:17 31.6 C 20 %
2823 10-04-2020 15:21:17 30.1 C 20 %
2824 10-04-2020 15:31:17 30.5 C 20 %
2825 10-04-2020 15:41:17 30.2 C 20 %
Sensor: Nr:Datum:Temp:Feuchte:
Aussen-T/F 2826 10-04-2020 15:51:17 29.1 C 20 %
2827 10-04-2020 16:01:17 29.8 C 20 %
2828 10-04-2020 16:11:17 30.3 C 20 %
2829 10-04-2020 16:21:17 28.8 C 20 %
2830 10-04-2020 16:31:17 29.1 C 20 %
2831 10-04-2020 16:41:17 28.3 C 20 %
2832 10-04-2020 16:51:17 30.8 C 20 %
2833 10-04-2020 17:01:17 29.6 C 20 %
2834 10-04-2020 17:11:17 28.8 C 20 %
2835 10-04-2020 17:21:17 26.8 C 20 %
2836 10-04-2020 17:31:17 28.5 C 20 %
2837 10-04-2020 17:41:17 27.6 C 20 %
2838 10-04-2020 17:51:18 26.4 C 20 %
2839 10-04-2020 18:01:17 23.6 C 20 %
2840 10-04-2020 18:11:17 23 C 20 %
2841 10-04-2020 18:21:18 22.5 C 20 %
2842 10-04-2020 18:31:18 22.2 C 20 %
2843 10-04-2020 18:41:18 22.3 C 20 %
2844 10-04-2020 18:51:17 22 C 20 %
2845 10-04-2020 19:01:17 21.6 C 20 %
2846 10-04-2020 19:11:17 21.4 C 20 %
2847 10-04-2020 19:21:17 21.1 C 20 %
2848 10-04-2020 19:31:17 20.9 C 20 %
2849 10-04-2020 19:41:17 20.7 C 20 %
2850 10-04-2020 19:51:18 20.2 C 20 %
Sensor: Nr:Datum:Temp:Feuchte:
Aussen-T/F 2851 10-04-2020 20:01:17 19.6 C 20 %
2852 10-04-2020 20:11:17 18.5 C 20 %
2853 10-04-2020 20:21:18 16 C 20 %
2854 10-04-2020 20:31:17 15.9 C 20 %
2855 10-04-2020 20:41:17 15.3 C 20 %
2856 10-04-2020 20:51:17 15 C 20 %
2857 10-04-2020 21:01:17 15.3 C 20 %
2858 10-04-2020 21:11:17 14.7 C 20 %
2859 10-04-2020 21:21:17 14.3 C 21 %
2860 10-04-2020 21:31:17 13.8 C 21 %
2861 10-04-2020 21:41:17 14.2 C 21 %
2862 10-04-2020 21:51:17 14.3 C 21 %
2863 10-04-2020 22:01:18 14.5 C 21 %
2864 10-04-2020 22:11:18 14.9 C 20 %
2865 10-04-2020 22:21:18 14.5 C 22 %
2866 10-04-2020 22:31:17 14.5 C 22 %
2867 10-04-2020 22:41:17 13.9 C 24 %
2868 10-04-2020 22:51:17 13.1 C 25 %
2869 10-04-2020 23:01:17 12.7 C 25 %
2870 10-04-2020 23:11:17 12.8 C 25 %
2871 10-04-2020 23:21:17 12 C 26 %
2872 10-04-2020 23:31:17 12.2 C 26 %
2873 10-04-2020 23:41:17 11.2 C 28 %
2874 10-04-2020 23:51:17 11.1 C 29 %
2875 11-04-2020 00:01:18 10.5 C 30 %
Sensor: Nr:Datum:Temp:Feuchte:
Aussen-T/F 2876 11-04-2020 00:11:18 10.8 C 30 %
2877 11-04-2020 00:21:17 10.8 C 30 %
2878 11-04-2020 00:31:17 10.1 C 31 %
2879 11-04-2020 00:41:18 9.9 C 32 %
2880 11-04-2020 00:51:18 10 C 31 %
2881 11-04-2020 01:01:17 9.6 C 31 %
2882 11-04-2020 01:11:17 9.6 C 32 %
2883 11-04-2020 01:21:17 9.1 C 32 %
2884 11-04-2020 01:31:18 9.2 C 32 %
2885 11-04-2020 01:41:18 9 C 32 %
2886 11-04-2020 01:51:18 8.7 C 32 %
2887 11-04-2020 02:01:17 8.4 C 32 %
2888 11-04-2020 02:11:17 8.2 C 32 %
2889 11-04-2020 02:21:18 8.1 C 32 %
2890 11-04-2020 02:31:17 8.3 C 32 %
2891 11-04-2020 02:41:17 8.1 C 32 %
2892 11-04-2020 02:51:17 7.9 C 33 %
2893 11-04-2020 03:01:17 8.5 C 31 %
2894 11-04-2020 03:11:17 8.7 C 31 %
2895 11-04-2020 03:21:17 8.8 C 30 %
2896 11-04-2020 03:31:18 8.8 C 30 %
2897 11-04-2020 03:41:18 8.2 C 30 %
2898 11-04-2020 03:51:17 8.6 C 30 %
2899 11-04-2020 04:01:17 8.3 C 30 %
2900 11-04-2020 04:11:17 8.3 C 30 %
Sensor: Nr:Datum:Temp:Feuchte:
Aussen-T/F 2901 11-04-2020 04:21:17 7.7 C 30 %
2902 11-04-2020 04:31:17 7.4 C 30 %
2903 11-04-2020 04:41:17 7.5 C 30 %
2904 11-04-2020 04:51:17 7.6 C 29 %
2905 11-04-2020 05:01:17 7.4 C 29 %
2906 11-04-2020 05:11:17 6.9 C 30 %
2907 11-04-2020 05:21:17 6.8 C 30 %
2908 11-04-2020 05:31:18 6.1 C 31 %
2909 11-04-2020 05:41:18 5.8 C 32 %
2910 11-04-2020 05:51:17 5.7 C 32 %
2911 11-04-2020 06:01:17 5.6 C 32 %
2912 11-04-2020 06:11:17 5 C 33 %
2913 11-04-2020 06:21:17 4.9 C 35 %
2914 11-04-2020 06:31:18 5 C 33 %
2915 11-04-2020 06:41:18 4.6 C 35 %
2916 11-04-2020 06:51:17 4.6 C 35 %
2917 11-04-2020 07:01:18 4.4 C 35 %
2918 11-04-2020 07:11:18 4.5 C 35 %
2919 11-04-2020 07:21:17 4.4 C 35 %
2920 11-04-2020 07:31:18 4.4 C 36 %
2921 11-04-2020 07:41:18 4.7 C 35 %
2922 11-04-2020 07:51:17 5 C 34 %
2923 11-04-2020 08:01:18 5 C 34 %
2924 11-04-2020 08:11:18 5 C 35 %
2925 11-04-2020 08:21:18 5.1 C 35 %
Sensor: Nr:Datum:Temp:Feuchte:
Aussen-T/F 2926 11-04-2020 08:31:18 5.5 C 34 %
2927 11-04-2020 08:41:18 6 C 33 %
2928 11-04-2020 08:51:18 6.4 C 32 %
2929 11-04-2020 09:01:17 6.5 C 33 %
2930 11-04-2020 09:11:18 7.1 C 31 %
2931 11-04-2020 09:21:17 7.3 C 31 %
2932 11-04-2020 09:31:18 7.8 C 31 %
2933 11-04-2020 09:41:18 8.2 C 30 %
2934 11-04-2020 09:51:17 8.6 C 30 %
2935 11-04-2020 10:01:17 9.1 C 29 %
2936 11-04-2020 10:11:17 9.5 C 29 %
2937 11-04-2020 10:21:17 10.2 C 26 %
2938 11-04-2020 10:31:17 10.7 C 27 %
2939 11-04-2020 10:41:17 11.5 C 25 %
2940 11-04-2020 10:51:17 12.3 C 21 %
2941 11-04-2020 11:01:18 12.9 C 20 %
2942 11-04-2020 11:11:18 13.7 C 20 %
2943 11-04-2020 11:21:17 14.5 C 20 %
2944 11-04-2020 11:31:17 15.3 C 20 %
2945 11-04-2020 11:41:18 16 C 20 %
2946 11-04-2020 11:51:17 16.5 C 20 %
2947 11-04-2020 12:01:17 17.2 C 20 %
2948 11-04-2020 12:11:17 17.5 C 20 %
2949 11-04-2020 12:21:18 18.1 C 20 %
2950 11-04-2020 12:31:17 19.1 C 20 %
Sensor: Nr:Datum:Temp:Feuchte:
Aussen-T/F 2951 11-04-2020 12:41:17 19.4 C 20 %
2952 11-04-2020 12:51:17 19.5 C 20 %
2953 11-04-2020 13:01:17 19.6 C 20 %
2954 11-04-2020 13:11:17 19.5 C 20 %
2955 11-04-2020 13:21:17 19.5 C 20 %
2956 11-04-2020 13:31:17 19.6 C 20 %
2957 11-04-2020 13:41:17 19.9 C 20 %
2958 11-04-2020 13:51:17 20.2 C 20 %
2959 11-04-2020 14:01:18 20.9 C 20 %
2960 11-04-2020 14:11:18 21.3 C 20 %
2961 11-04-2020 14:21:17 21.5 C 20 %
2962 11-04-2020 14:31:17 24.4 C 20 %
2963 11-04-2020 14:41:17 27.5 C 20 %
2964 11-04-2020 14:51:18 27.4 C 20 %
2965 11-04-2020 15:01:18 28.6 C 20 %
2966 11-04-2020 15:11:18 30.4 C 20 %
2967 11-04-2020 15:21:17 29.9 C 20 %
2968 11-04-2020 15:31:17 30.4 C 20 %
2969 11-04-2020 15:41:17 31.2 C 20 %
2970 11-04-2020 15:51:18 31.8 C 20 %
2971 11-04-2020 16:01:17 28.5 C 20 %
2972 11-04-2020 16:11:17 31.4 C 20 %
2973 11-04-2020 16:21:18 30.7 C 20 %
2974 11-04-2020 16:31:17 31.5 C 20 %
2975 11-04-2020 16:41:17 31.3 C 20 %
Sensor: Nr:Datum:Temp:Feuchte:
Aussen-T/F 2976 11-04-2020 16:51:17 32.1 C 20 %
2977 11-04-2020 17:01:17 31.8 C 20 %
2978 11-04-2020 17:11:17 29.5 C 20 %
2979 11-04-2020 17:21:17 29.8 C 20 %
2980 11-04-2020 17:31:17 28.7 C 20 %
2981 11-04-2020 17:41:17 26.5 C 20 %
2982 11-04-2020 17:51:17 27.5 C 20 %
2983 11-04-2020 18:01:17 24.2 C 20 %
2984 11-04-2020 18:11:17 23.4 C 20 %
2985 11-04-2020 18:21:17 23.6 C 20 %
2986 11-04-2020 18:31:17 23.6 C 20 %
2987 11-04-2020 18:41:17 23.3 C 20 %
2988 11-04-2020 18:51:17 22.9 C 20 %
2989 11-04-2020 19:01:17 22.9 C 20 %
2990 11-04-2020 19:11:17 22.7 C 20 %
2991 11-04-2020 19:21:18 22 C 20 %
2992 11-04-2020 19:31:17 21.7 C 20 %
2993 11-04-2020 19:41:17 21.2 C 20 %
2994 11-04-2020 19:51:17 18.9 C 20 %
2995 11-04-2020 20:01:17 18 C 20 %
2996 11-04-2020 20:11:17 17.1 C 20 %
2997 11-04-2020 20:21:17 16.6 C 20 %
2998 11-04-2020 20:31:17 16.5 C 20 %
2999 11-04-2020 20:41:17 16.5 C 20 %
3000 11-04-2020 20:51:17 16.2 C 20 %
Sensor: Nr:Datum:Temp:Feuchte:
Aussen-T/F 3001 11-04-2020 21:01:18 16 C 20 %
3002 11-04-2020 21:11:18 15.5 C 20 %
3003 11-04-2020 21:21:18 15.4 C 20 %
3004 11-04-2020 21:31:17 15.1 C 20 %
3005 11-04-2020 21:41:17 14.8 C 20 %
3006 11-04-2020 21:51:17 14.5 C 20 %
3007 11-04-2020 22:01:17 14.3 C 20 %
3008 11-04-2020 22:11:17 14.4 C 20 %
3009 11-04-2020 22:21:17 14 C 20 %
3010 11-04-2020 22:31:18 14 C 21 %
3011 11-04-2020 22:41:18 14.4 C 21 %
3012 11-04-2020 22:51:17 14.4 C 22 %
3013 11-04-2020 23:01:17 13.7 C 23 %
3014 11-04-2020 23:11:17 13 C 24 %
3015 11-04-2020 23:21:18 12.3 C 26 %
3016 11-04-2020 23:31:18 12.1 C 26 %
3017 11-04-2020 23:41:18 11.8 C 27 %
3018 11-04-2020 23:51:17 11.7 C 28 %
3019 12-04-2020 00:01:17 11.6 C 29 %
3020 12-04-2020 00:11:17 11.3 C 28 %
3021 12-04-2020 00:21:17 11.3 C 29 %
3022 12-04-2020 00:31:17 11.5 C 29 %
3023 12-04-2020 00:41:17 11.6 C 29 %
3024 12-04-2020 00:51:17 11.4 C 28 %
3025 12-04-2020 01:01:17 11.3 C 28 %
Sensor: Nr:Datum:Temp:Feuchte:
Aussen-T/F 3026 12-04-2020 01:11:17 11 C 28 %
3027 12-04-2020 01:21:17 10.6 C 29 %
3028 12-04-2020 01:31:18 10.3 C 29 %
3029 12-04-2020 01:41:18 10.2 C 30 %
3030 12-04-2020 01:51:17 10.6 C 29 %
3031 12-04-2020 02:01:18 10.8 C 30 %
3032 12-04-2020 02:11:18 10.7 C 31 %
3033 12-04-2020 02:21:18 10.3 C 31 %
3034 12-04-2020 02:31:17 10.4 C 30 %
3035 12-04-2020 02:41:17 10.2 C 31 %
3036 12-04-2020 02:51:17 10.1 C 31 %
3037 12-04-2020 03:01:17 10.3 C 31 %
3038 12-04-2020 03:11:17 10.2 C 31 %
3039 12-04-2020 03:21:17 10.1 C 32 %
3040 12-04-2020 03:31:17 10 C 32 %
3041 12-04-2020 03:41:18 9.9 C 33 %
3042 12-04-2020 03:51:17 10 C 32 %
3043 12-04-2020 04:01:17 9.8 C 33 %
3044 12-04-2020 04:11:17 9.7 C 33 %
3045 12-04-2020 04:21:17 8.9 C 35 %
3046 12-04-2020 04:31:17 8.8 C 34 %
3047 12-04-2020 04:41:17 8.9 C 35 %
3048 12-04-2020 04:51:17 8.5 C 35 %
3049 12-04-2020 05:01:18 8.2 C 36 %
3050 12-04-2020 05:11:18 8.4 C 36 %
Sensor: Nr:Datum:Temp:Feuchte:
Aussen-T/F 3051 12-04-2020 05:21:17 8.5 C 36 %
3052 12-04-2020 05:31:17 8.2 C 36 %
3053 12-04-2020 05:41:17 8 C 36 %
3054 12-04-2020 05:51:17 7.6 C 37 %
3055 12-04-2020 06:01:17 7.7 C 37 %
3056 12-04-2020 06:11:17 7.5 C 38 %
3057 12-04-2020 06:21:17 7.2 C 38 %
3058 12-04-2020 06:31:17 7.1 C 39 %
3059 12-04-2020 06:41:17 7.2 C 39 %
3060 12-04-2020 06:51:17 7.3 C 39 %
3061 12-04-2020 07:01:17 6.9 C 39 %
3062 12-04-2020 07:11:17 6.7 C 40 %
3063 12-04-2020 07:21:17 6.5 C 40 %
3064 12-04-2020 07:31:17 6.7 C 40 %
3065 12-04-2020 07:41:17 7.1 C 40 %
3066 12-04-2020 07:51:18 7 C 40 %
3067 12-04-2020 08:01:17 7.3 C 40 %
3068 12-04-2020 08:11:17 7.5 C 40 %
3069 12-04-2020 08:21:17 7.5 C 40 %
3070 12-04-2020 08:31:17 7.6 C 40 %
3071 12-04-2020 08:41:18 7.9 C 40 %
3072 12-04-2020 08:51:17 8.2 C 40 %
3073 12-04-2020 09:01:18 8.8 C 39 %
3074 12-04-2020 09:11:18 9.2 C 38 %
3075 12-04-2020 09:21:17 9.5 C 38 %
Sensor: Nr:Datum:Temp:Feuchte:
Aussen-T/F 3076 12-04-2020 09:31:17 10 C 37 %
3077 12-04-2020 09:41:17 10.1 C 37 %
3078 12-04-2020 09:51:17 11 C 36 %
3079 12-04-2020 10:01:17 11.3 C 36 %
3080 12-04-2020 10:11:17 11.7 C 35 %
3081 12-04-2020 10:21:17 12.2 C 35 %
3082 12-04-2020 10:31:18 13.2 C 33 %
3083 12-04-2020 10:41:18 14.4 C 31 %
3084 12-04-2020 10:51:17 14.9 C 31 %
3085 12-04-2020 11:01:17 15.6 C 30 %
3086 12-04-2020 11:11:17 17 C 27 %
3087 12-04-2020 11:21:17 17.6 C 27 %
3088 12-04-2020 11:31:17 18 C 26 %
3089 12-04-2020 11:41:17 18.5 C 24 %
3090 12-04-2020 11:51:17 19.1 C 20 %
3091 12-04-2020 12:01:17 20.6 C 20 %
3092 12-04-2020 12:11:17 20.8 C 20 %
3093 12-04-2020 12:21:17 21.7 C 20 %
3094 12-04-2020 12:31:17 21.6 C 20 %
3095 12-04-2020 12:41:17 21.8 C 20 %
3096 12-04-2020 12:51:18 21.2 C 20 %
3097 12-04-2020 13:01:17 21.7 C 20 %
3098 12-04-2020 13:11:17 21.7 C 20 %
3099 12-04-2020 13:21:17 22 C 20 %
3100 12-04-2020 13:31:17 21.7 C 20 %
Sensor: Nr:Datum:Temp:Feuchte:
Aussen-T/F 3101 12-04-2020 13:41:17 22 C 20 %
3102 12-04-2020 13:51:17 22.1 C 20 %
3103 12-04-2020 14:01:17 22.4 C 20 %
3104 12-04-2020 14:11:17 22.8 C 20 %
3105 12-04-2020 14:21:17 22.9 C 20 %
3106 12-04-2020 14:31:17 26.2 C 20 %
3107 12-04-2020 14:41:17 28.6 C 20 %
3108 12-04-2020 14:51:17 28.5 C 20 %
3109 12-04-2020 15:01:17 30.3 C 20 %
3110 12-04-2020 15:11:17 27.7 C 20 %
3111 12-04-2020 15:21:17 27.9 C 20 %
3112 12-04-2020 15:31:18 30.7 C 20 %
3113 12-04-2020 15:41:18 30.5 C 20 %
3114 12-04-2020 15:51:18 28.3 C 20 %
3115 12-04-2020 16:01:17 30.5 C 20 %
3116 12-04-2020 16:11:17 33.2 C 20 %
3117 12-04-2020 16:21:17 32.8 C 20 %
3118 12-04-2020 16:31:17 27.8 C 20 %
3119 12-04-2020 16:41:17 26 C 20 %
3120 12-04-2020 16:51:17 24.7 C 20 %
3121 12-04-2020 17:01:17 29.6 C 20 %
3122 12-04-2020 17:11:18 29.6 C 20 %
3123 12-04-2020 17:21:17 29.5 C 20 %
3124 12-04-2020 17:31:17 26.5 C 20 %
3125 12-04-2020 17:41:17 29.3 C 20 %
Sensor: Nr:Datum:Temp:Feuchte:
Aussen-T/F 3126 12-04-2020 17:51:17 29.8 C 20 %
3127 12-04-2020 18:01:18 24.6 C 20 %
3128 12-04-2020 18:11:18 24 C 20 %
3129 12-04-2020 18:21:17 24 C 20 %
3130 12-04-2020 18:31:17 23.6 C 20 %
3131 12-04-2020 18:41:17 22.9 C 20 %
3132 12-04-2020 18:51:17 22.4 C 20 %
3133 12-04-2020 19:01:17 22.5 C 20 %
3134 12-04-2020 19:11:17 22.4 C 20 %
3135 12-04-2020 19:21:17 22 C 20 %
3136 12-04-2020 19:31:17 21.6 C 20 %
3137 12-04-2020 19:41:17 20.3 C 20 %
3138 12-04-2020 19:51:18 19.1 C 20 %
3139 12-04-2020 20:01:18 18.2 C 20 %
3140 12-04-2020 20:11:18 17.9 C 20 %
3141 12-04-2020 20:21:17 17.5 C 20 %
3142 12-04-2020 20:31:18 17 C 20 %
3143 12-04-2020 20:41:18 16.8 C 20 %
3144 12-04-2020 20:51:17 16 C 20 %
3145 12-04-2020 21:01:17 15.5 C 20 %
3146 12-04-2020 21:11:17 14 C 20 %
3147 12-04-2020 21:22:17 13.5 C 20 %
3148 12-04-2020 21:31:17 13.2 C 21 %
3149 12-04-2020 21:41:17 13.2 C 20 %
3150 12-04-2020 21:51:17 13.3 C 21 %
Sensor: Nr:Datum:Temp:Feuchte:
Aussen-T/F 3151 12-04-2020 22:01:17 13.4 C 20 %
3152 12-04-2020 22:11:17 13 C 21 %
3153 12-04-2020 22:22:17 12.9 C 22 %
3154 12-04-2020 22:32:17 12.2 C 23 %
3155 12-04-2020 22:42:17 11.8 C 26 %
3156 12-04-2020 22:51:17 11.7 C 25 %
3157 12-04-2020 23:01:18 11.5 C 25 %
3158 12-04-2020 23:11:18 11.1 C 26 %
3159 12-04-2020 23:21:17 10.9 C 27 %
3160 12-04-2020 23:32:17 10.7 C 28 %
3161 12-04-2020 23:41:17 10.3 C 28 %
3162 12-04-2020 23:52:17 10.5 C 28 %
3163 13-04-2020 00:01:17 10.6 C 28 %
3164 13-04-2020 00:11:17 10.4 C 29 %
3165 13-04-2020 00:21:18 10.4 C 30 %
3166 13-04-2020 00:31:17 10.1 C 30 %
3167 13-04-2020 00:41:17 9.9 C 31 %
3168 13-04-2020 00:51:17 9.7 C 31 %
3169 13-04-2020 01:01:18 9.5 C 31 %
3170 13-04-2020 01:11:18 9.4 C 32 %
3171 13-04-2020 01:21:18 9 C 32 %
3172 13-04-2020 01:31:18 9.3 C 32 %
3173 13-04-2020 01:41:18 9.2 C 32 %
3174 13-04-2020 01:51:18 9.3 C 32 %
3175 13-04-2020 02:02:17 9.2 C 32 %
Sensor: Nr:Datum:Temp:Feuchte:
Aussen-T/F 3176 13-04-2020 02:12:17 9.2 C 32 %
3177 13-04-2020 02:21:17 9.1 C 32 %
3178 13-04-2020 02:31:18 9 C 33 %
3179 13-04-2020 02:41:18 8.6 C 34 %
3180 13-04-2020 02:51:17 8.6 C 34 %
3181 13-04-2020 03:01:18 8.4 C 34 %
3182 13-04-2020 03:11:18 8.2 C 35 %
3183 13-04-2020 03:22:17 7.9 C 35 %
3184 13-04-2020 03:32:17 8.1 C 35 %
3185 13-04-2020 03:42:17 8 C 35 %
3186 13-04-2020 03:51:17 7.8 C 35 %
3187 13-04-2020 04:02:17 7.5 C 36 %
3188 13-04-2020 04:12:17 7.2 C 36 %
3189 13-04-2020 04:21:18 6.8 C 38 %
3190 13-04-2020 04:32:17 6.8 C 38 %
3191 13-04-2020 04:41:17 6.7 C 39 %
3192 13-04-2020 04:52:17 7.7 C 37 %
3193 13-04-2020 05:02:17 7.3 C 37 %
3194 13-04-2020 05:12:17 7.5 C 38 %
3195 13-04-2020 05:22:17 7.8 C 38 %
3196 13-04-2020 05:32:17 7.6 C 37 %
3197 13-04-2020 05:42:17 7.4 C 37 %
3198 13-04-2020 05:52:17 7.2 C 38 %
3199 13-04-2020 06:02:17 7.2 C 38 %
3200 13-04-2020 06:12:17 6.6 C 39 %
Sensor: Nr:Datum:Temp:Feuchte:
Aussen-T/F 3201 13-04-2020 06:22:17 6.2 C 39 %
3202 13-04-2020 06:32:17 6.3 C 40 %
3203 13-04-2020 06:42:17 6.3 C 40 %
3204 13-04-2020 06:52:17 6.4 C 40 %
3205 13-04-2020 07:02:17 6.5 C 40 %
3206 13-04-2020 07:12:17 7.2 C 39 %
3207 13-04-2020 07:22:17 7.6 C 38 %
3208 13-04-2020 07:32:17 8.1 C 37 %
3209 13-04-2020 07:42:17 8.3 C 37 %
3210 13-04-2020 07:52:17 8.5 C 37 %
3211 13-04-2020 08:02:17 8.6 C 36 %
3212 13-04-2020 08:12:18 8.9 C 36 %
3213 13-04-2020 08:22:17 9 C 36 %
3214 13-04-2020 08:32:17 9.4 C 36 %
3215 13-04-2020 08:42:17 10.7 C 37 %
3216 13-04-2020 08:52:17 11.1 C 36 %
3217 13-04-2020 09:02:17 10.7 C 37 %
3218 13-04-2020 09:12:17 10.7 C 37 %
3219 13-04-2020 09:22:17 11 C 36 %
3220 13-04-2020 09:32:17 11.5 C 36 %
3221 13-04-2020 09:42:17 11.9 C 35 %
3222 13-04-2020 09:52:17 11.4 C 35 %
3223 13-04-2020 10:02:17 11.2 C 35 %
3224 13-04-2020 10:12:17 11.1 C 35 %
3225 13-04-2020 10:22:17 11 C 34 %
Sensor: Nr:Datum:Temp:Feuchte:
Aussen-T/F 3226 13-04-2020 10:32:17 11.1 C 34 %
3227 13-04-2020 10:42:17 11.3 C 34 %
3228 13-04-2020 10:52:17 11.6 C 33 %
3229 13-04-2020 11:02:17 11.6 C 33 %
3230 13-04-2020 11:12:17 11.4 C 32 %
3231 13-04-2020 11:22:17 11.8 C 32 %
3232 13-04-2020 11:32:17 11.5 C 31 %
3233 13-04-2020 11:42:17 11.1 C 31 %
3234 13-04-2020 11:52:16 10.8 C 32 %
3235 13-04-2020 12:02:17 10.9 C 32 %
3236 13-04-2020 12:12:17 10.5 C 33 %
3237 13-04-2020 12:22:17 10.4 C 33 %
3238 13-04-2020 12:32:17 10.7 C 32 %
3239 13-04-2020 12:42:17 11.1 C 32 %
3240 13-04-2020 12:52:17 10.6 C 32 %
3241 13-04-2020 13:02:16 10.3 C 32 %
3242 13-04-2020 13:12:16 10.2 C 32 %
3243 13-04-2020 13:22:17 10.2 C 32 %
3244 13-04-2020 13:32:17 9.6 C 33 %
3245 13-04-2020 13:42:17 8.6 C 35 %
3246 13-04-2020 13:52:17 7.6 C 39 %
3247 13-04-2020 14:02:17 7.5 C 40 %
3248 13-04-2020 14:12:17 7.7 C 38 %
3249 13-04-2020 14:22:16 8.7 C 36 %
3250 13-04-2020 14:32:17 9.2 C 35 %
Sensor: Nr:Datum:Temp:Feuchte:
Aussen-T/F 3251 13-04-2020 14:42:17 9.6 C 34 %
3252 13-04-2020 14:52:16 10.9 C 31 %
3253 13-04-2020 15:02:17 12.4 C 26 %
3254 13-04-2020 15:12:17 12.3 C 25 %
3255 13-04-2020 15:22:17 12.7 C 20 %
3256 13-04-2020 15:32:17 11.8 C 20 %
3257 13-04-2020 15:42:17 12.4 C 20 %
3258 13-04-2020 15:52:16 13.2 C 20 %
3259 13-04-2020 16:02:16 12.2 C 20 %
3260 13-04-2020 16:12:16 14.4 C 20 %
3261 13-04-2020 16:22:16 15 C 20 %
3262 13-04-2020 16:32:17 16 C 20 %
3263 13-04-2020 16:42:17 14.9 C 20 %
3264 13-04-2020 16:52:16 16.5 C 20 %
3265 13-04-2020 17:02:17 15.2 C 20 %
3266 13-04-2020 17:12:17 15.6 C 20 %
3267 13-04-2020 17:22:16 15 C 20 %
3268 13-04-2020 17:32:16 15 C 20 %
3269 13-04-2020 17:42:16 14.5 C 20 %
3270 13-04-2020 17:52:16 15.4 C 20 %
3271 13-04-2020 18:02:16 13.2 C 20 %
3272 13-04-2020 18:12:16 12.5 C 20 %
3273 13-04-2020 18:22:17 12.1 C 20 %
3274 13-04-2020 18:32:17 11.9 C 20 %
3275 13-04-2020 18:42:18 11.1 C 20 %
Sensor: Nr:Datum:Temp:Feuchte:
Aussen-T/F 3276 13-04-2020 18:52:16 11.1 C 20 %
3277 13-04-2020 19:02:16 10.8 C 20 %
3278 13-04-2020 19:12:16 10.5 C 20 %
3279 13-04-2020 19:22:16 10.2 C 20 %
3280 13-04-2020 19:32:17 10 C 20 %
3281 13-04-2020 19:42:17 9.8 C 20 %
3282 13-04-2020 19:52:16 9.6 C 20 %
3283 13-04-2020 20:02:16 9 C 20 %
3284 13-04-2020 20:12:16 8.6 C 20 %
3285 13-04-2020 20:22:16 8.5 C 20 %
3286 13-04-2020 20:32:16 8.4 C 20 %
3287 13-04-2020 20:42:16 8.2 C 20 %
3288 13-04-2020 20:52:16 7.5 C 20 %
3289 13-04-2020 21:02:16 7.5 C 20 %
3290 13-04-2020 21:12:16 7.4 C 20 %
3291 13-04-2020 21:22:16 7.3 C 20 %
3292 13-04-2020 21:32:17 7.2 C 20 %
3293 13-04-2020 21:42:17 6.7 C 20 %
3294 13-04-2020 21:52:16 6.5 C 20 %
3295 13-04-2020 22:02:16 6.1 C 20 %
3296 13-04-2020 22:12:16 5.5 C 20 %
3297 13-04-2020 22:22:16 5.1 C 20 %
3298 13-04-2020 22:32:16 4.6 C 23 %
3299 13-04-2020 22:42:16 4.4 C 25 %
3300 13-04-2020 22:52:16 4.1 C 25 %
Sensor: Nr:Datum:Temp:Feuchte:
Aussen-T/F 3301 13-04-2020 23:02:16 3.9 C 26 %
3302 13-04-2020 23:12:16 3.8 C 27 %
3303 13-04-2020 23:22:16 3.5 C 30 %
3304 13-04-2020 23:32:17 3.3 C 29 %
3305 13-04-2020 23:42:17 4 C 26 %
3306 13-04-2020 23:52:16 4 C 25 %
3307 14-04-2020 00:02:16 3.3 C 28 %
3308 14-04-2020 00:12:16 4.1 C 25 %
3309 14-04-2020 00:22:16 3.2 C 27 %
3310 14-04-2020 00:32:16 3.3 C 27 %
3311 14-04-2020 00:42:16 2.8 C 29 %
3312 14-04-2020 00:52:16 2.9 C 29 %
3313 14-04-2020 01:02:16 3.1 C 27 %
3314 14-04-2020 01:12:16 3.4 C 27 %
3315 14-04-2020 01:22:16 2.8 C 28 %
3316 14-04-2020 01:32:16 2.1 C 30 %
3317 14-04-2020 01:42:16 1.9 C 33 %
3318 14-04-2020 01:52:16 1.2 C 35 %
3319 14-04-2020 02:02:16 1.6 C 35 %
3320 14-04-2020 02:12:16 1.3 C 35 %
3321 14-04-2020 02:22:16 0.9 C 36 %
3322 14-04-2020 02:32:16 0.8 C 36 %
3323 14-04-2020 02:42:16 1.1 C 35 %
3324 14-04-2020 02:52:18 1 C 35 %
3325 14-04-2020 03:02:18 1.1 C 35 %
Sensor: Nr:Datum:Temp:Feuchte:
Aussen-T/F 3326 14-04-2020 03:12:18 1.1 C 35 %
3327 14-04-2020 03:22:17 0.7 C 36 %
3328 14-04-2020 03:32:18 1.1 C 36 %
3329 14-04-2020 03:42:18 0.9 C 36 %
3330 14-04-2020 03:52:17 1 C 35 %
3331 14-04-2020 04:02:18 0.9 C 36 %
3332 14-04-2020 04:12:18 0.9 C 36 %
3333 14-04-2020 04:22:17 0.6 C 36 %
3334 14-04-2020 04:32:17 0.7 C 36 %
3335 14-04-2020 04:42:17 0.7 C 36 %
3336 14-04-2020 04:52:18 0.6 C 36 %
3337 14-04-2020 05:02:17 0 C 37 %
3338 14-04-2020 05:12:17 0 C 38 %
3339 14-04-2020 05:22:17 0.6 C 38 %
3340 14-04-2020 05:32:17 0.6 C 39 %
3341 14-04-2020 05:42:17 0.7 C 39 %
3342 14-04-2020 05:52:17 0 C 39 %
3343 14-04-2020 06:02:17 -0.2 C 40 %
3344 14-04-2020 06:12:17 -0.7 C 41 %
3345 14-04-2020 06:22:17 -0.9 C 41 %
3346 14-04-2020 06:32:17 -0.4 C 41 %
3347 14-04-2020 06:42:17 -0.1 C 41 %
3348 14-04-2020 06:52:17 0.5 C 41 %
3349 14-04-2020 07:02:17 0.7 C 41 %
3350 14-04-2020 07:12:17 1.1 C 40 %
Sensor: Nr:Datum:Temp:Feuchte:
Aussen-T/F 3351 14-04-2020 07:22:17 1.3 C 39 %
3352 14-04-2020 07:32:17 1.6 C 39 %
3353 14-04-2020 07:42:17 1.8 C 39 %
3354 14-04-2020 07:52:18 2.1 C 37 %
3355 14-04-2020 08:02:17 2.2 C 38 %
3356 14-04-2020 08:12:17 2.3 C 37 %
3357 14-04-2020 08:22:18 1.7 C 39 %
3358 14-04-2020 08:32:17 1.7 C 40 %
3359 14-04-2020 08:42:17 2.2 C 38 %
3360 14-04-2020 08:52:17 2.4 C 38 %
3361 14-04-2020 09:02:18 3 C 37 %
3362 14-04-2020 09:12:18 3.8 C 36 %
3363 14-04-2020 09:22:17 4.7 C 34 %
3364 14-04-2020 09:32:18 5.7 C 32 %
3365 14-04-2020 09:42:18 5.3 C 31 %
3366 14-04-2020 09:52:17 6 C 31 %
3367 14-04-2020 10:02:17 6.6 C 30 %
3368 14-04-2020 10:12:17 5.8 C 30 %
3369 14-04-2020 10:22:17 5.9 C 30 %
3370 14-04-2020 10:32:17 6.7 C 30 %
3371 14-04-2020 10:42:17 7.4 C 26 %
3372 14-04-2020 10:52:18 8.4 C 23 %
3373 14-04-2020 11:02:17 8.2 C 21 %
3374 14-04-2020 11:12:17 8 C 20 %
3375 14-04-2020 11:22:17 7.9 C 20 %
Sensor: Nr:Datum:Temp:Feuchte:
Aussen-T/F 3376 14-04-2020 11:32:17 8.2 C 20 %
3377 14-04-2020 11:42:17 9.1 C 20 %
3378 14-04-2020 11:52:18 8.4 C 20 %
3379 14-04-2020 12:02:17 8.5 C 20 %
3380 14-04-2020 12:12:17 8.6 C 20 %
3381 14-04-2020 12:22:17 8.9 C 20 %
3382 14-04-2020 12:32:17 8.6 C 20 %
3383 14-04-2020 12:42:17 9.8 C 20 %
3384 14-04-2020 12:52:17 10.6 C 20 %
3385 14-04-2020 13:02:18 10.2 C 20 %
3386 14-04-2020 13:12:18 10 C 20 %
3387 14-04-2020 13:22:17 10.4 C 20 %
3388 14-04-2020 13:32:17 10.7 C 20 %
3389 14-04-2020 13:42:17 10 C 20 %
3390 14-04-2020 13:52:18 9.5 C 20 %
3391 14-04-2020 14:02:17 9.8 C 20 %
3392 14-04-2020 14:12:18 10.3 C 20 %
3393 14-04-2020 14:22:18 11.8 C 20 %
3394 14-04-2020 14:32:18 14.5 C 20 %
3395 14-04-2020 14:42:18 17.4 C 20 %
3396 14-04-2020 14:52:17 16.8 C 20 %
3397 14-04-2020 15:02:17 17.6 C 20 %
3398 14-04-2020 15:12:18 21 C 20 %
3399 14-04-2020 15:22:17 14.7 C 20 %
3400 14-04-2020 15:32:17 16.7 C 20 %
Sensor: Nr:Datum:Temp:Feuchte:
Aussen-T/F 3401 14-04-2020 15:42:17 14 C 20 %
3402 14-04-2020 15:52:17 14 C 20 %
3403 14-04-2020 16:02:17 15 C 20 %
3404 14-04-2020 16:12:17 17.2 C 20 %
3405 14-04-2020 16:22:17 17.7 C 20 %
3406 14-04-2020 16:32:18 16.3 C 20 %
3407 14-04-2020 16:42:18 14 C 20 %
3408 14-04-2020 16:52:17 14.5 C 20 %
3409 14-04-2020 17:02:18 12.2 C 20 %
3410 14-04-2020 17:12:18 14.2 C 20 %
3411 14-04-2020 17:22:17 19.2 C 20 %
3412 14-04-2020 17:32:17 16.8 C 20 %
3413 14-04-2020 17:42:18 15.5 C 20 %
3414 14-04-2020 17:52:17 16 C 20 %
3415 14-04-2020 18:02:18 13.4 C 20 %
3416 14-04-2020 18:12:18 12.4 C 20 %
3417 14-04-2020 18:22:17 12.1 C 20 %
3418 14-04-2020 18:32:18 11.9 C 20 %
3419 14-04-2020 18:42:18 11.7 C 20 %
3420 14-04-2020 18:52:17 11.3 C 20 %
3421 14-04-2020 19:02:17 11.2 C 20 %
3422 14-04-2020 19:12:18 11 C 20 %
3423 14-04-2020 19:22:18 10.6 C 20 %
3424 14-04-2020 19:32:18 10.3 C 20 %
3425 14-04-2020 19:42:18 10.1 C 20 %
Sensor: Nr:Datum:Temp:Feuchte:
Aussen-T/F 3426 14-04-2020 19:52:17 9.7 C 20 %
3427 14-04-2020 20:02:17 9.3 C 20 %
3428 14-04-2020 20:12:17 8.9 C 20 %
3429 14-04-2020 20:22:17 7.7 C 20 %
3430 14-04-2020 20:32:17 7 C 23 %
3431 14-04-2020 20:42:18 6.7 C 25 %
3432 14-04-2020 20:52:17 6.8 C 25 %
3433 14-04-2020 21:02:17 6.5 C 25 %
3434 14-04-2020 21:12:17 6.3 C 25 %
3435 14-04-2020 21:22:17 6 C 26 %
3436 14-04-2020 21:32:17 6.1 C 26 %
3437 14-04-2020 21:42:17 5.8 C 27 %
3438 14-04-2020 21:52:17 5.6 C 27 %
3439 14-04-2020 22:02:18 5.6 C 27 %
3440 14-04-2020 22:12:18 5.1 C 29 %
3441 14-04-2020 22:22:17 5.2 C 28 %
3442 14-04-2020 22:32:18 5 C 29 %
3443 14-04-2020 22:42:18 4.7 C 30 %
3444 14-04-2020 22:52:18 4.7 C 30 %
3445 14-04-2020 23:02:18 4.3 C 32 %
3446 14-04-2020 23:12:18 3.6 C 34 %
3447 14-04-2020 23:22:17 3.2 C 35 %
3448 14-04-2020 23:32:17 3 C 35 %
3449 14-04-2020 23:42:17 2.8 C 36 %
3450 14-04-2020 23:52:17 2.6 C 36 %
Sensor: Nr:Datum:Temp:Feuchte:
Aussen-T/F 3451 15-04-2020 00:02:18 2.4 C 37 %
3452 15-04-2020 00:12:18 2.1 C 37 %
3453 15-04-2020 00:22:17 1.7 C 39 %
3454 15-04-2020 00:32:18 1.6 C 39 %
3455 15-04-2020 00:42:18 1.6 C 40 %
3456 15-04-2020 00:52:17 1.6 C 39 %
3457 15-04-2020 01:02:17 1.5 C 40 %
3458 15-04-2020 01:12:17 1.3 C 40 %
3459 15-04-2020 01:22:17 1.2 C 40 %
3460 15-04-2020 01:32:17 1.3 C 40 %
3461 15-04-2020 01:42:17 1.2 C 40 %
3462 15-04-2020 01:52:17 1 C 40 %
3463 15-04-2020 02:02:17 0.8 C 41 %
3464 15-04-2020 02:12:17 0.8 C 42 %
3465 15-04-2020 02:22:17 0.8 C 42 %
3466 15-04-2020 02:32:17 0.7 C 42 %
3467 15-04-2020 02:42:17 0.6 C 42 %
3468 15-04-2020 02:52:17 0.1 C 42 %
3469 15-04-2020 03:02:17 0.2 C 43 %
3470 15-04-2020 03:12:17 0.3 C 43 %
3471 15-04-2020 03:22:17 0.2 C 43 %
3472 15-04-2020 03:32:18 0.5 C 43 %
3473 15-04-2020 03:42:18 0.1 C 43 %
3474 15-04-2020 03:52:18 0 C 43 %
3475 15-04-2020 04:02:18 0.2 C 43 %
Sensor: Nr:Datum:Temp:Feuchte:
Aussen-T/F 3476 15-04-2020 04:12:18 -0.2 C 43 %
3477 15-04-2020 04:22:17 0 C 44 %
3478 15-04-2020 04:32:18 -0.2 C 43 %
3479 15-04-2020 04:42:18 -0.3 C 44 %
3480 15-04-2020 04:52:17 -0.4 C 44 %
3481 15-04-2020 05:02:18 -0.4 C 44 %
3482 15-04-2020 05:12:18 -0.3 C 44 %
3483 15-04-2020 05:22:17 -0.4 C 45 %
3484 15-04-2020 05:32:17 -0.5 C 45 %
3485 15-04-2020 05:42:17 -0.4 C 45 %
3486 15-04-2020 05:52:17 -0.7 C 45 %
3487 15-04-2020 06:02:17 -0.7 C 45 %
3488 15-04-2020 06:12:17 -0.7 C 45 %
3489 15-04-2020 06:22:17 -0.7 C 45 %
3490 15-04-2020 06:32:17 -0.6 C 45 %
3491 15-04-2020 06:42:17 -0.7 C 45 %
3492 15-04-2020 06:52:17 -0.9 C 45 %
3493 15-04-2020 07:02:17 -0.7 C 45 %
3494 15-04-2020 07:12:17 -0.6 C 45 %
3495 15-04-2020 07:22:17 -0.5 C 45 %
3496 15-04-2020 07:32:17 -0.1 C 46 %
3497 15-04-2020 07:42:17 0.1 C 45 %
3498 15-04-2020 07:52:18 0.4 C 45 %
3499 15-04-2020 08:02:17 0.7 C 45 %
3500 15-04-2020 08:12:17 1 C 43 %
Sensor: Nr:Datum:Temp:Feuchte:
Aussen-T/F 3501 15-04-2020 08:22:18 1.4 C 42 %
3502 15-04-2020 08:32:18 1.6 C 41 %
3503 15-04-2020 08:42:18 1.9 C 41 %
3504 15-04-2020 08:52:18 2.4 C 40 %
3505 15-04-2020 09:02:17 2.8 C 40 %
3506 15-04-2020 09:12:17 3 C 38 %
3507 15-04-2020 09:22:18 3.4 C 38 %
3508 15-04-2020 09:32:18 3.5 C 37 %
3509 15-04-2020 09:42:18 4.2 C 36 %
3510 15-04-2020 09:52:17 4.4 C 36 %
3511 15-04-2020 10:02:18 4.9 C 35 %
3512 15-04-2020 10:12:18 5.4 C 35 %
3513 15-04-2020 10:22:18 6.2 C 34 %
3514 15-04-2020 10:32:18 6.9 C 33 %
3515 15-04-2020 10:42:18 7.4 C 31 %
3516 15-04-2020 10:52:18 8.1 C 30 %
3517 15-04-2020 11:02:17 8.5 C 30 %
3518 15-04-2020 11:12:17 9.2 C 29 %
3519 15-04-2020 11:22:18 9.9 C 28 %
3520 15-04-2020 11:32:17 10.4 C 26 %
3521 15-04-2020 11:42:17 11 C 22 %
3522 15-04-2020 11:52:18 11.6 C 20 %
3523 15-04-2020 12:02:17 12.3 C 20 %
3524 15-04-2020 12:12:17 12.2 C 20 %
3525 15-04-2020 12:22:18 13.3 C 20 %
Sensor: Nr:Datum:Temp:Feuchte:
Aussen-T/F 3526 15-04-2020 12:32:18 13.2 C 20 %
3527 15-04-2020 12:42:18 13.3 C 20 %
3528 15-04-2020 12:52:17 13.2 C 20 %
3529 15-04-2020 13:02:17 13.4 C 20 %
3530 15-04-2020 13:12:17 13.5 C 20 %
3531 15-04-2020 13:22:18 13.4 C 20 %
3532 15-04-2020 13:32:18 14.2 C 20 %
3533 15-04-2020 13:42:18 14.4 C 20 %
3534 15-04-2020 13:52:17 14.7 C 20 %
3535 15-04-2020 14:02:17 15.2 C 20 %
3536 15-04-2020 14:12:17 15.5 C 20 %
3537 15-04-2020 14:22:17 16.9 C 20 %
3538 15-04-2020 14:32:17 21.6 C 20 %
3539 15-04-2020 14:42:17 23.9 C 20 %
3540 15-04-2020 14:52:17 25.2 C 20 %
3541 15-04-2020 15:02:18 24.8 C 20 %
3542 15-04-2020 15:12:18 23.5 C 20 %
3543 15-04-2020 15:22:18 24.4 C 20 %
3544 15-04-2020 15:32:18 23.9 C 20 %
3545 15-04-2020 15:42:18 24.5 C 20 %
3546 15-04-2020 15:52:17 24.4 C 20 %
3547 15-04-2020 16:02:18 24.8 C 20 %
3548 15-04-2020 16:12:18 24.6 C 20 %
3549 15-04-2020 16:22:17 23.3 C 20 %
3550 15-04-2020 16:32:18 23.7 C 20 %
Sensor: Nr:Datum:Temp:Feuchte:
Aussen-T/F 3551 15-04-2020 16:42:18 25.4 C 20 %
3552 15-04-2020 16:52:18 25.9 C 20 %
3553 15-04-2020 17:02:17 25.4 C 20 %
3554 15-04-2020 17:12:17 26.8 C 20 %
3555 15-04-2020 17:22:18 24.8 C 20 %
3556 15-04-2020 17:32:17 24 C 20 %
3557 15-04-2020 17:42:17 22.4 C 20 %
3558 15-04-2020 17:52:18 24.4 C 20 %
3559 15-04-2020 18:02:18 20.6 C 20 %
3560 15-04-2020 18:12:18 20.2 C 20 %
3561 15-04-2020 18:22:18 19.7 C 20 %
3562 15-04-2020 18:32:18 19.1 C 20 %
3563 15-04-2020 18:42:18 19.4 C 20 %
3564 15-04-2020 18:52:17 19.4 C 20 %
3565 15-04-2020 19:02:17 18.8 C 20 %
3566 15-04-2020 19:12:17 18.7 C 20 %
3567 15-04-2020 19:22:17 18.2 C 20 %
3568 15-04-2020 19:32:17 18 C 20 %
3569 15-04-2020 19:42:18 17.3 C 20 %
3570 15-04-2020 19:52:17 15.3 C 20 %
3571 15-04-2020 20:02:18 14 C 20 %
3572 15-04-2020 20:12:18 13.6 C 20 %
3573 15-04-2020 20:22:18 13.4 C 20 %
3574 15-04-2020 20:32:17 13.1 C 20 %
3575 15-04-2020 20:42:18 12.7 C 20 %
Sensor: Nr:Datum:Temp:Feuchte:
Aussen-T/F 3576 15-04-2020 20:52:17 12 C 20 %
3577 15-04-2020 21:02:18 12 C 20 %
3578 15-04-2020 21:12:18 11 C 20 %
3579 15-04-2020 21:22:17 11 C 20 %
3580 15-04-2020 21:32:17 10.5 C 20 %
3581 15-04-2020 21:42:17 9.4 C 25 %
3582 15-04-2020 21:52:17 9 C 26 %
3583 15-04-2020 22:02:17 8.9 C 27 %
3584 15-04-2020 22:12:17 8.6 C 28 %
3585 15-04-2020 22:22:17 8.8 C 28 %
3586 15-04-2020 22:32:18 8.1 C 28 %
3587 15-04-2020 22:42:18 7.7 C 29 %
3588 15-04-2020 22:52:17 7.3 C 30 %
3589 15-04-2020 23:02:17 7.1 C 30 %
3590 15-04-2020 23:12:17 7.2 C 30 %
3591 15-04-2020 23:22:17 7 C 30 %
3592 15-04-2020 23:32:17 6.6 C 31 %
3593 15-04-2020 23:42:18 6.4 C 32 %
3594 15-04-2020 23:52:17 6.2 C 32 %
3595 16-04-2020 00:02:17 6.2 C 32 %
3596 16-04-2020 00:12:17 6 C 33 %
3597 16-04-2020 00:22:17 5.8 C 34 %
3598 16-04-2020 00:32:18 5.5 C 35 %
3599 16-04-2020 00:42:18 5.3 C 35 %
3600 16-04-2020 00:52:17 5.2 C 35 %
Sensor: Nr:Datum:Temp:Feuchte:
Aussen-T/F 3601 16-04-2020 01:02:17 4.8 C 35 %
3602 16-04-2020 01:12:17 4.8 C 35 %
3603 16-04-2020 01:22:17 5.1 C 35 %
3604 16-04-2020 01:32:18 5.1 C 35 %
3605 16-04-2020 01:42:18 4.7 C 36 %
3606 16-04-2020 01:52:17 4.8 C 36 %
3607 16-04-2020 02:02:18 4.6 C 36 %
3608 16-04-2020 02:12:18 4.3 C 36 %
3609 16-04-2020 02:22:18 3.9 C 38 %
3610 16-04-2020 02:32:17 4.1 C 38 %
3611 16-04-2020 02:42:17 4 C 38 %
3612 16-04-2020 02:52:17 3.7 C 39 %
3613 16-04-2020 03:02:17 3.6 C 40 %
3614 16-04-2020 03:12:17 3.6 C 39 %
3615 16-04-2020 03:22:17 3.5 C 39 %
3616 16-04-2020 03:32:17 3.3 C 39 %
3617 16-04-2020 03:42:17 3 C 40 %
3618 16-04-2020 03:52:17 2.9 C 41 %
3619 16-04-2020 04:02:17 3.2 C 40 %
3620 16-04-2020 04:12:17 3.2 C 40 %
3621 16-04-2020 04:22:17 2.7 C 41 %
3622 16-04-2020 04:32:18 2.6 C 41 %
3623 16-04-2020 04:42:18 3 C 41 %
3624 16-04-2020 04:52:17 2.6 C 42 %
3625 16-04-2020 05:02:17 2.7 C 42 %
Sensor: Nr:Datum:Temp:Feuchte:
Aussen-T/F 3626 16-04-2020 05:12:17 2.7 C 42 %
3627 16-04-2020 05:22:17 2.6 C 42 %
3628 16-04-2020 05:32:17 2.3 C 42 %
3629 16-04-2020 05:42:17 2 C 42 %
3630 16-04-2020 05:52:17 2.1 C 43 %
3631 16-04-2020 06:02:18 2.4 C 43 %
3632 16-04-2020 06:12:18 2 C 42 %
3633 16-04-2020 06:22:17 1.6 C 44 %
3634 16-04-2020 06:32:17 1.4 C 44 %
3635 16-04-2020 06:42:17 1.8 C 45 %
3636 16-04-2020 06:52:17 1.8 C 45 %
3637 16-04-2020 07:02:17 1.8 C 45 %
3638 16-04-2020 07:12:17 1.8 C 45 %
3639 16-04-2020 07:22:17 2.2 C 44 %
3640 16-04-2020 07:32:17 2.1 C 44 %
3641 16-04-2020 07:42:17 2.1 C 44 %
3642 16-04-2020 07:52:17 2.5 C 44 %
3643 16-04-2020 08:02:17 2.5 C 44 %
3644 16-04-2020 08:12:17 2.6 C 44 %
3645 16-04-2020 08:22:17 3 C 43 %
3646 16-04-2020 08:32:18 3.2 C 42 %
3647 16-04-2020 08:42:18 3.5 C 42 %
3648 16-04-2020 08:52:17 3.6 C 41 %
3649 16-04-2020 09:02:18 3.9 C 41 %
3650 16-04-2020 09:12:18 4.2 C 41 %
Sensor: Nr:Datum:Temp:Feuchte:
Aussen-T/F 3651 16-04-2020 09:22:17 4.5 C 40 %
3652 16-04-2020 09:32:17 5.1 C 40 %
3653 16-04-2020 09:42:17 5.8 C 39 %
3654 16-04-2020 09:52:17 6.6 C 37 %
3655 16-04-2020 10:02:18 7 C 36 %
3656 16-04-2020 10:12:18 7.5 C 36 %
3657 16-04-2020 10:22:17 8.1 C 35 %
3658 16-04-2020 10:32:17 9.4 C 34 %
3659 16-04-2020 10:42:18 10.4 C 31 %
3660 16-04-2020 10:52:17 11.2 C 30 %
3661 16-04-2020 11:02:18 12.2 C 29 %
3662 16-04-2020 11:12:18 14.2 C 25 %
3663 16-04-2020 11:22:17 15.5 C 20 %
3664 16-04-2020 11:32:17 16.8 C 20 %
3665 16-04-2020 11:42:17 17.6 C 20 %
3666 16-04-2020 11:52:17 18 C 20 %
3667 16-04-2020 12:02:18 18.4 C 20 %
3668 16-04-2020 12:12:18 18.7 C 20 %
3669 16-04-2020 12:22:17 19.1 C 20 %
3670 16-04-2020 12:32:18 19.3 C 20 %
3671 16-04-2020 12:42:18 19.5 C 20 %
3672 16-04-2020 12:52:17 19.6 C 20 %
3673 16-04-2020 13:02:18 20.1 C 20 %
3674 16-04-2020 13:12:18 20.5 C 20 %
3675 16-04-2020 13:22:17 20.8 C 20 %
Sensor: Nr:Datum:Temp:Feuchte:
Aussen-T/F 3676 16-04-2020 13:32:18 21.1 C 20 %
3677 16-04-2020 13:42:18 21.5 C 20 %
3678 16-04-2020 13:52:17 21.7 C 20 %
3679 16-04-2020 14:02:17 22 C 20 %
3680 16-04-2020 14:12:17 22.4 C 20 %
3681 16-04-2020 14:22:17 22.8 C 20 %
3682 16-04-2020 14:32:17 26.2 C 20 %
3683 16-04-2020 14:42:17 28 C 20 %
3684 16-04-2020 14:52:17 29.6 C 20 %
3685 16-04-2020 15:02:17 29.8 C 20 %
3686 16-04-2020 15:12:17 29.5 C 20 %
3687 16-04-2020 15:22:17 28.5 C 20 %
3688 16-04-2020 15:32:18 30.1 C 20 %
3689 16-04-2020 15:42:18 25.8 C 20 %
3690 16-04-2020 15:52:17 27.1 C 20 %
3691 16-04-2020 16:02:17 29.5 C 20 %
3692 16-04-2020 16:12:17 28.4 C 20 %
3693 16-04-2020 16:22:17 26.5 C 20 %
3694 16-04-2020 16:32:17 26.6 C 20 %
3695 16-04-2020 16:42:18 27.2 C 20 %
3696 16-04-2020 16:52:17 24.9 C 20 %
3697 16-04-2020 17:02:17 25 C 20 %
3698 16-04-2020 17:12:17 26.1 C 20 %
3699 16-04-2020 17:22:18 28.3 C 20 %
3700 16-04-2020 17:32:17 27.6 C 20 %
Sensor: Nr:Datum:Temp:Feuchte:
Aussen-T/F 3701 16-04-2020 17:42:17 27.3 C 20 %
3702 16-04-2020 17:52:17 26.5 C 20 %
3703 16-04-2020 18:02:17 25.6 C 20 %
3704 16-04-2020 18:12:17 24.3 C 20 %
3705 16-04-2020 18:22:17 24.4 C 20 %
3706 16-04-2020 18:32:17 24.2 C 20 %
3707 16-04-2020 18:42:17 23.9 C 20 %
3708 16-04-2020 18:52:17 24 C 20 %
3709 16-04-2020 19:02:17 23.2 C 20 %
3710 16-04-2020 19:12:17 22.9 C 20 %
3711 16-04-2020 19:22:17 22.2 C 20 %
3712 16-04-2020 19:32:18 21.9 C 20 %
3713 16-04-2020 19:42:18 21.2 C 20 %
3714 16-04-2020 19:52:17 20.5 C 20 %
3715 16-04-2020 20:02:17 19.5 C 20 %
3716 16-04-2020 20:12:17 19.2 C 20 %
3717 16-04-2020 20:22:17 19.3 C 20 %
3718 16-04-2020 20:32:18 19.1 C 20 %
3719 16-04-2020 20:42:18 18.9 C 20 %
3720 16-04-2020 20:52:18 18.5 C 20 %
3721 16-04-2020 21:02:17 17.9 C 20 %
3722 16-04-2020 21:12:17 16.5 C 20 %
3723 16-04-2020 21:22:17 16.1 C 20 %
3724 16-04-2020 21:32:18 15.5 C 20 %
3725 16-04-2020 21:42:18 14.7 C 21 %
Sensor: Nr:Datum:Temp:Feuchte:
Aussen-T/F 3726 16-04-2020 21:52:17 14.4 C 22 %
3727 16-04-2020 22:02:17 14.5 C 22 %
3728 16-04-2020 22:12:17 13.5 C 25 %
3729 16-04-2020 22:22:17 14.1 C 25 %
3730 16-04-2020 22:32:17 13.8 C 25 %
3731 16-04-2020 22:42:18 13.1 C 26 %
3732 16-04-2020 22:52:17 12.4 C 28 %
3733 16-04-2020 23:02:17 12.5 C 29 %
3734 16-04-2020 23:12:17 12.2 C 30 %
3735 16-04-2020 23:22:17 11.7 C 30 %
3736 16-04-2020 23:32:18 11.6 C 31 %
3737 16-04-2020 23:42:18 11.6 C 31 %
3738 16-04-2020 23:52:17 11.8 C 31 %
3739 17-04-2020 00:02:18 11.4 C 31 %
3740 17-04-2020 00:12:18 11 C 31 %
3741 17-04-2020 00:22:17 11 C 32 %
3742 17-04-2020 00:32:17 11 C 32 %
3743 17-04-2020 00:42:17 11 C 32 %
3744 17-04-2020 00:52:18 10.4 C 33 %
3745 17-04-2020 01:02:17 10.1 C 34 %
3746 17-04-2020 01:12:18 10.1 C 34 %
3747 17-04-2020 01:22:18 9.8 C 35 %
3748 17-04-2020 01:32:18 10 C 35 %
3749 17-04-2020 01:42:18 10 C 35 %
3750 17-04-2020 01:52:17 9.5 C 36 %
Sensor: Nr:Datum:Temp:Feuchte:
Aussen-T/F 3751 17-04-2020 02:02:17 9.7 C 36 %
3752 17-04-2020 02:12:17 9.6 C 36 %
3753 17-04-2020 02:22:17 9.1 C 36 %
3754 17-04-2020 02:32:17 8.9 C 37 %
3755 17-04-2020 02:42:17 8.5 C 38 %
3756 17-04-2020 02:52:17 8.1 C 38 %
3757 17-04-2020 03:02:17 7.9 C 39 %
3758 17-04-2020 03:12:18 7.9 C 40 %
3759 17-04-2020 03:22:18 7.8 C 40 %
3760 17-04-2020 03:32:17 7.8 C 40 %
3761 17-04-2020 03:42:18 7.8 C 40 %
3762 17-04-2020 03:52:18 8.5 C 39 %
3763 17-04-2020 04:02:17 8.4 C 39 %
3764 17-04-2020 04:12:17 8.3 C 39 %
3765 17-04-2020 04:22:17 8 C 39 %
3766 17-04-2020 04:32:17 7.9 C 40 %
3767 17-04-2020 04:42:17 8 C 40 %
3768 17-04-2020 04:52:17 7.8 C 40 %
3769 17-04-2020 05:02:17 7.5 C 40 %
3770 17-04-2020 05:12:18 6.9 C 41 %
3771 17-04-2020 05:22:17 6.7 C 42 %
3772 17-04-2020 05:32:18 6.6 C 42 %
3773 17-04-2020 05:42:18 6.7 C 43 %
3774 17-04-2020 05:52:18 6.5 C 42 %
3775 17-04-2020 06:02:18 6.5 C 43 %
Sensor: Nr:Datum:Temp:Feuchte:
Aussen-T/F 3776 17-04-2020 06:12:18 6.2 C 43 %
3777 17-04-2020 06:22:17 6 C 43 %
3778 17-04-2020 06:32:17 6 C 44 %
3779 17-04-2020 06:42:17 5.8 C 44 %
3780 17-04-2020 06:52:17 5.8 C 44 %
3781 17-04-2020 07:02:18 5.8 C 45 %
3782 17-04-2020 07:12:18 5.9 C 45 %
3783 17-04-2020 07:22:18 6.1 C 45 %
3784 17-04-2020 07:32:17 6.1 C 45 %
3785 17-04-2020 07:42:17 6.3 C 45 %
3786 17-04-2020 07:52:17 6.3 C 45 %
3787 17-04-2020 08:02:17 6.5 C 45 %
3788 17-04-2020 08:12:17 6.7 C 45 %
3789 17-04-2020 08:22:17 6.9 C 45 %
3790 17-04-2020 08:32:18 7 C 44 %
3791 17-04-2020 08:42:18 7.6 C 44 %
3792 17-04-2020 08:52:17 7.9 C 44 %
3793 17-04-2020 09:02:18 8.4 C 42 %
3794 17-04-2020 09:12:18 8.6 C 42 %
3795 17-04-2020 09:22:17 8.8 C 41 %
3796 17-04-2020 09:32:17 9.3 C 41 %
3797 17-04-2020 09:42:17 9.6 C 40 %
3798 17-04-2020 09:52:18 10.3 C 39 %
3799 17-04-2020 10:02:17 10.8 C 38 %
3800 17-04-2020 10:12:17 11 C 37 %
Sensor: Nr:Datum:Temp:Feuchte:
Aussen-T/F 3801 17-04-2020 10:22:18 11.8 C 36 %
3802 17-04-2020 10:32:18 12.4 C 35 %
3803 17-04-2020 10:42:18 13 C 34 %
3804 17-04-2020 10:52:17 13.9 C 34 %
3805 17-04-2020 11:02:17 14.6 C 32 %
3806 17-04-2020 11:12:17 15.8 C 30 %
3807 17-04-2020 11:22:18 16.5 C 28 %
3808 17-04-2020 11:32:17 17.1 C 28 %
3809 17-04-2020 11:42:17 17.7 C 26 %
3810 17-04-2020 11:52:17 17.9 C 25 %
3811 17-04-2020 12:02:18 18.5 C 25 %
3812 17-04-2020 12:12:18 18.7 C 24 %
3813 17-04-2020 12:22:17 19.1 C 22 %
3814 17-04-2020 12:32:17 19.7 C 20 %
3815 17-04-2020 12:42:17 19.7 C 20 %
3816 17-04-2020 12:52:17 19.7 C 20 %
3817 17-04-2020 13:02:18 20 C 20 %
3818 17-04-2020 13:12:18 20.4 C 20 %
3819 17-04-2020 13:22:17 20.6 C 20 %
3820 17-04-2020 13:32:17 20.8 C 20 %
3821 17-04-2020 13:42:17 21.1 C 20 %
3822 17-04-2020 13:52:17 21.6 C 20 %
3823 17-04-2020 14:02:18 21.8 C 20 %
3824 17-04-2020 14:12:18 22.6 C 20 %
3825 17-04-2020 14:22:17 23.2 C 20 %
Sensor: Nr:Datum:Temp:Feuchte:
Aussen-T/F 3826 17-04-2020 14:32:17 25.2 C 20 %
3827 17-04-2020 14:42:17 29 C 20 %
3828 17-04-2020 14:52:17 32.1 C 20 %
3829 17-04-2020 15:02:17 30.9 C 20 %
3830 17-04-2020 15:12:17 31.4 C 20 %
3831 17-04-2020 15:22:17 29.6 C 20 %
3832 17-04-2020 15:32:17 29.2 C 20 %
3833 17-04-2020 15:42:17 29 C 20 %
3834 17-04-2020 15:52:18 25.7 C 20 %
3835 17-04-2020 16:02:17 30.3 C 20 %
3836 17-04-2020 16:12:17 30.2 C 20 %
3837 17-04-2020 16:22:17 27.5 C 20 %
3838 17-04-2020 16:32:17 28.2 C 20 %
3839 17-04-2020 16:42:17 28.2 C 20 %
3840 17-04-2020 16:52:17 27.7 C 20 %
3841 17-04-2020 17:02:18 29.6 C 20 %
3842 17-04-2020 17:12:18 29.4 C 20 %
3843 17-04-2020 17:22:17 29.5 C 20 %
3844 17-04-2020 17:32:17 30.4 C 20 %
3845 17-04-2020 17:42:18 27.7 C 20 %
3846 17-04-2020 17:52:17 28.5 C 20 %
3847 17-04-2020 18:02:17 26.6 C 20 %
3848 17-04-2020 18:12:17 26.2 C 20 %
3849 17-04-2020 18:22:17 25.7 C 20 %
3850 17-04-2020 18:32:17 24.8 C 20 %
Sensor: Nr:Datum:Temp:Feuchte:
Aussen-T/F 3851 17-04-2020 18:42:17 24.7 C 20 %
3852 17-04-2020 18:52:18 24.2 C 20 %
3853 17-04-2020 19:02:17 24.1 C 20 %
3854 17-04-2020 19:12:17 23.7 C 20 %
3855 17-04-2020 19:22:17 23 C 20 %
3856 17-04-2020 19:32:17 22.2 C 20 %
3857 17-04-2020 19:42:17 21.7 C 20 %
3858 17-04-2020 19:52:17 20.7 C 20 %
3859 17-04-2020 20:02:17 20 C 20 %
3860 17-04-2020 20:12:17 19.5 C 20 %
3861 17-04-2020 20:22:17 18.8 C 21 %
3862 17-04-2020 20:32:17 18.4 C 21 %
3863 17-04-2020 20:42:17 18.2 C 21 %
3864 17-04-2020 20:52:17 17.7 C 23 %
3865 17-04-2020 21:02:17 17.5 C 23 %
3866 17-04-2020 21:12:17 17.7 C 24 %
3867 17-04-2020 21:22:17 17.6 C 25 %
3868 17-04-2020 21:32:18 17.8 C 24 %
3869 17-04-2020 21:42:18 17 C 25 %
3870 17-04-2020 21:52:18 16.8 C 25 %
3871 17-04-2020 22:02:17 16 C 26 %
3872 17-04-2020 22:12:17 16 C 26 %
3873 17-04-2020 22:22:17 15.8 C 26 %
3874 17-04-2020 22:32:17 15.7 C 26 %
3875 17-04-2020 22:42:17 15.1 C 27 %
Sensor: Nr:Datum:Temp:Feuchte:
Aussen-T/F 3876 17-04-2020 22:52:17 14.6 C 29 %
3877 17-04-2020 23:02:17 14.7 C 30 %
3878 17-04-2020 23:12:17 14.4 C 29 %
3879 17-04-2020 23:22:18 14.1 C 30 %
3880 17-04-2020 23:32:17 14 C 30 %
3881 17-04-2020 23:42:17 13.6 C 31 %
3882 17-04-2020 23:52:17 13.5 C 31 %
3883 18-04-2020 00:02:17 13.4 C 31 %
3884 18-04-2020 00:12:17 13.1 C 32 %
3885 18-04-2020 00:22:18 12.6 C 33 %
3886 18-04-2020 00:32:17 12.2 C 33 %
3887 18-04-2020 00:42:18 12 C 33 %
3888 18-04-2020 00:52:17 11.8 C 34 %
3889 18-04-2020 01:02:18 11.8 C 34 %
3890 18-04-2020 01:12:18 11.8 C 34 %
3891 18-04-2020 01:22:17 11.4 C 34 %
3892 18-04-2020 01:32:18 11.1 C 35 %
3893 18-04-2020 01:42:18 10.9 C 36 %
3894 18-04-2020 01:52:17 10.9 C 36 %
3895 18-04-2020 02:02:18 10.8 C 36 %
3896 18-04-2020 02:12:18 10.6 C 36 %
3897 18-04-2020 02:22:17 10.7 C 36 %
3898 18-04-2020 02:32:17 10.1 C 37 %
3899 18-04-2020 02:42:17 10 C 38 %
3900 18-04-2020 02:52:18 9.8 C 38 %
Sensor: Nr:Datum:Temp:Feuchte:
Aussen-T/F 3901 18-04-2020 03:02:17 9.7 C 39 %
3902 18-04-2020 03:12:17 9.6 C 39 %
3903 18-04-2020 03:22:18 9.2 C 39 %
3904 18-04-2020 03:32:18 9 C 39 %
3905 18-04-2020 03:42:18 9 C 39 %
3906 18-04-2020 03:52:18 8.9 C 40 %
3907 18-04-2020 04:02:17 9 C 40 %
3908 18-04-2020 04:12:17 9 C 40 %
3909 18-04-2020 04:22:17 9 C 40 %
3910 18-04-2020 04:32:18 8.9 C 41 %
3911 18-04-2020 04:42:18 8.8 C 41 %
3912 18-04-2020 04:52:17 8.6 C 41 %
3913 18-04-2020 05:02:17 8.4 C 41 %
3914 18-04-2020 05:12:17 8.5 C 41 %
3915 18-04-2020 05:22:17 8.7 C 40 %
3916 18-04-2020 05:32:17 8.6 C 41 %
3917 18-04-2020 05:42:17 8.3 C 41 %
3918 18-04-2020 05:52:18 8.6 C 41 %
3919 18-04-2020 06:02:17 8.7 C 41 %
3920 18-04-2020 06:12:17 8.6 C 41 %
3921 18-04-2020 06:22:17 8.7 C 41 %
3922 18-04-2020 06:32:17 8.3 C 41 %
3923 18-04-2020 06:42:17 8.1 C 41 %
3924 18-04-2020 06:52:17 8.2 C 41 %
3925 18-04-2020 07:02:17 8.4 C 42 %
Sensor: Nr:Datum:Temp:Feuchte:
Aussen-T/F 3926 18-04-2020 07:12:17 8.7 C 42 %
3927 18-04-2020 07:22:17 9.4 C 42 %
3928 18-04-2020 07:32:17 9.6 C 41 %
3929 18-04-2020 07:42:17 9.7 C 41 %
3930 18-04-2020 07:52:17 9.7 C 41 %
3931 18-04-2020 08:02:18 9.7 C 41 %
3932 18-04-2020 08:12:18 10 C 40 %
3933 18-04-2020 08:22:17 10.1 C 40 %
3934 18-04-2020 08:32:17 10.2 C 40 %
3935 18-04-2020 08:42:18 10.6 C 40 %
3936 18-04-2020 08:52:18 11.1 C 39 %
3937 18-04-2020 09:02:17 11.7 C 38 %
3938 18-04-2020 09:12:17 12.1 C 37 %
3939 18-04-2020 09:22:17 12.5 C 36 %
3940 18-04-2020 09:32:18 13.4 C 35 %
3941 18-04-2020 09:42:18 13.8 C 34 %
3942 18-04-2020 09:52:18 14.4 C 32 %
3943 18-04-2020 10:02:18 15 C 31 %
3944 18-04-2020 10:12:18 14.9 C 31 %
3945 18-04-2020 10:22:18 16.2 C 30 %
3946 18-04-2020 10:32:18 15.8 C 30 %
3947 18-04-2020 10:42:18 17.2 C 29 %
3948 18-04-2020 10:52:18 17.9 C 29 %
3949 18-04-2020 11:02:18 18.5 C 27 %
3950 18-04-2020 11:12:18 18.3 C 27 %
Sensor: Nr:Datum:Temp:Feuchte:
Aussen-T/F 3951 18-04-2020 11:22:17 18.5 C 26 %
3952 18-04-2020 11:32:18 17.8 C 27 %
3953 18-04-2020 11:42:18 18.6 C 26 %
3954 18-04-2020 11:52:18 18.9 C 27 %
3955 18-04-2020 12:02:17 19.1 C 26 %
3956 18-04-2020 12:12:17 20 C 25 %
3957 18-04-2020 12:22:18 20.2 C 24 %
3958 18-04-2020 12:32:18 20.1 C 24 %
3959 18-04-2020 12:42:18 19.6 C 25 %
3960 18-04-2020 12:52:17 19.3 C 25 %
3961 18-04-2020 13:02:17 20.8 C 24 %
3962 18-04-2020 13:12:17 21.8 C 21 %
3963 18-04-2020 13:22:18 21.5 C 20 %
3964 18-04-2020 13:32:18 21.8 C 20 %
3965 18-04-2020 13:42:18 22.4 C 20 %
3966 18-04-2020 13:52:18 21.6 C 20 %
3967 18-04-2020 14:02:18 21.2 C 20 %
3968 18-04-2020 14:12:18 21.7 C 20 %
3969 18-04-2020 14:22:18 22.4 C 20 %
3970 18-04-2020 14:32:17 22.4 C 20 %
3971 18-04-2020 14:42:17 22.8 C 20 %
3972 18-04-2020 14:52:17 22.6 C 20 %
3973 18-04-2020 15:02:17 25.4 C 20 %
3974 18-04-2020 15:12:18 30.4 C 20 %
3975 18-04-2020 15:22:17 28.2 C 20 %
Sensor: Nr:Datum:Temp:Feuchte:
Aussen-T/F 3976 18-04-2020 15:32:17 23.8 C 20 %
3977 18-04-2020 15:42:17 23.2 C 20 %
3978 18-04-2020 15:52:17 22.2 C 20 %
3979 18-04-2020 16:02:18 21.8 C 20 %
3980 18-04-2020 16:12:18 21.8 C 20 %
3981 18-04-2020 16:22:18 20.6 C 20 %
3982 18-04-2020 16:32:17 19.7 C 25 %
3983 18-04-2020 16:42:17 20 C 25 %
3984 18-04-2020 16:52:17 19.9 C 25 %
3985 18-04-2020 17:02:17 19.1 C 26 %
3986 18-04-2020 17:12:17 18.9 C 27 %
3987 18-04-2020 17:22:17 18.7 C 28 %
3988 18-04-2020 17:32:18 17.6 C 33 %
3989 18-04-2020 17:42:18 17.5 C 33 %
3990 18-04-2020 17:52:18 17.4 C 33 %
3991 18-04-2020 18:02:18 17.3 C 34 %
3992 18-04-2020 18:12:18 17.1 C 34 %
3993 18-04-2020 18:22:17 17.3 C 33 %
3994 18-04-2020 18:32:18 17.7 C 31 %
3995 18-04-2020 18:42:18 17.7 C 31 %
3996 18-04-2020 18:52:17 17.9 C 30 %
3997 18-04-2020 19:02:18 18.1 C 30 %
3998 18-04-2020 19:12:18 17.9 C 30 %
3999 18-04-2020 19:22:17 17.6 C 30 %
4000 18-04-2020 19:32:17 17.8 C 30 %
Sensor: Nr:Datum:Temp:Feuchte:
Aussen-T/F 4001 18-04-2020 19:42:17 18.1 C 29 %
4002 18-04-2020 19:52:18 17.7 C 30 %
4003 18-04-2020 20:02:17 17.3 C 30 %
4004 18-04-2020 20:12:17 16.5 C 30 %
4005 18-04-2020 20:22:17 15.9 C 31 %
4006 18-04-2020 20:32:17 15 C 32 %
4007 18-04-2020 20:42:17 14.8 C 34 %
4008 18-04-2020 20:52:17 14.5 C 34 %
4009 18-04-2020 21:02:18 14.5 C 35 %
4010 18-04-2020 21:12:18 14.9 C 34 %
4011 18-04-2020 21:22:17 15 C 33 %
4012 18-04-2020 21:32:17 15.1 C 33 %
4013 18-04-2020 21:42:17 15 C 33 %
4014 18-04-2020 21:52:18 14.8 C 34 %
4015 18-04-2020 22:02:17 14.4 C 34 %
4016 18-04-2020 22:12:17 14.5 C 35 %
4017 18-04-2020 22:22:17 13.7 C 35 %
4018 18-04-2020 22:32:18 13.4 C 36 %
4019 18-04-2020 22:42:18 12.8 C 37 %
4020 18-04-2020 22:52:17 12.8 C 37 %
4021 18-04-2020 23:02:18 12.7 C 38 %
4022 18-04-2020 23:12:18 12.3 C 38 %
4023 18-04-2020 23:22:17 12.1 C 38 %
4024 18-04-2020 23:32:17 11.7 C 40 %
4025 18-04-2020 23:42:17 11.1 C 40 %
Sensor: Nr:Datum:Temp:Feuchte:
Aussen-T/F 4026 18-04-2020 23:52:17 10.9 C 42 %
4027 19-04-2020 00:02:18 10.6 C 43 %
4028 19-04-2020 00:12:18 10.7 C 43 %
4029 19-04-2020 00:22:17 10.2 C 43 %
4030 19-04-2020 00:32:17 10.2 C 43 %
4031 19-04-2020 00:42:17 10.1 C 44 %
4032 19-04-2020 00:52:17 9.8 C 44 %
4033 19-04-2020 01:02:17 9.8 C 45 %
4034 19-04-2020 01:12:17 9.9 C 45 %
4035 19-04-2020 01:22:17 9.6 C 44 %
4036 19-04-2020 01:32:17 9.6 C 45 %
4037 19-04-2020 01:42:17 9.9 C 45 %
4038 19-04-2020 01:52:17 9.5 C 45 %
4039 19-04-2020 02:02:17 9.5 C 45 %
4040 19-04-2020 02:12:18 9.6 C 45 %
4041 19-04-2020 02:22:17 9.7 C 45 %
4042 19-04-2020 02:32:17 10 C 45 %
4043 19-04-2020 02:42:17 10 C 44 %
4044 19-04-2020 02:52:17 9.8 C 45 %
4045 19-04-2020 03:02:17 9.6 C 45 %
4046 19-04-2020 03:12:17 9.3 C 44 %
4047 19-04-2020 03:22:17 9.1 C 45 %
4048 19-04-2020 03:32:17 8.9 C 45 %
4049 19-04-2020 03:42:17 8.7 C 45 %
4050 19-04-2020 03:52:17 8.7 C 45 %
Sensor: Nr:Datum:Temp:Feuchte:
Aussen-T/F 4051 19-04-2020 04:02:17 8.5 C 45 %
4052 19-04-2020 04:12:17 9.2 C 45 %
4053 19-04-2020 04:22:17 9.2 C 45 %
4054 19-04-2020 04:32:17 9.4 C 45 %
4055 19-04-2020 04:42:17 9.6 C 45 %
4056 19-04-2020 04:52:17 9.6 C 45 %
4057 19-04-2020 05:02:17 9.7 C 45 %
4058 19-04-2020 05:12:17 9.6 C 45 %
4059 19-04-2020 05:22:18 9.6 C 45 %
4060 19-04-2020 05:32:17 9.7 C 45 %
4061 19-04-2020 05:42:17 9.7 C 45 %
4062 19-04-2020 05:52:17 9.8 C 45 %
4063 19-04-2020 06:02:17 9.9 C 45 %
4064 19-04-2020 06:12:17 10.1 C 44 %
4065 19-04-2020 06:22:17 10.1 C 44 %
4066 19-04-2020 06:32:17 10.2 C 44 %
4067 19-04-2020 06:42:17 10.2 C 44 %
4068 19-04-2020 06:52:18 10.3 C 44 %
4069 19-04-2020 07:02:18 10.3 C 44 %
4070 19-04-2020 07:12:18 10.4 C 44 %
4071 19-04-2020 07:22:17 10.6 C 44 %
4072 19-04-2020 07:32:18 10.5 C 43 %
4073 19-04-2020 07:42:18 10.6 C 43 %
4074 19-04-2020 07:52:17 10.6 C 43 %
4075 19-04-2020 08:02:17 10.7 C 43 %
Sensor: Nr:Datum:Temp:Feuchte:
Aussen-T/F 4076 19-04-2020 08:12:17 11.3 C 42 %
4077 19-04-2020 08:22:17 11.5 C 41 %
4078 19-04-2020 08:32:17 12 C 40 %
4079 19-04-2020 08:42:17 12.4 C 39 %
4080 19-04-2020 08:52:17 13.2 C 37 %
4081 19-04-2020 09:02:17 12.5 C 38 %
4082 19-04-2020 09:12:18 13 C 37 %
4083 19-04-2020 09:22:18 13.2 C 36 %
4084 19-04-2020 09:32:17 13.5 C 36 %
4085 19-04-2020 09:42:17 13.8 C 36 %
4086 19-04-2020 09:52:17 13.8 C 35 %
4087 19-04-2020 10:02:17 13.7 C 35 %
4088 19-04-2020 10:12:17 14.2 C 35 %
4089 19-04-2020 10:22:17 14.7 C 34 %
4090 19-04-2020 10:32:17 15.5 C 33 %
4091 19-04-2020 10:42:17 16.4 C 31 %
4092 19-04-2020 10:52:17 16.4 C 31 %
4093 19-04-2020 11:02:17 15.7 C 32 %
4094 19-04-2020 11:12:17 14.7 C 33 %
4095 19-04-2020 11:22:17 14.7 C 33 %
4096 19-04-2020 11:32:17 14.4 C 34 %
4097 19-04-2020 11:42:17 14 C 34 %
4098 19-04-2020 11:52:17 13.8 C 35 %
4099 19-04-2020 12:02:17 14.2 C 34 %
4100 19-04-2020 12:12:17 14.7 C 34 %
Sensor: Nr:Datum:Temp:Feuchte:
Aussen-T/F 4101 19-04-2020 12:22:17 16 C 31 %
4102 19-04-2020 12:32:18 16 C 31 %
4103 19-04-2020 12:42:18 16.3 C 30 %
4104 19-04-2020 12:52:17 16.9 C 30 %
4105 19-04-2020 13:02:17 17.4 C 28 %
4106 19-04-2020 13:12:17 16.9 C 29 %
4107 19-04-2020 13:22:17 17.4 C 27 %
4108 19-04-2020 13:32:17 18.8 C 26 %
4109 19-04-2020 13:42:17 19.1 C 25 %
4110 19-04-2020 13:52:17 19.3 C 25 %
4111 19-04-2020 14:02:18 18.8 C 25 %
4112 19-04-2020 14:12:18 18.6 C 25 %
4113 19-04-2020 14:22:17 18.1 C 25 %
4114 19-04-2020 14:32:17 17.4 C 26 %
4115 19-04-2020 14:42:17 18 C 26 %
4116 19-04-2020 14:52:17 17.1 C 26 %
4117 19-04-2020 15:02:18 16.9 C 26 %
4118 19-04-2020 15:12:18 16.6 C 26 %
4119 19-04-2020 15:22:17 17 C 25 %
4120 19-04-2020 15:32:17 17.2 C 25 %
4121 19-04-2020 15:42:18 17.8 C 25 %
4122 19-04-2020 15:52:18 18.1 C 24 %
4123 19-04-2020 16:02:17 19.2 C 22 %
4124 19-04-2020 16:12:17 22.2 C 20 %
4125 19-04-2020 16:22:17 20.2 C 20 %
Sensor: Nr:Datum:Temp:Feuchte:
Aussen-T/F 4126 19-04-2020 16:32:17 18.6 C 20 %
4127 19-04-2020 16:42:17 20.5 C 20 %
4128 19-04-2020 16:52:17 21.3 C 20 %
4129 19-04-2020 17:02:17 17.5 C 20 %
4130 19-04-2020 17:12:17 18.6 C 20 %
4131 19-04-2020 17:22:17 19.7 C 20 %
4132 19-04-2020 17:32:18 18.9 C 20 %
4133 19-04-2020 17:42:18 19.2 C 20 %
4134 19-04-2020 17:52:17 18.6 C 20 %
4135 19-04-2020 18:02:18 17.4 C 20 %
4136 19-04-2020 18:12:18 17.3 C 20 %
4137 19-04-2020 18:22:17 17.3 C 20 %
4138 19-04-2020 18:32:17 17.3 C 20 %
4139 19-04-2020 18:42:17 16.8 C 20 %
4140 19-04-2020 18:52:17 16.8 C 20 %
4141 19-04-2020 19:02:17 16.8 C 20 %
4142 19-04-2020 19:12:17 16.7 C 20 %
4143 19-04-2020 19:22:17 16.3 C 20 %
4144 19-04-2020 19:32:18 16 C 20 %
4145 19-04-2020 19:42:18 15.6 C 20 %
4146 19-04-2020 19:52:17 15.1 C 20 %
4147 19-04-2020 20:02:18 14.7 C 20 %
4148 19-04-2020 20:12:18 13.7 C 23 %
4149 19-04-2020 20:22:17 13.3 C 24 %
4150 19-04-2020 20:32:17 13 C 25 %
Sensor: Nr:Datum:Temp:Feuchte:
Aussen-T/F 4151 19-04-2020 20:42:17 12.5 C 26 %
4152 19-04-2020 20:52:17 12.3 C 26 %
4153 19-04-2020 21:02:18 12 C 26 %
4154 19-04-2020 21:12:18 12 C 26 %
4155 19-04-2020 21:22:17 11.7 C 27 %
4156 19-04-2020 21:32:17 11.5 C 27 %
4157 19-04-2020 21:42:17 11.4 C 27 %
4158 19-04-2020 21:52:17 11 C 27 %
4159 19-04-2020 22:02:17 11.2 C 26 %
4160 19-04-2020 22:12:17 11 C 26 %
4161 19-04-2020 22:22:17 11.1 C 26 %
4162 19-04-2020 22:32:17 10.9 C 26 %
4163 19-04-2020 22:42:17 10.3 C 26 %
4164 19-04-2020 22:52:17 10.2 C 26 %
4165 19-04-2020 23:02:18 11.1 C 25 %
4166 19-04-2020 23:12:18 10.1 C 25 %
4167 19-04-2020 23:22:18 9.7 C 27 %
4168 19-04-2020 23:32:17 10.3 C 22 %
4169 19-04-2020 23:42:17 10.3 C 25 %
4170 19-04-2020 23:52:17 10.3 C 23 %
4171 20-04-2020 00:02:17 10.1 C 25 %
4172 20-04-2020 00:12:17 9.6 C 25 %
4173 20-04-2020 00:22:17 10.1 C 21 %
4174 20-04-2020 00:32:18 9.9 C 23 %
4175 20-04-2020 00:42:18 9.6 C 25 %
Sensor: Nr:Datum:Temp:Feuchte:
Aussen-T/F 4176 20-04-2020 00:52:18 9.3 C 25 %
4177 20-04-2020 01:02:17 9.8 C 23 %
4178 20-04-2020 01:12:17 9.3 C 23 %
4179 20-04-2020 01:22:17 9.1 C 21 %
4180 20-04-2020 01:32:17 9.6 C 21 %
4181 20-04-2020 01:42:17 9.1 C 21 %
4182 20-04-2020 01:52:17 8.5 C 25 %
4183 20-04-2020 02:02:18 8.1 C 26 %
4184 20-04-2020 02:12:18 7.9 C 26 %
4185 20-04-2020 02:22:17 7.5 C 27 %
4186 20-04-2020 02:32:18 7.3 C 27 %
4187 20-04-2020 02:42:18 7.3 C 27 %
4188 20-04-2020 02:52:17 7.3 C 27 %
4189 20-04-2020 03:02:17 7 C 27 %
4190 20-04-2020 03:12:17 6.9 C 28 %
4191 20-04-2020 03:22:17 6.7 C 29 %
4192 20-04-2020 03:32:17 6.9 C 28 %
4193 20-04-2020 03:42:17 6.9 C 28 %
4194 20-04-2020 03:52:17 6.7 C 29 %
4195 20-04-2020 04:02:17 6.6 C 28 %
4196 20-04-2020 04:12:17 6.5 C 28 %
4197 20-04-2020 04:22:17 6.4 C 29 %
4198 20-04-2020 04:32:18 6.4 C 28 %
4199 20-04-2020 04:42:18 6.4 C 28 %
4200 20-04-2020 04:52:17 6.2 C 29 %
Sensor: Nr:Datum:Temp:Feuchte:
Aussen-T/F 4201 20-04-2020 05:02:18 6.4 C 29 %
4202 20-04-2020 05:12:18 6.3 C 29 %
4203 20-04-2020 05:22:17 6.3 C 29 %
4204 20-04-2020 05:32:17 6.2 C 30 %
4205 20-04-2020 05:42:18 6.3 C 29 %
4206 20-04-2020 05:52:17 6.3 C 29 %
4207 20-04-2020 06:02:18 6 C 30 %
4208 20-04-2020 06:12:18 5.9 C 30 %
4209 20-04-2020 06:22:17 5.9 C 30 %
4210 20-04-2020 06:32:17 6.1 C 30 %
4211 20-04-2020 06:42:17 6.1 C 30 %
4212 20-04-2020 06:52:17 5.9 C 30 %
4213 20-04-2020 07:02:17 6.1 C 30 %
4214 20-04-2020 07:12:17 6.2 C 30 %
4215 20-04-2020 07:22:17 6.2 C 30 %
4216 20-04-2020 07:32:17 6.4 C 30 %
4217 20-04-2020 07:42:17 7.2 C 27 %
4218 20-04-2020 07:52:17 7.4 C 27 %
4219 20-04-2020 08:02:18 7.3 C 27 %
4220 20-04-2020 08:12:18 7.9 C 26 %
4221 20-04-2020 08:22:17 7.8 C 27 %
4222 20-04-2020 08:32:17 7.7 C 28 %
4223 20-04-2020 08:42:18 7.9 C 26 %
4224 20-04-2020 08:52:18 8.1 C 26 %
4225 20-04-2020 09:02:17 8.3 C 26 %
Sensor: Nr:Datum:Temp:Feuchte:
Aussen-T/F 4226 20-04-2020 09:12:17 8.2 C 27 %
4227 20-04-2020 09:22:17 8.4 C 27 %
4228 20-04-2020 09:32:17 9 C 25 %
4229 20-04-2020 09:42:17 9.4 C 25 %
4230 20-04-2020 09:52:18 9.4 C 26 %
4231 20-04-2020 10:02:18 9.9 C 26 %
4232 20-04-2020 10:12:18 10.7 C 22 %
4233 20-04-2020 10:22:17 11.4 C 20 %
4234 20-04-2020 10:32:17 12.1 C 20 %
4235 20-04-2020 10:42:18 12.7 C 20 %
4236 20-04-2020 10:52:17 13.1 C 20 %
4237 20-04-2020 11:02:18 13.7 C 20 %
4238 20-04-2020 11:12:18 14 C 20 %
4239 20-04-2020 11:22:17 14.4 C 20 %
4240 20-04-2020 11:32:17 14.7 C 20 %
4241 20-04-2020 11:42:18 14.8 C 20 %
4242 20-04-2020 11:52:17 15 C 20 %
4243 20-04-2020 12:02:17 15.2 C 20 %
4244 20-04-2020 12:12:17 15 C 20 %
4245 20-04-2020 12:22:17 15 C 20 %
4246 20-04-2020 12:32:17 15.1 C 20 %
4247 20-04-2020 12:42:17 15.1 C 20 %
4248 20-04-2020 12:52:17 15.4 C 20 %
4249 20-04-2020 13:02:17 15.4 C 20 %
4250 20-04-2020 13:12:17 16 C 20 %
Sensor: Nr:Datum:Temp:Feuchte:
Aussen-T/F 4251 20-04-2020 13:22:17 15.8 C 20 %
4252 20-04-2020 13:32:17 16.1 C 20 %
4253 20-04-2020 13:42:17 16.1 C 20 %
4254 20-04-2020 13:52:17 16.8 C 20 %
4255 20-04-2020 14:02:17 16.9 C 20 %
4256 20-04-2020 14:12:17 17.3 C 20 %
4257 20-04-2020 14:22:17 18.3 C 20 %
4258 20-04-2020 14:32:18 21 C 20 %
4259 20-04-2020 14:42:18 23 C 20 %
4260 20-04-2020 14:52:18 23.2 C 20 %
4261 20-04-2020 15:02:17 22.9 C 20 %
4262 20-04-2020 15:12:17 21.8 C 20 %
4263 20-04-2020 15:22:17 22.9 C 20 %
4264 20-04-2020 15:32:17 23.3 C 20 %
4265 20-04-2020 15:42:17 24.7 C 20 %
4266 20-04-2020 15:52:17 22.5 C 20 %
4267 20-04-2020 16:02:17 24.5 C 20 %
4268 20-04-2020 16:12:17 22.7 C 20 %
4269 20-04-2020 16:22:17 23 C 20 %
4270 20-04-2020 16:32:17 23.5 C 20 %
4271 20-04-2020 16:42:17 23.6 C 20 %
4272 20-04-2020 16:52:17 23.4 C 20 %
4273 20-04-2020 17:02:17 23.7 C 20 %
4274 20-04-2020 17:12:17 22.3 C 20 %
4275 20-04-2020 17:22:17 21.6 C 20 %
Sensor: Nr:Datum:Temp:Feuchte:
Aussen-T/F 4276 20-04-2020 17:32:17 20.4 C 20 %
4277 20-04-2020 17:42:17 22.4 C 20 %
4278 20-04-2020 17:52:17 20.9 C 20 %
4279 20-04-2020 18:02:18 19.1 C 20 %
4280 20-04-2020 18:12:18 19 C 20 %
4281 20-04-2020 18:22:18 18.5 C 20 %
4282 20-04-2020 18:32:17 18.4 C 20 %
4283 20-04-2020 18:42:18 18.2 C 20 %
4284 20-04-2020 18:52:18 18.3 C 20 %
4285 20-04-2020 19:02:17 17.8 C 20 %
4286 20-04-2020 19:12:17 17.6 C 20 %
4287 20-04-2020 19:22:17 17.2 C 20 %
4288 20-04-2020 19:32:17 17 C 20 %
4289 20-04-2020 19:42:17 16.6 C 20 %
4290 20-04-2020 19:52:17 16.3 C 20 %
4291 20-04-2020 20:02:17 16 C 20 %
4292 20-04-2020 20:12:17 15.6 C 20 %
4293 20-04-2020 20:22:17 15 C 20 %
4294 20-04-2020 20:32:17 14.4 C 20 %
4295 20-04-2020 20:42:17 14.5 C 20 %
4296 20-04-2020 20:52:17 13.8 C 20 %
4297 20-04-2020 21:02:17 13.7 C 20 %
4298 20-04-2020 21:12:17 12.9 C 20 %
4299 20-04-2020 21:22:17 12.6 C 20 %
4300 20-04-2020 21:32:17 12 C 20 %
Sensor: Nr:Datum:Temp:Feuchte:
Aussen-T/F 4301 20-04-2020 21:42:17 12.2 C 20 %
4302 20-04-2020 21:52:17 12.6 C 20 %
4303 20-04-2020 22:02:17 11.8 C 20 %
4304 20-04-2020 22:12:17 11.9 C 20 %
4305 20-04-2020 22:22:17 12.1 C 20 %
4306 20-04-2020 22:32:17 12.2 C 20 %
4307 20-04-2020 22:42:17 11.9 C 20 %
4308 20-04-2020 22:52:18 11.5 C 20 %
4309 20-04-2020 23:02:17 11.5 C 20 %
4310 20-04-2020 23:12:17 11.6 C 20 %
4311 20-04-2020 23:22:17 11 C 20 %
4312 20-04-2020 23:32:18 11.6 C 20 %
4313 20-04-2020 23:42:18 11 C 20 %
4314 20-04-2020 23:52:17 11 C 20 %
4315 21-04-2020 00:02:17 10.9 C 20 %
4316 21-04-2020 00:12:17 10.3 C 20 %
4317 21-04-2020 00:22:17 10.4 C 20 %
4318 21-04-2020 00:32:17 9.9 C 20 %
4319 21-04-2020 00:42:17 10.5 C 20 %
4320 21-04-2020 00:52:17 10 C 20 %
4321 21-04-2020 01:02:18 9.4 C 20 %
4322 21-04-2020 01:12:18 8.9 C 20 %
4323 21-04-2020 01:22:18 9 C 20 %
4324 21-04-2020 01:32:18 8.9 C 20 %
4325 21-04-2020 01:42:18 9.2 C 20 %
Sensor: Nr:Datum:Temp:Feuchte:
Aussen-T/F 4326 21-04-2020 01:52:17 8.4 C 20 %
4327 21-04-2020 02:02:17 9.2 C 20 %
4328 21-04-2020 02:12:18 9.1 C 20 %
4329 21-04-2020 02:22:17 9.1 C 20 %
4330 21-04-2020 02:32:18 8.9 C 20 %
4331 21-04-2020 02:42:18 9.2 C 20 %
4332 21-04-2020 02:52:17 9 C 20 %
4333 21-04-2020 03:02:17 9.3 C 20 %
4334 21-04-2020 03:12:17 9.1 C 20 %
4335 21-04-2020 03:22:18 9.2 C 20 %
4336 21-04-2020 03:32:17 9.1 C 20 %
4337 21-04-2020 03:42:17 8.3 C 20 %
4338 21-04-2020 03:52:18 8.6 C 20 %
4339 21-04-2020 04:02:18 8.1 C 20 %
4340 21-04-2020 04:12:18 7.4 C 23 %
4341 21-04-2020 04:22:17 7.8 C 20 %
4342 21-04-2020 04:32:17 7.7 C 23 %
4343 21-04-2020 04:42:17 7.5 C 25 %
4344 21-04-2020 04:52:17 7.5 C 25 %
4345 21-04-2020 05:02:17 7.1 C 25 %
4346 21-04-2020 05:12:17 7.7 C 25 %
4347 21-04-2020 05:22:17 7.3 C 25 %
4348 21-04-2020 05:32:18 7 C 25 %
4349 21-04-2020 05:42:18 6.8 C 26 %
4350 21-04-2020 05:52:17 6.5 C 27 %
Sensor: Nr:Datum:Temp:Feuchte:
Aussen-T/F 4351 21-04-2020 06:02:17 6.9 C 27 %
4352 21-04-2020 06:12:17 6.6 C 27 %
4353 21-04-2020 06:22:18 6.6 C 27 %
4354 21-04-2020 06:32:18 6.3 C 28 %
4355 21-04-2020 06:42:18 6.4 C 28 %
4356 21-04-2020 06:52:17 6.3 C 29 %
4357 21-04-2020 07:02:18 6.1 C 30 %
4358 21-04-2020 07:12:18 6.2 C 29 %
4359 21-04-2020 07:22:17 6.3 C 30 %
4360 21-04-2020 07:32:17 6.5 C 30 %
4361 21-04-2020 07:42:17 7.3 C 27 %
4362 21-04-2020 07:52:17 6.9 C 29 %
4363 21-04-2020 08:02:17 7.4 C 27 %
4364 21-04-2020 08:12:17 7.7 C 26 %
4365 21-04-2020 08:22:17 7.6 C 26 %
4366 21-04-2020 08:32:17 7.2 C 28 %
4367 21-04-2020 08:42:18 7.5 C 27 %
4368 21-04-2020 08:52:17 8.3 C 27 %
4369 21-04-2020 09:02:17 8.7 C 25 %
4370 21-04-2020 09:12:17 9.2 C 23 %
4371 21-04-2020 09:22:17 9.7 C 21 %
4372 21-04-2020 09:32:17 10.2 C 20 %
4373 21-04-2020 09:42:17 10.7 C 20 %
4374 21-04-2020 09:52:17 10.9 C 20 %
4375 21-04-2020 10:02:17 10.9 C 20 %
Sensor: Nr:Datum:Temp:Feuchte:
Aussen-T/F 4376 21-04-2020 10:12:17 11.7 C 20 %
4377 21-04-2020 10:22:17 12.2 C 20 %
4378 21-04-2020 10:32:17 12.8 C 20 %
4379 21-04-2020 10:42:17 13.2 C 20 %
4380 21-04-2020 10:52:17 13.5 C 20 %
4381 21-04-2020 11:02:17 13.9 C 20 %
4382 21-04-2020 11:12:17 14.6 C 20 %
4383 21-04-2020 11:22:17 14.6 C 20 %
4384 21-04-2020 11:32:18 14.7 C 20 %
4385 21-04-2020 11:42:18 15.2 C 20 %
4386 21-04-2020 11:52:18 15.7 C 20 %
4387 21-04-2020 12:02:17 16.4 C 20 %
4388 21-04-2020 12:12:18 16.1 C 20 %
4389 21-04-2020 12:22:17 16.1 C 20 %
4390 21-04-2020 12:32:17 16.2 C 20 %
4391 21-04-2020 12:42:17 16.4 C 20 %
4392 21-04-2020 12:52:17 16.6 C 20 %
4393 21-04-2020 13:02:17 16.9 C 20 %
4394 21-04-2020 13:12:17 17.4 C 20 %
4395 21-04-2020 13:22:17 17.2 C 20 %
4396 21-04-2020 13:32:17 17.3 C 20 %
4397 21-04-2020 13:42:17 17.9 C 20 %
4398 21-04-2020 13:52:17 18.1 C 20 %
4399 21-04-2020 14:02:17 18.5 C 20 %
4400 21-04-2020 14:12:17 19 C 20 %
Sensor: Nr:Datum:Temp:Feuchte:
Aussen-T/F 4401 21-04-2020 14:22:17 19.4 C 20 %
4402 21-04-2020 14:32:17 22 C 20 %
4403 21-04-2020 14:42:17 24.4 C 20 %
4404 21-04-2020 14:52:17 24.2 C 20 %
4405 21-04-2020 15:02:17 24.5 C 20 %
4406 21-04-2020 15:12:17 22.2 C 20 %
4407 21-04-2020 15:22:17 23.7 C 20 %
4408 21-04-2020 15:32:18 23.2 C 20 %
4409 21-04-2020 15:42:18 24 C 20 %
4410 21-04-2020 15:52:17 23.4 C 20 %
4411 21-04-2020 16:02:18 22.8 C 20 %
4412 21-04-2020 16:12:18 23.2 C 20 %
4413 21-04-2020 16:22:17 22.9 C 20 %
4414 21-04-2020 16:32:17 23.2 C 20 %
4415 21-04-2020 16:42:17 24.3 C 20 %
4416 21-04-2020 16:52:17 22.8 C 20 %
4417 21-04-2020 17:02:17 23.6 C 20 %
4418 21-04-2020 17:12:17 24.8 C 20 %
4419 21-04-2020 17:22:18 22.8 C 20 %
4420 21-04-2020 17:32:17 21.9 C 20 %
4421 21-04-2020 17:42:17 22.3 C 20 %
4422 21-04-2020 17:52:17 22.9 C 20 %
4423 21-04-2020 18:02:18 21.1 C 20 %
4424 21-04-2020 18:12:18 20.9 C 20 %
4425 21-04-2020 18:22:17 20.5 C 20 %
Sensor: Nr:Datum:Temp:Feuchte:
Aussen-T/F 4426 21-04-2020 18:32:17 20.3 C 20 %
4427 21-04-2020 18:42:17 20 C 20 %
4428 21-04-2020 18:52:18 20 C 20 %
4429 21-04-2020 19:02:17 19.6 C 20 %
4430 21-04-2020 19:12:17 19.4 C 20 %
4431 21-04-2020 19:22:17 19.1 C 20 %
4432 21-04-2020 19:32:18 18.9 C 20 %
4433 21-04-2020 19:42:18 18.7 C 20 %
4434 21-04-2020 19:52:17 18.3 C 20 %
4435 21-04-2020 20:02:17 17.9 C 20 %
4436 21-04-2020 20:12:17 17.4 C 20 %
4437 21-04-2020 20:22:17 16.7 C 20 %
4438 21-04-2020 20:32:17 16.2 C 20 %
4439 21-04-2020 20:42:17 15.5 C 20 %
4440 21-04-2020 20:52:17 14.8 C 20 %
4441 21-04-2020 21:02:18 14.2 C 20 %
4442 21-04-2020 21:12:18 14.5 C 20 %
4443 21-04-2020 21:22:17 14.1 C 20 %
4444 21-04-2020 21:32:17 13.9 C 20 %
4445 21-04-2020 21:42:17 13.2 C 20 %
4446 21-04-2020 21:52:18 12.9 C 20 %
4447 21-04-2020 22:02:17 13.2 C 20 %
4448 21-04-2020 22:12:17 13 C 20 %
4449 21-04-2020 22:22:17 13.4 C 20 %
4450 21-04-2020 22:32:17 12.6 C 20 %
Sensor: Nr:Datum:Temp:Feuchte:
Aussen-T/F 4451 21-04-2020 22:42:17 12 C 20 %
4452 21-04-2020 22:52:18 11.8 C 20 %
4453 21-04-2020 23:02:18 12.1 C 20 %
4454 21-04-2020 23:12:18 11.8 C 20 %
4455 21-04-2020 23:22:17 11.5 C 20 %
4456 21-04-2020 23:32:18 11.3 C 20 %
4457 21-04-2020 23:42:18 11.3 C 20 %
4458 21-04-2020 23:52:18 11.1 C 20 %
Sensor: Nr:Datum:Temp:Feuchte:
G-T/H 1 22-03-2020 00:00:18 10.7 C 60 %
2 22-03-2020 00:10:18 10.6 C 60 %
3 22-03-2020 00:20:17 10.6 C 60 %
4 22-03-2020 00:30:17 10.6 C 60 %
5 22-03-2020 00:40:17 10.5 C 60 %
6 22-03-2020 00:50:17 10.5 C 60 %
7 22-03-2020 01:00:18 10.5 C 59 %
8 22-03-2020 01:10:18 10.5 C 59 %
9 22-03-2020 01:20:18 10.4 C 59 %
10 22-03-2020 01:30:18 10.4 C 59 %
11 22-03-2020 01:40:18 10.4 C 59 %
12 22-03-2020 01:50:18 10.4 C 59 %
13 22-03-2020 02:00:18 10.4 C 59 %
14 22-03-2020 02:10:18 10.3 C 59 %
15 22-03-2020 02:20:17 10.3 C 58 %
16 22-03-2020 02:30:18 10.3 C 58 %
17 22-03-2020 02:40:18 10.2 C 58 %
18 22-03-2020 02:50:18 10.2 C 58 %
19 22-03-2020 03:00:18 10.2 C 58 %
20 22-03-2020 03:10:18 10.2 C 58 %
21 22-03-2020 03:20:18 10.1 C 58 %
22 22-03-2020 03:30:18 10.1 C 58 %
23 22-03-2020 03:40:18 10.1 C 58 %
24 22-03-2020 03:50:17 10.1 C 58 %
25 22-03-2020 04:00:17 10.1 C 58 %
Sensor: Nr:Datum:Temp:Feuchte:
G-T/H 26 22-03-2020 04:10:17 10 C 58 %
27 22-03-2020 04:20:17 10 C 58 %
28 22-03-2020 04:30:17 10 C 58 %
29 22-03-2020 04:40:17 10 C 59 %
30 22-03-2020 04:50:17 10 C 59 %
31 22-03-2020 05:00:18 10 C 59 %
32 22-03-2020 05:10:18 10 C 59 %
33 22-03-2020 05:20:17 9.9 C 60 %
34 22-03-2020 05:30:18 9.9 C 60 %
35 22-03-2020 05:40:18 9.9 C 61 %
36 22-03-2020 05:50:17 9.8 C 61 %
37 22-03-2020 06:00:17 9.9 C 61 %
38 22-03-2020 06:10:17 9.8 C 61 %
39 22-03-2020 06:20:17 9.8 C 61 %
40 22-03-2020 06:30:17 9.8 C 61 %
41 22-03-2020 06:40:17 9.8 C 61 %
42 22-03-2020 06:50:18 9.8 C 61 %
43 22-03-2020 07:00:18 9.8 C 61 %
44 22-03-2020 07:10:18 9.7 C 61 %
45 22-03-2020 07:20:18 9.7 C 61 %
46 22-03-2020 07:30:18 9.7 C 61 %
47 22-03-2020 07:40:18 9.7 C 61 %
48 22-03-2020 07:50:17 9.7 C 61 %
49 22-03-2020 08:00:18 9.7 C 61 %
50 22-03-2020 08:10:18 9.6 C 61 %
Sensor: Nr:Datum:Temp:Feuchte:
G-T/H 51 22-03-2020 08:20:18 9.6 C 61 %
52 22-03-2020 08:30:18 9.6 C 61 %
53 22-03-2020 08:40:18 9.6 C 61 %
54 22-03-2020 08:50:18 9.5 C 61 %
55 22-03-2020 09:00:18 9.5 C 61 %
56 22-03-2020 09:10:18 9.5 C 62 %
57 22-03-2020 09:20:18 9.5 C 62 %
58 22-03-2020 09:30:18 9.5 C 61 %
59 22-03-2020 09:40:18 9.5 C 61 %
60 22-03-2020 09:50:17 9.5 C 61 %
61 22-03-2020 10:00:18 9.4 C 61 %
62 22-03-2020 10:10:18 9.4 C 62 %
63 22-03-2020 10:20:18 9.4 C 62 %
64 22-03-2020 10:30:18 9.4 C 61 %
65 22-03-2020 10:40:18 9.4 C 61 %
66 22-03-2020 10:50:17 9.4 C 61 %
67 22-03-2020 11:00:18 9.4 C 61 %
68 22-03-2020 11:10:18 9.4 C 61 %
69 22-03-2020 11:20:17 9.3 C 61 %
70 22-03-2020 11:30:18 9.3 C 61 %
71 22-03-2020 11:40:18 9.3 C 61 %
72 22-03-2020 11:50:17 9.3 C 61 %
73 22-03-2020 12:00:18 9.4 C 61 %
74 22-03-2020 12:10:18 9.3 C 61 %
75 22-03-2020 12:20:18 9.3 C 61 %
Sensor: Nr:Datum:Temp:Feuchte:
G-T/H 76 22-03-2020 12:30:17 9.3 C 61 %
77 22-03-2020 12:40:17 9.3 C 61 %
78 22-03-2020 12:50:18 9.3 C 61 %
79 22-03-2020 13:00:18 9.3 C 61 %
80 22-03-2020 13:10:18 9.3 C 61 %
81 22-03-2020 13:20:17 9.3 C 61 %
82 22-03-2020 13:30:18 9.3 C 61 %
83 22-03-2020 13:40:18 9.3 C 61 %
84 22-03-2020 13:50:18 9.3 C 61 %
85 22-03-2020 14:00:17 9.3 C 61 %
86 22-03-2020 14:10:17 9.3 C 61 %
87 22-03-2020 14:20:17 9.3 C 61 %
88 22-03-2020 14:30:17 9.3 C 61 %
89 22-03-2020 14:40:17 9.3 C 61 %
90 22-03-2020 14:50:17 9.3 C 61 %
91 22-03-2020 15:00:18 9.3 C 61 %
92 22-03-2020 15:10:18 9.4 C 61 %
93 22-03-2020 15:20:17 9.4 C 61 %
94 22-03-2020 15:30:17 9.4 C 61 %
95 22-03-2020 15:40:17 9.4 C 61 %
96 22-03-2020 15:50:18 9.4 C 62 %
97 22-03-2020 16:00:18 9.4 C 62 %
98 22-03-2020 16:10:18 9.4 C 62 %
99 22-03-2020 16:20:18 9.4 C 62 %
100 22-03-2020 16:30:18 9.5 C 62 %
Sensor: Nr:Datum:Temp:Feuchte:
G-T/H 101 22-03-2020 16:40:18 9.5 C 62 %
102 22-03-2020 16:50:17 9.4 C 62 %
103 22-03-2020 17:00:17 9.5 C 62 %
104 22-03-2020 17:10:17 9.4 C 62 %
105 22-03-2020 17:20:17 9.5 C 62 %
106 22-03-2020 17:30:17 9.5 C 62 %
107 22-03-2020 17:40:17 9.5 C 62 %
108 22-03-2020 17:50:17 9.5 C 62 %
109 22-03-2020 18:00:18 9.5 C 62 %
110 22-03-2020 18:10:18 9.5 C 62 %
111 22-03-2020 18:20:17 9.5 C 62 %
112 22-03-2020 18:30:17 9.5 C 62 %
113 22-03-2020 18:40:17 9.5 C 63 %
114 22-03-2020 18:50:17 9.5 C 63 %
115 22-03-2020 19:00:17 9.5 C 63 %
116 22-03-2020 19:10:17 9.5 C 63 %
117 22-03-2020 19:20:17 9.5 C 63 %
118 22-03-2020 19:30:17 9.5 C 63 %
119 22-03-2020 19:40:17 9.5 C 63 %
120 22-03-2020 19:50:18 9.5 C 63 %
121 22-03-2020 20:00:18 9.5 C 63 %
122 22-03-2020 20:10:18 9.5 C 64 %
123 22-03-2020 20:20:17 9.5 C 64 %
124 22-03-2020 20:30:17 9.5 C 64 %
125 22-03-2020 20:40:17 9.5 C 64 %
Sensor: Nr:Datum:Temp:Feuchte:
G-T/H 126 22-03-2020 20:50:17 9.5 C 64 %
127 22-03-2020 21:00:17 9.5 C 64 %
128 22-03-2020 21:10:17 9.5 C 64 %
129 22-03-2020 21:20:17 9.5 C 64 %
130 22-03-2020 21:30:17 9.5 C 64 %
131 22-03-2020 21:40:17 9.5 C 64 %
132 22-03-2020 21:50:18 9.5 C 64 %
133 22-03-2020 22:00:18 9.5 C 64 %
134 22-03-2020 22:10:18 9.5 C 64 %
135 22-03-2020 22:20:17 9.5 C 64 %
136 22-03-2020 22:30:17 9.5 C 64 %
137 22-03-2020 22:40:17 9.5 C 64 %
138 22-03-2020 22:50:17 9.5 C 64 %
139 22-03-2020 23:00:17 9.5 C 64 %
140 22-03-2020 23:10:17 9.4 C 64 %
141 22-03-2020 23:20:17 9.4 C 64 %
142 22-03-2020 23:30:18 9.4 C 64 %
143 22-03-2020 23:40:18 9.4 C 64 %
144 22-03-2020 23:50:18 9.4 C 63 %
145 23-03-2020 00:00:18 9.4 C 63 %
146 23-03-2020 00:10:18 9.4 C 63 %
147 23-03-2020 00:20:17 9.4 C 63 %
148 23-03-2020 00:30:17 9.4 C 63 %
149 23-03-2020 00:40:17 9.3 C 63 %
150 23-03-2020 00:50:18 9.3 C 63 %
Sensor: Nr:Datum:Temp:Feuchte:
G-T/H 151 23-03-2020 01:00:17 9.3 C 63 %
152 23-03-2020 01:10:17 9.3 C 63 %
153 23-03-2020 01:20:17 9.3 C 63 %
154 23-03-2020 01:30:18 9.3 C 63 %
155 23-03-2020 01:40:18 9.2 C 63 %
156 23-03-2020 01:50:18 9.2 C 63 %
157 23-03-2020 02:00:18 9.2 C 63 %
158 23-03-2020 02:10:18 9.2 C 63 %
159 23-03-2020 02:20:17 9.2 C 63 %
160 23-03-2020 02:30:17 9.2 C 63 %
161 23-03-2020 02:40:17 9.1 C 63 %
162 23-03-2020 02:50:17 9.1 C 63 %
163 23-03-2020 03:00:17 9.1 C 63 %
164 23-03-2020 03:10:18 9.1 C 63 %
165 23-03-2020 03:20:18 9.1 C 63 %
166 23-03-2020 03:30:18 9.1 C 63 %
167 23-03-2020 03:40:18 9.1 C 63 %
168 23-03-2020 03:50:18 9 C 62 %
169 23-03-2020 04:00:18 9 C 62 %
170 23-03-2020 04:10:18 9 C 62 %
171 23-03-2020 04:20:17 9 C 62 %
172 23-03-2020 04:30:17 9 C 62 %
173 23-03-2020 04:40:17 9 C 62 %
174 23-03-2020 04:50:17 8.9 C 63 %
175 23-03-2020 05:00:18 8.9 C 63 %
Sensor: Nr:Datum:Temp:Feuchte:
G-T/H 176 23-03-2020 05:10:18 8.9 C 63 %
177 23-03-2020 05:20:17 8.9 C 63 %
178 23-03-2020 05:30:18 8.9 C 63 %
179 23-03-2020 05:40:18 8.8 C 63 %
180 23-03-2020 05:50:17 8.8 C 63 %
181 23-03-2020 06:00:18 8.8 C 63 %
182 23-03-2020 06:10:18 8.8 C 63 %
183 23-03-2020 06:20:17 8.8 C 63 %
184 23-03-2020 06:30:18 8.7 C 63 %
185 23-03-2020 06:40:18 8.7 C 63 %
186 23-03-2020 06:50:18 8.7 C 63 %
187 23-03-2020 07:00:18 8.7 C 62 %
188 23-03-2020 07:10:18 8.6 C 62 %
189 23-03-2020 07:20:18 8.6 C 62 %
190 23-03-2020 07:30:18 8.6 C 62 %
191 23-03-2020 07:40:18 8.6 C 62 %
192 23-03-2020 07:50:18 8.6 C 62 %
193 23-03-2020 08:00:18 8.6 C 62 %
194 23-03-2020 08:10:18 8.5 C 62 %
195 23-03-2020 08:20:17 8.5 C 62 %
196 23-03-2020 08